Wetterdaten: Mittwoch, 10.04.2024
Datum Zeit Temp. 2m Temp +5 cm Feuchte A. Luftdruck Regen Wind Richtung Richtung Sonnenschein UV Solar Taupunkt Windchill Windben
10.04.2024 00:00 5,5 C 5,0 C 86 % 1021,9 hPa 0,0 l/m 9,7 km/h (2 Bft) S-SW 202 0 min 0,0 UV-I 0 W/m 3,3 C 2,8 C 12,9 km/h (3 Bft)
10.04.2024 00:01 5,5 C 5,0 C 86 % 1021,9 hPa 0,0 l/m 11,3 km/h (2 Bft) SW 225 0 min 0,0 UV-I 0 W/m 3,3 C 1,8 C 14,5 km/h (3 Bft)
10.04.2024 00:02 5,5 C 5,0 C 86 % 1021,9 hPa 0,0 l/m 11,3 km/h (2 Bft) S-SW 202 0 min 0,0 UV-I 0 W/m 3,3 C 1,8 C 16,1 km/h (3 Bft)
10.04.2024 00:03 5,5 C 5,0 C 86 % 1021,9 hPa 0,0 l/m 14,5 km/h (3 Bft) S-SW 202 0 min 0,0 UV-I 0 W/m 3,3 C -0,1 C 20,9 km/h (4 Bft)
10.04.2024 00:04 5,5 C 5,0 C 86 % 1021,9 hPa 0,0 l/m 12,9 km/h (3 Bft) S-SW 202 0 min 0,0 UV-I 0 W/m 3,3 C 0,8 C 16,1 km/h (3 Bft)
10.04.2024 00:05 5,5 C 5,0 C 86 % 1021,9 hPa 0,0 l/m 11,3 km/h (2 Bft) S-SW 202 0 min 0,0 UV-I 0 W/m 3,3 C 1,8 C 16,1 km/h (3 Bft)
10.04.2024 00:06 5,5 C 5,0 C 86 % 1021,9 hPa 0,0 l/m 14,5 km/h (3 Bft) S-SW 202 0 min 0,0 UV-I 0 W/m 3,3 C -0,1 C 17,7 km/h (3 Bft)
10.04.2024 00:07 5,5 C 5,0 C 86 % 1021,8 hPa 0,0 l/m 14,5 km/h (3 Bft) S-SW 202 0 min 0,0 UV-I 0 W/m 3,3 C -0,1 C 17,7 km/h (3 Bft)
10.04.2024 00:08 5,5 C 5,0 C 86 % 1021,8 hPa 0,0 l/m 12,9 km/h (3 Bft) SW 225 0 min 0,0 UV-I 0 W/m 3,3 C 0,8 C 17,7 km/h (3 Bft)
10.04.2024 00:09 5,5 C 5,0 C 86 % 1021,9 hPa 0,0 l/m 8,0 km/h (2 Bft) SW 225 0 min 0,0 UV-I 0 W/m 3,3 C 4,1 C 17,7 km/h (3 Bft)
10.04.2024 00:10 5,5 C 5,0 C 86 % 1021,9 hPa 0,0 l/m 8,0 km/h (2 Bft) SW 225 0 min 0,0 UV-I 0 W/m 3,3 C 4,1 C 11,3 km/h (2 Bft)
10.04.2024 00:11 5,5 C 5,0 C 86 % 1021,9 hPa 0,0 l/m 8,0 km/h (2 Bft) SW 225 0 min 0,0 UV-I 0 W/m 3,3 C 4,1 C 12,9 km/h (3 Bft)
10.04.2024 00:12 5,5 C 5,0 C 86 % 1022,0 hPa 0,0 l/m 11,3 km/h (2 Bft) S-SW 202 0 min 0,0 UV-I 0 W/m 3,3 C 1,8 C 14,5 km/h (3 Bft)
10.04.2024 00:13 5,5 C 5,0 C 86 % 1022,0 hPa 0,0 l/m 11,3 km/h (2 Bft) S-SW 202 0 min 0,0 UV-I 0 W/m 3,3 C 1,8 C 12,9 km/h (3 Bft)
10.04.2024 00:14 5,5 C 5,0 C 86 % 1022,0 hPa 0,0 l/m 9,7 km/h (2 Bft) S-SW 202 0 min 0,0 UV-I 0 W/m 3,3 C 2,8 C 12,9 km/h (3 Bft)
10.04.2024 00:15 5,6 C 5,0 C 86 % 1022,1 hPa 0,0 l/m 11,3 km/h (2 Bft) SW 225 0 min 0,0 UV-I 0 W/m 3,4 C 1,9 C 19,3 km/h (3 Bft)
10.04.2024 00:16 5,5 C 5,0 C 86 % 1022,0 hPa 0,0 l/m 16,1 km/h (3 Bft) SW 225 0 min 0,0 UV-I 0 W/m 3,3 C -0,9 C 20,9 km/h (4 Bft)
10.04.2024 00:17 5,6 C 5,0 C 86 % 1022,0 hPa 0,0 l/m 11,3 km/h (2 Bft) SW 225 0 min 0,0 UV-I 0 W/m 3,4 C 1,9 C 19,3 km/h (3 Bft)
10.04.2024 00:18 5,5 C 5,0 C 86 % 1022,0 hPa 0,0 l/m 9,7 km/h (2 Bft) SW 225 0 min 0,0 UV-I 0 W/m 3,3 C 2,8 C 17,7 km/h (3 Bft)
10.04.2024 00:19 5,6 C 5,0 C 86 % 1022,1 hPa 0,0 l/m 9,7 km/h (2 Bft) SW 225 0 min 0,0 UV-I 0 W/m 3,4 C 2,9 C 12,9 km/h (3 Bft)
10.04.2024 00:20 5,6 C 5,0 C 86 % 1022,1 hPa 0,0 l/m 9,7 km/h (2 Bft) S-SW 202 0 min 0,0 UV-I 0 W/m 3,4 C 2,9 C 12,9 km/h (3 Bft)
10.04.2024 00:21 5,6 C 5,0 C 86 % 1022,1 hPa 0,0 l/m 8,0 km/h (2 Bft) SW 225 0 min 0,0 UV-I 0 W/m 3,4 C 4,2 C 9,7 km/h (2 Bft)
10.04.2024 00:22 5,6 C 5,0 C 86 % 1022,1 hPa 0,0 l/m 8,0 km/h (2 Bft) S-SW 202 0 min 0,0 UV-I 0 W/m 3,4 C 4,2 C 11,3 km/h (2 Bft)
10.04.2024 00:23 5,6 C 5,0 C 86 % 1022,2 hPa 0,0 l/m 8,0 km/h (2 Bft) S-SW 202 0 min 0,0 UV-I 0 W/m 3,4 C 4,2 C 11,3 km/h (2 Bft)
10.04.2024 00:24 5,6 C 5,0 C 86 % 1022,1 hPa 0,0 l/m 11,3 km/h (2 Bft) SW 225 0 min 0,0 UV-I 0 W/m 3,4 C 1,9 C 17,7 km/h (3 Bft)
10.04.2024 00:25 5,6 C 5,0 C 85 % 1022,3 hPa 0,0 l/m 14,5 km/h (3 Bft) S-SW 202 0 min 0,0 UV-I 0 W/m 3,3 C 0,1 C 19,3 km/h (3 Bft)
10.04.2024 00:26 5,6 C 5,0 C 85 % 1022,2 hPa 0,0 l/m 12,9 km/h (3 Bft) S-SW 202 0 min 0,0 UV-I 0 W/m 3,3 C 0,9 C 16,1 km/h (3 Bft)
10.04.2024 00:27 5,6 C 5,0 C 85 % 1022,3 hPa 0,0 l/m 14,5 km/h (3 Bft) SW 225 0 min 0,0 UV-I 0 W/m 3,3 C 0,1 C 19,3 km/h (3 Bft)
10.04.2024 00:28 5,6 C 5,0 C 85 % 1022,2 hPa 0,0 l/m 11,3 km/h (2 Bft) S-SW 202 0 min 0,0 UV-I 0 W/m 3,3 C 1,9 C 16,1 km/h (3 Bft)
10.04.2024 00:29 5,6 C 5,0 C 85 % 1022,3 hPa 0,0 l/m 9,7 km/h (2 Bft) S-SW 202 0 min 0,0 UV-I 0 W/m 3,3 C 2,9 C 16,1 km/h (3 Bft)
10.04.2024 00:30 5,6 C 5,0 C 85 % 1022,2 hPa 0,0 l/m 14,5 km/h (3 Bft) SW 225 0 min 0,0 UV-I 0 W/m 3,3 C 0,1 C 17,7 km/h (3 Bft)
10.04.2024 00:31 5,6 C 5,0 C 85 % 1022,2 hPa 0,0 l/m 16,1 km/h (3 Bft) S-SW 202 0 min 0,0 UV-I 0 W/m 3,3 C -0,7 C 20,9 km/h (4 Bft)
10.04.2024 00:32 5,6 C 5,0 C 85 % 1022,2 hPa 0,0 l/m 16,1 km/h (3 Bft) S-SW 202 0 min 0,0 UV-I 0 W/m 3,3 C -0,7 C 22,5 km/h (4 Bft)
10.04.2024 00:33 5,6 C 5,0 C 85 % 1022,1 hPa 0,0 l/m 6,4 km/h (2 Bft) SW 225 0 min 0,0 UV-I 0 W/m 3,3 C 5,6 C 24,1 km/h (4 Bft)
10.04.2024 00:34 5,6 C 5,0 C 85 % 1022,1 hPa 0,0 l/m 6,4 km/h (2 Bft) W-SW 247 0 min 0,0 UV-I 0 W/m 3,3 C 5,6 C 12,9 km/h (3 Bft)
10.04.2024 00:35 5,6 C 5,0 C 85 % 1022,2 hPa 0,0 l/m 8,0 km/h (2 Bft) W-SW 247 0 min 0,0 UV-I 0 W/m 3,3 C 4,2 C 19,3 km/h (3 Bft)
10.04.2024 00:36 5,6 C 5,0 C 85 % 1022,2 hPa 0,0 l/m 11,3 km/h (2 Bft) S-SW 202 0 min 0,0 UV-I 0 W/m 3,3 C 1,9 C 20,9 km/h (4 Bft)
10.04.2024 00:37 5,6 C 5,0 C 85 % 1022,1 hPa 0,0 l/m 12,9 km/h (3 Bft) W-SW 247 0 min 0,0 UV-I 0 W/m 3,3 C 0,9 C 17,7 km/h (3 Bft)
10.04.2024 00:38 5,6 C 5,0 C 85 % 1022,2 hPa 0,0 l/m 17,7 km/h (3 Bft) SW 225 0 min 0,0 UV-I 0 W/m 3,3 C -1,5 C 25,7 km/h (4 Bft)
10.04.2024 00:39 5,6 C 5,0 C 85 % 1022,2 hPa 0,0 l/m 16,1 km/h (3 Bft) W-SW 247 0 min 0,0 UV-I 0 W/m 3,3 C -0,7 C 27,4 km/h (4 Bft)
10.04.2024 00:40 5,6 C 5,0 C 84 % 1022,2 hPa 0,0 l/m 17,7 km/h (3 Bft) SW 225 0 min 0,0 UV-I 0 W/m 3,1 C -1,5 C 29,0 km/h (5 Bft)
10.04.2024 00:41 5,6 C 5,0 C 84 % 1022,2 hPa 0,0 l/m 16,1 km/h (3 Bft) W-SW 247 0 min 0,0 UV-I 0 W/m 3,1 C -0,7 C 29,0 km/h (5 Bft)
10.04.2024 00:42 5,6 C 5,0 C 84 % 1022,2 hPa 0,0 l/m 14,5 km/h (3 Bft) SW 225 0 min 0,0 UV-I 0 W/m 3,1 C 0,1 C 24,1 km/h (4 Bft)
10.04.2024 00:43 5,6 C 5,0 C 84 % 1022,3 hPa 0,0 l/m 16,1 km/h (3 Bft) SW 225 0 min 0,0 UV-I 0 W/m 3,1 C -0,7 C 24,1 km/h (4 Bft)
10.04.2024 00:44 5,6 C 5,0 C 84 % 1022,3 hPa 0,0 l/m 14,5 km/h (3 Bft) SW 225 0 min 0,0 UV-I 0 W/m 3,1 C 0,1 C 24,1 km/h (4 Bft)
10.04.2024 00:45 5,6 C 5,0 C 84 % 1022,3 hPa 0,0 l/m 12,9 km/h (3 Bft) W-SW 247 0 min 0,0 UV-I 0 W/m 3,1 C 0,9 C 19,3 km/h (3 Bft)
10.04.2024 00:46 5,6 C 5,0 C 84 % 1022,4 hPa 0,0 l/m 12,9 km/h (3 Bft) SW 225 0 min 0,0 UV-I 0 W/m 3,1 C 0,9 C 22,5 km/h (4 Bft)
10.04.2024 00:47 5,7 C 5,0 C 84 % 1022,4 hPa 0,0 l/m 14,5 km/h (3 Bft) SW 225 0 min 0,0 UV-I 0 W/m 3,2 C 0,2 C 29,0 km/h (5 Bft)
10.04.2024 00:48 5,7 C 5,0 C 84 % 1022,4 hPa 0,0 l/m 12,9 km/h (3 Bft) SW 225 0 min 0,0 UV-I 0 W/m 3,2 C 1,0 C 25,7 km/h (4 Bft)
10.04.2024 00:49 5,6 C 5,0 C 84 % 1022,5 hPa 0,0 l/m 8,0 km/h (2 Bft) S-SW 202 0 min 0,0 UV-I 0 W/m 3,1 C 4,2 C 14,5 km/h (3 Bft)
10.04.2024 00:50 5,7 C 5,0 C 84 % 1022,4 hPa 0,0 l/m 14,5 km/h (3 Bft) SW 225 0 min 0,0 UV-I 0 W/m 3,2 C 0,2 C 25,7 km/h (4 Bft)
10.04.2024 00:51 5,7 C 5,0 C 84 % 1022,5 hPa 0,0 l/m 17,7 km/h (3 Bft) SW 225 0 min 0,0 UV-I 0 W/m 3,2 C -1,3 C 29,0 km/h (5 Bft)
10.04.2024 00:52 5,7 C 5,0 C 84 % 1022,5 hPa 0,0 l/m 11,3 km/h (2 Bft) SW 225 0 min 0,0 UV-I 0 W/m 3,2 C 2,0 C 19,3 km/h (3 Bft)
10.04.2024 00:53 5,6 C 5,0 C 84 % 1022,5 hPa 0,0 l/m 12,9 km/h (3 Bft) S-SW 202 0 min 0,0 UV-I 0 W/m 3,1 C 0,9 C 17,7 km/h (3 Bft)
10.04.2024 00:54 5,7 C 5,0 C 84 % 1022,5 hPa 0,0 l/m 11,3 km/h (2 Bft) SW 225 0 min 0,0 UV-I 0 W/m 3,2 C 2,0 C 17,7 km/h (3 Bft)
10.04.2024 00:55 5,6 C 5,0 C 83 % 1022,6 hPa 0,0 l/m 9,7 km/h (2 Bft) SW 225 0 min 0,0 UV-I 0 W/m 2,9 C 2,9 C 12,9 km/h (3 Bft)
10.04.2024 00:56 5,7 C 5,0 C 83 % 1022,5 hPa 0,0 l/m 11,3 km/h (2 Bft) SW 225 0 min 0,0 UV-I 0 W/m 3,0 C 2,0 C 22,5 km/h (4 Bft)
10.04.2024 00:57 5,7 C 5,0 C 83 % 1022,7 hPa 0,0 l/m 11,3 km/h (2 Bft) W 270 0 min 0,0 UV-I 0 W/m 3,0 C 2,0 C 17,7 km/h (3 Bft)
10.04.2024 00:58 5,7 C 5,0 C 83 % 1022,5 hPa 0,0 l/m 6,4 km/h (2 Bft) W-SW 247 0 min 0,0 UV-I 0 W/m 3,0 C 5,7 C 9,7 km/h (2 Bft)
10.04.2024 00:59 5,7 C 5,0 C 83 % 1022,7 hPa 0,0 l/m 8,0 km/h (2 Bft) W-SW 247 0 min 0,0 UV-I 0 W/m 3,0 C 4,3 C 14,5 km/h (3 Bft)
10.04.2024 01:00 5,7 C 5,0 C 83 % 1022,6 hPa 0,0 l/m 11,3 km/h (2 Bft) SW 225 0 min 0,0 UV-I 0 W/m 3,0 C 2,0 C 16,1 km/h (3 Bft)
10.04.2024 01:01 5,7 C 5,0 C 83 % 1022,7 hPa 0,0 l/m 8,0 km/h (2 Bft) S-SW 202 0 min 0,0 UV-I 0 W/m 3,0 C 4,3 C 11,3 km/h (2 Bft)
10.04.2024 01:02 5,7 C 5,0 C 83 % 1022,7 hPa 0,0 l/m 8,0 km/h (2 Bft) S-SW 202 0 min 0,0 UV-I 0 W/m 3,0 C 4,3 C 11,3 km/h (2 Bft)
10.04.2024 01:03 5,7 C 5,0 C 83 % 1022,7 hPa 0,0 l/m 6,4 km/h (2 Bft) W-SW 247 0 min 0,0 UV-I 0 W/m 3,0 C 5,7 C 11,3 km/h (2 Bft)
10.04.2024 01:04 5,7 C 5,0 C 83 % 1022,6 hPa 0,0 l/m 6,4 km/h (2 Bft) W-SW 247 0 min 0,0 UV-I 0 W/m 3,0 C 5,7 C 11,3 km/h (2 Bft)
10.04.2024 01:05 5,7 C 5,0 C 84 % 1022,6 hPa 0,0 l/m 8,0 km/h (2 Bft) SW 225 0 min 0,0 UV-I 0 W/m 3,2 C 4,3 C 12,9 km/h (3 Bft)
10.04.2024 01:06 5,7 C 5,0 C 84 % 1022,7 hPa 0,0 l/m 9,7 km/h (2 Bft) SW 225 0 min 0,0 UV-I 0 W/m 3,2 C 3,1 C 16,1 km/h (3 Bft)
10.04.2024 01:07 5,6 C 5,0 C 83 % 1022,6 hPa 0,0 l/m 11,3 km/h (2 Bft) S-SW 202 0 min 0,0 UV-I 0 W/m 2,9 C 1,9 C 19,3 km/h (3 Bft)
10.04.2024 01:08 5,7 C 5,0 C 83 % 1022,7 hPa 0,0 l/m 12,9 km/h (3 Bft) SW 225 0 min 0,0 UV-I 0 W/m 3,0 C 1,0 C 20,9 km/h (4 Bft)
10.04.2024 01:09 5,6 C 5,0 C 83 % 1022,7 hPa 0,0 l/m 12,9 km/h (3 Bft) SW 225 0 min 0,0 UV-I 0 W/m 2,9 C 0,9 C 17,7 km/h (3 Bft)
10.04.2024 01:10 5,6 C 5,0 C 84 % 1022,6 hPa 0,0 l/m 9,7 km/h (2 Bft) SW 225 0 min 0,0 UV-I 0 W/m 3,1 C 2,9 C 14,5 km/h (3 Bft)
10.04.2024 01:11 5,6 C 5,0 C 84 % 1022,7 hPa 0,0 l/m 12,9 km/h (3 Bft) S-SW 202 0 min 0,0 UV-I 0 W/m 3,1 C 0,9 C 17,7 km/h (3 Bft)
10.04.2024 01:12 5,6 C 5,0 C 84 % 1022,7 hPa 0,0 l/m 14,5 km/h (3 Bft) S-SW 202 0 min 0,0 UV-I 0 W/m 3,1 C 0,1 C 17,7 km/h (3 Bft)
10.04.2024 01:13 5,6 C 5,0 C 84 % 1022,7 hPa 0,0 l/m 9,7 km/h (2 Bft) S-SW 202 0 min 0,0 UV-I 0 W/m 3,1 C 2,9 C 16,1 km/h (3 Bft)
10.04.2024 01:14 5,6 C 5,0 C 84 % 1022,7 hPa 0,0 l/m 9,7 km/h (2 Bft) S-SW 202 0 min 0,0 UV-I 0 W/m 3,1 C 2,9 C 16,1 km/h (3 Bft)
10.04.2024 01:15 5,6 C 5,0 C 84 % 1022,7 hPa 0,0 l/m 8,0 km/h (2 Bft) S-SW 202 0 min 0,0 UV-I 0 W/m 3,1 C 4,2 C 12,9 km/h (3 Bft)
10.04.2024 01:16 5,6 C 5,0 C 84 % 1022,7 hPa 0,0 l/m 11,3 km/h (2 Bft) S-SW 202 0 min 0,0 UV-I 0 W/m 3,1 C 1,9 C 14,5 km/h (3 Bft)
10.04.2024 01:17 5,6 C 5,0 C 84 % 1022,8 hPa 0,0 l/m 9,7 km/h (2 Bft) SW 225 0 min 0,0 UV-I 0 W/m 3,1 C 2,9 C 11,3 km/h (2 Bft)
10.04.2024 01:18 5,6 C 5,0 C 84 % 1022,7 hPa 0,0 l/m 11,3 km/h (2 Bft) SW 225 0 min 0,0 UV-I 0 W/m 3,1 C 1,9 C 16,1 km/h (3 Bft)
10.04.2024 01:19 5,5 C 5,0 C 84 % 1022,7 hPa 0,0 l/m 9,7 km/h (2 Bft) W-SW 247 0 min 0,0 UV-I 0 W/m 3,0 C 2,8 C 17,7 km/h (3 Bft)
10.04.2024 01:20 5,6 C 5,0 C 84 % 1022,8 hPa 0,0 l/m 8,0 km/h (2 Bft) S-SW 202 0 min 0,0 UV-I 0 W/m 3,1 C 4,2 C 11,3 km/h (2 Bft)
10.04.2024 01:21 5,6 C 5,0 C 84 % 1022,8 hPa 0,0 l/m 9,7 km/h (2 Bft) W 270 0 min 0,0 UV-I 0 W/m 3,1 C 2,9 C 16,1 km/h (3 Bft)
10.04.2024 01:22 5,6 C 5,0 C 84 % 1022,8 hPa 0,0 l/m 14,5 km/h (3 Bft) S-SW 202 0 min 0,0 UV-I 0 W/m 3,1 C 0,1 C 17,7 km/h (3 Bft)
10.04.2024 01:23 5,6 C 5,0 C 84 % 1022,8 hPa 0,0 l/m 11,3 km/h (2 Bft) SW 225 0 min 0,0 UV-I 0 W/m 3,1 C 1,9 C 17,7 km/h (3 Bft)
10.04.2024 01:24 5,6 C 5,0 C 84 % 1022,7 hPa 0,0 l/m 8,0 km/h (2 Bft) SW 225 0 min 0,0 UV-I 0 W/m 3,1 C 4,2 C 12,9 km/h (3 Bft)
10.04.2024 01:25 5,6 C 5,0 C 84 % 1022,8 hPa 0,0 l/m 8,0 km/h (2 Bft) SW 225 0 min 0,0 UV-I 0 W/m 3,1 C 4,2 C 16,1 km/h (3 Bft)
10.04.2024 01:26 5,6 C 5,0 C 84 % 1022,8 hPa 0,0 l/m 8,0 km/h (2 Bft) SW 225 0 min 0,0 UV-I 0 W/m 3,1 C 4,2 C 14,5 km/h (3 Bft)
10.04.2024 01:27 5,5 C 5,0 C 84 % 1022,8 hPa 0,0 l/m 9,7 km/h (2 Bft) S-SW 202 0 min 0,0 UV-I 0 W/m 3,0 C 2,8 C 12,9 km/h (3 Bft)
10.04.2024 01:28 5,5 C 5,0 C 84 % 1022,9 hPa 0,0 l/m 4,8 km/h (1 Bft) SW 225 0 min 0,0 UV-I 0 W/m 3,0 C 5,5 C 8,0 km/h (2 Bft)
10.04.2024 01:29 5,5 C 5,0 C 84 % 1022,8 hPa 0,0 l/m 8,0 km/h (2 Bft) SW 225 0 min 0,0 UV-I 0 W/m 3,0 C 4,1 C 11,3 km/h (2 Bft)
10.04.2024 01:30 5,5 C 5,0 C 84 % 1022,8 hPa 0,0 l/m 9,7 km/h (2 Bft) W-SW 247 0 min 0,0 UV-I 0 W/m 3,0 C 2,8 C 16,1 km/h (3 Bft)
10.04.2024 01:31 5,5 C 5,0 C 84 % 1022,8 hPa 0,0 l/m 11,3 km/h (2 Bft) S-SW 202 0 min 0,0 UV-I 0 W/m 3,0 C 1,8 C 12,9 km/h (3 Bft)
10.04.2024 01:32 5,5 C 5,0 C 84 % 1022,9 hPa 0,0 l/m 9,7 km/h (2 Bft) SW 225 0 min 0,0 UV-I 0 W/m 3,0 C 2,8 C 14,5 km/h (3 Bft)
10.04.2024 01:33 5,5 C 5,0 C 84 % 1022,8 hPa 0,0 l/m 8,0 km/h (2 Bft) S-SW 202 0 min 0,0 UV-I 0 W/m 3,0 C 4,1 C 14,5 km/h (3 Bft)
10.04.2024 01:34 5,5 C 5,0 C 85 % 1022,8 hPa 0,0 l/m 12,9 km/h (3 Bft) S-SW 202 0 min 0,0 UV-I 0 W/m 3,2 C 0,8 C 16,1 km/h (3 Bft)
10.04.2024 01:35 5,5 C 5,0 C 85 % 1022,8 hPa 0,0 l/m 9,7 km/h (2 Bft) S-SW 202 0 min 0,0 UV-I 0 W/m 3,2 C 2,8 C 14,5 km/h (3 Bft)
10.04.2024 01:36 5,4 C 5,0 C 85 % 1022,8 hPa 0,0 l/m 8,0 km/h (2 Bft) S-SW 202 0 min 0,0 UV-I 0 W/m 3,1 C 4,0 C 14,5 km/h (3 Bft)
10.04.2024 01:37 5,4 C 5,0 C 85 % 1022,9 hPa 0,0 l/m 9,7 km/h (2 Bft) S-SW 202 0 min 0,0 UV-I 0 W/m 3,1 C 2,7 C 12,9 km/h (3 Bft)
10.04.2024 01:38 5,4 C 5,0 C 85 % 1022,9 hPa 0,0 l/m 8,0 km/h (2 Bft) S-SW 202 0 min 0,0 UV-I 0 W/m 3,1 C 4,0 C 9,7 km/h (2 Bft)
10.04.2024 01:39 5,4 C 5,0 C 85 % 1022,9 hPa 0,0 l/m 9,7 km/h (2 Bft) W 270 0 min 0,0 UV-I 0 W/m 3,1 C 2,7 C 16,1 km/h (3 Bft)
10.04.2024 01:40 5,4 C 5,0 C 85 % 1022,9 hPa 0,0 l/m 11,3 km/h (2 Bft) S-SW 202 0 min 0,0 UV-I 0 W/m 3,1 C 1,7 C 16,1 km/h (3 Bft)
10.04.2024 01:41 5,4 C 5,0 C 85 % 1022,9 hPa 0,0 l/m 11,3 km/h (2 Bft) SW 225 0 min 0,0 UV-I 0 W/m 3,1 C 1,7 C 20,9 km/h (4 Bft)
10.04.2024 01:42 5,4 C 5,0 C 85 % 1022,9 hPa 0,0 l/m 9,7 km/h (2 Bft) SW 225 0 min 0,0 UV-I 0 W/m 3,1 C 2,7 C 17,7 km/h (3 Bft)
10.04.2024 01:43 5,4 C 5,0 C 85 % 1022,8 hPa 0,0 l/m 8,0 km/h (2 Bft) SW 225 0 min 0,0 UV-I 0 W/m 3,1 C 4,0 C 12,9 km/h (3 Bft)
10.04.2024 01:44 5,4 C 5,0 C 85 % 1022,9 hPa 0,0 l/m 9,7 km/h (2 Bft) SW 225 0 min 0,0 UV-I 0 W/m 3,1 C 2,7 C 14,5 km/h (3 Bft)
10.04.2024 01:45 5,4 C 5,0 C 85 % 1022,9 hPa 0,0 l/m 9,7 km/h (2 Bft) S-SW 202 0 min 0,0 UV-I 0 W/m 3,1 C 2,7 C 11,3 km/h (2 Bft)
10.04.2024 01:46 5,4 C 5,0 C 85 % 1022,9 hPa 0,0 l/m 12,9 km/h (3 Bft) S-SW 202 0 min 0,0 UV-I 0 W/m 3,1 C 0,7 C 16,1 km/h (3 Bft)
10.04.2024 01:47 5,4 C 5,0 C 85 % 1023,0 hPa 0,0 l/m 14,5 km/h (3 Bft) S-SW 202 0 min 0,0 UV-I 0 W/m 3,1 C -0,2 C 25,7 km/h (4 Bft)
10.04.2024 01:48 5,4 C 5,0 C 84 % 1023,0 hPa 0,0 l/m 16,1 km/h (3 Bft) S-SW 202 0 min 0,0 UV-I 0 W/m 2,9 C -1,0 C 20,9 km/h (4 Bft)
10.04.2024 01:49 5,4 C 5,0 C 84 % 1022,9 hPa 0,0 l/m 14,5 km/h (3 Bft) SW 225 0 min 0,0 UV-I 0 W/m 2,9 C -0,2 C 20,9 km/h (4 Bft)
10.04.2024 01:50 5,4 C 5,0 C 84 % 1022,9 hPa 0,0 l/m 9,7 km/h (2 Bft) SW 225 0 min 0,0 UV-I 0 W/m 2,9 C 2,7 C 12,9 km/h (3 Bft)
10.04.2024 01:51 5,5 C 5,0 C 84 % 1022,9 hPa 0,0 l/m 9,7 km/h (2 Bft) S-SW 202 0 min 0,0 UV-I 0 W/m 3,0 C 2,8 C 12,9 km/h (3 Bft)
10.04.2024 01:52 5,4 C 5,0 C 84 % 1023,0 hPa 0,0 l/m 12,9 km/h (3 Bft) S-SW 202 0 min 0,0 UV-I 0 W/m 2,9 C 0,7 C 16,1 km/h (3 Bft)
10.04.2024 01:53 5,4 C 5,0 C 84 % 1023,0 hPa 0,0 l/m 9,7 km/h (2 Bft) S-SW 202 0 min 0,0 UV-I 0 W/m 2,9 C 2,7 C 14,5 km/h (3 Bft)
10.04.2024 01:54 5,4 C 5,0 C 84 % 1023,1 hPa 0,0 l/m 9,7 km/h (2 Bft) SW 225 0 min 0,0 UV-I 0 W/m 2,9 C 2,7 C 12,9 km/h (3 Bft)
10.04.2024 01:55 5,4 C 5,0 C 84 % 1023,1 hPa 0,0 l/m 8,0 km/h (2 Bft) S-SW 202 0 min 0,0 UV-I 0 W/m 2,9 C 4,0 C 11,3 km/h (2 Bft)
10.04.2024 01:56 5,4 C 5,0 C 84 % 1023,1 hPa 0,0 l/m 4,8 km/h (1 Bft) S-SW 202 0 min 0,0 UV-I 0 W/m 2,9 C 5,4 C 9,7 km/h (2 Bft)
10.04.2024 01:57 5,5 C 5,0 C 84 % 1023,1 hPa 0,0 l/m 11,3 km/h (2 Bft) S-SW 202 0 min 0,0 UV-I 0 W/m 3,0 C 1,8 C 14,5 km/h (3 Bft)
10.04.2024 01:58 5,4 C 5,0 C 84 % 1023,1 hPa 0,0 l/m 11,3 km/h (2 Bft) S-SW 202 0 min 0,0 UV-I 0 W/m 2,9 C 1,7 C 16,1 km/h (3 Bft)
10.04.2024 01:59 5,4 C 5,0 C 84 % 1023,1 hPa 0,0 l/m 8,0 km/h (2 Bft) S-SW 202 0 min 0,0 UV-I 0 W/m 2,9 C 4,0 C 12,9 km/h (3 Bft)
10.04.2024 02:00 5,4 C 5,0 C 84 % 1023,2 hPa 0,0 l/m 9,7 km/h (2 Bft) W-SW 247 0 min 0,0 UV-I 0 W/m 2,9 C 2,7 C 14,5 km/h (3 Bft)
10.04.2024 02:01 5,4 C 5,0 C 84 % 1023,2 hPa 0,0 l/m 9,7 km/h (2 Bft) S-SW 202 0 min 0,0 UV-I 0 W/m 2,9 C 2,7 C 12,9 km/h (3 Bft)
10.04.2024 02:02 5,4 C 5,0 C 84 % 1023,2 hPa 0,0 l/m 9,7 km/h (2 Bft) S-SW 202 0 min 0,0 UV-I 0 W/m 2,9 C 2,7 C 12,9 km/h (3 Bft)
10.04.2024 02:03 5,4 C 5,0 C 84 % 1023,1 hPa 0,0 l/m 8,0 km/h (2 Bft) S-SW 202 0 min 0,0 UV-I 0 W/m 2,9 C 4,0 C 11,3 km/h (2 Bft)
10.04.2024 02:04 5,4 C 5,0 C 84 % 1023,1 hPa 0,0 l/m 8,0 km/h (2 Bft) S-SW 202 0 min 0,0 UV-I 0 W/m 2,9 C 4,0 C 11,3 km/h (2 Bft)
10.04.2024 02:05 5,4 C 5,0 C 84 % 1023,1 hPa 0,0 l/m 8,0 km/h (2 Bft) S-SW 202 0 min 0,0 UV-I 0 W/m 2,9 C 4,0 C 9,7 km/h (2 Bft)
10.04.2024 02:06 5,4 C 5,0 C 84 % 1023,1 hPa 0,0 l/m 11,3 km/h (2 Bft) S-SW 202 0 min 0,0 UV-I 0 W/m 2,9 C 1,7 C 16,1 km/h (3 Bft)
10.04.2024 02:07 5,4 C 5,0 C 84 % 1023,2 hPa 0,0 l/m 11,3 km/h (2 Bft) S-SW 202 0 min 0,0 UV-I 0 W/m 2,9 C 1,7 C 16,1 km/h (3 Bft)
10.04.2024 02:08 5,4 C 5,0 C 84 % 1023,1 hPa 0,0 l/m 11,3 km/h (2 Bft) SW 225 0 min 0,0 UV-I 0 W/m 2,9 C 1,7 C 16,1 km/h (3 Bft)
10.04.2024 02:09 5,4 C 5,0 C 84 % 1023,3 hPa 0,0 l/m 11,3 km/h (2 Bft) S-SW 202 0 min 0,0 UV-I 0 W/m 2,9 C 1,7 C 14,5 km/h (3 Bft)
10.04.2024 02:10 5,4 C 5,0 C 85 % 1023,2 hPa 0,0 l/m 8,0 km/h (2 Bft) S-SW 202 0 min 0,0 UV-I 0 W/m 3,1 C 4,0 C 11,3 km/h (2 Bft)
10.04.2024 02:11 5,3 C 5,0 C 85 % 1023,3 hPa 0,0 l/m 9,7 km/h (2 Bft) S-SW 202 0 min 0,0 UV-I 0 W/m 3,0 C 2,6 C 12,9 km/h (3 Bft)
10.04.2024 02:12 5,3 C 5,0 C 85 % 1023,3 hPa 0,0 l/m 12,9 km/h (3 Bft) S-SW 202 0 min 0,0 UV-I 0 W/m 3,0 C 0,6 C 16,1 km/h (3 Bft)
10.04.2024 02:13 5,3 C 5,0 C 85 % 1023,3 hPa 0,0 l/m 9,7 km/h (2 Bft) SW 225 0 min 0,0 UV-I 0 W/m 3,0 C 2,6 C 12,9 km/h (3 Bft)
10.04.2024 02:14 5,4 C 5,0 C 85 % 1023,3 hPa 0,0 l/m 11,3 km/h (2 Bft) S-SW 202 0 min 0,0 UV-I 0 W/m 3,1 C 1,7 C 16,1 km/h (3 Bft)
10.04.2024 02:15 5,3 C 5,0 C 85 % 1023,3 hPa 0,0 l/m 12,9 km/h (3 Bft) S-SW 202 0 min 0,0 UV-I 0 W/m 3,0 C 0,6 C 19,3 km/h (3 Bft)
10.04.2024 02:16 5,3 C 5,0 C 85 % 1023,3 hPa 0,0 l/m 9,7 km/h (2 Bft) S-SW 202 0 min 0,0 UV-I 0 W/m 3,0 C 2,6 C 12,9 km/h (3 Bft)
10.04.2024 02:17 5,3 C 5,0 C 85 % 1023,4 hPa 0,0 l/m 6,4 km/h (2 Bft) SW 225 0 min 0,0 UV-I 0 W/m 3,0 C 5,3 C 11,3 km/h (2 Bft)
10.04.2024 02:18 5,3 C 5,0 C 85 % 1023,3 hPa 0,0 l/m 8,0 km/h (2 Bft) SW 225 0 min 0,0 UV-I 0 W/m 3,0 C 3,9 C 12,9 km/h (3 Bft)
10.04.2024 02:19 5,3 C 5,0 C 85 % 1023,4 hPa 0,0 l/m 9,7 km/h (2 Bft) S-SW 202 0 min 0,0 UV-I 0 W/m 3,0 C 2,6 C 12,9 km/h (3 Bft)
10.04.2024 02:20 5,3 C 5,0 C 85 % 1023,4 hPa 0,0 l/m 8,0 km/h (2 Bft) S-SW 202 0 min 0,0 UV-I 0 W/m 3,0 C 3,9 C 12,9 km/h (3 Bft)
10.04.2024 02:21 5,4 C 5,0 C 85 % 1023,4 hPa 0,0 l/m 11,3 km/h (2 Bft) S-SW 202 0 min 0,0 UV-I 0 W/m 3,1 C 1,7 C 19,3 km/h (3 Bft)
10.04.2024 02:22 5,4 C 5,0 C 84 % 1023,4 hPa 0,0 l/m 9,7 km/h (2 Bft) SW 225 0 min 0,0 UV-I 0 W/m 2,9 C 2,7 C 12,9 km/h (3 Bft)
10.04.2024 02:23 5,3 C 5,0 C 84 % 1023,4 hPa 0,0 l/m 9,7 km/h (2 Bft) W-SW 247 0 min 0,0 UV-I 0 W/m 2,8 C 2,6 C 14,5 km/h (3 Bft)
10.04.2024 02:24 5,4 C 5,0 C 84 % 1023,5 hPa 0,0 l/m 11,3 km/h (2 Bft) S-SW 202 0 min 0,0 UV-I 0 W/m 2,9 C 1,7 C 16,1 km/h (3 Bft)
10.04.2024 02:25 5,4 C 5,0 C 84 % 1023,6 hPa 0,0 l/m 6,4 km/h (2 Bft) SW 225 0 min 0,0 UV-I 0 W/m 2,9 C 5,4 C 17,7 km/h (3 Bft)
10.04.2024 02:26 5,4 C 5,0 C 84 % 1023,5 hPa 0,0 l/m 8,0 km/h (2 Bft) SW 225 0 min 0,0 UV-I 0 W/m 2,9 C 4,0 C 14,5 km/h (3 Bft)
10.04.2024 02:27 5,4 C 5,0 C 84 % 1023,4 hPa 0,0 l/m 6,4 km/h (2 Bft) S-SW 202 0 min 0,0 UV-I 0 W/m 2,9 C 5,4 C 12,9 km/h (3 Bft)
10.04.2024 02:28 5,4 C 5,0 C 84 % 1023,5 hPa 0,0 l/m 8,0 km/h (2 Bft) S-SW 202 0 min 0,0 UV-I 0 W/m 2,9 C 4,0 C 11,3 km/h (2 Bft)
10.04.2024 02:29 5,4 C 5,0 C 84 % 1023,6 hPa 0,0 l/m 6,4 km/h (2 Bft) S-SW 202 0 min 0,0 UV-I 0 W/m 2,9 C 5,4 C 11,3 km/h (2 Bft)
10.04.2024 02:30 5,4 C 5,0 C 84 % 1023,5 hPa 0,0 l/m 8,0 km/h (2 Bft) S-SW 202 0 min 0,0 UV-I 0 W/m 2,9 C 4,0 C 11,3 km/h (2 Bft)
10.04.2024 02:31 5,4 C 5,0 C 85 % 1023,6 hPa 0,0 l/m 6,4 km/h (2 Bft) S-SW 202 0 min 0,0 UV-I 0 W/m 3,1 C 5,4 C 8,0 km/h (2 Bft)
10.04.2024 02:32 5,4 C 5,0 C 84 % 1023,6 hPa 0,0 l/m 8,0 km/h (2 Bft) SW 225 0 min 0,0 UV-I 0 W/m 2,9 C 4,0 C 11,3 km/h (2 Bft)
10.04.2024 02:33 5,4 C 5,0 C 84 % 1023,6 hPa 0,0 l/m 8,0 km/h (2 Bft) S-SW 202 0 min 0,0 UV-I 0 W/m 2,9 C 4,0 C 11,3 km/h (2 Bft)
10.04.2024 02:34 5,4 C 5,0 C 84 % 1023,6 hPa 0,0 l/m 8,0 km/h (2 Bft) S-SW 202 0 min 0,0 UV-I 0 W/m 2,9 C 4,0 C 12,9 km/h (3 Bft)
10.04.2024 02:35 5,4 C 5,0 C 84 % 1023,6 hPa 0,0 l/m 8,0 km/h (2 Bft) S-SW 202 0 min 0,0 UV-I 0 W/m 2,9 C 4,0 C 12,9 km/h (3 Bft)
10.04.2024 02:36 5,4 C 5,0 C 84 % 1023,5 hPa 0,0 l/m 9,7 km/h (2 Bft) S-SW 202 0 min 0,0 UV-I 0 W/m 2,9 C 2,7 C 11,3 km/h (2 Bft)
10.04.2024 02:37 5,3 C 5,0 C 84 % 1023,6 hPa 0,0 l/m 6,4 km/h (2 Bft) S 180 0 min 0,0 UV-I 0 W/m 2,8 C 5,3 C 9,7 km/h (2 Bft)
10.04.2024 02:38 5,4 C 5,0 C 84 % 1023,7 hPa 0,0 l/m 8,0 km/h (2 Bft) S 180 0 min 0,0 UV-I 0 W/m 2,9 C 4,0 C 11,3 km/h (2 Bft)
10.04.2024 02:39 5,3 C 5,0 C 84 % 1023,6 hPa 0,0 l/m 6,4 km/h (2 Bft) S 180 0 min 0,0 UV-I 0 W/m 2,8 C 5,3 C 11,3 km/h (2 Bft)
10.04.2024 02:40 5,3 C 5,0 C 84 % 1023,5 hPa 0,0 l/m 8,0 km/h (2 Bft) S 180 0 min 0,0 UV-I 0 W/m 2,8 C 3,9 C 9,7 km/h (2 Bft)
10.04.2024 02:41 5,3 C 5,0 C 85 % 1023,7 hPa 0,0 l/m 8,0 km/h (2 Bft) S-SW 202 0 min 0,0 UV-I 0 W/m 3,0 C 3,9 C 9,7 km/h (2 Bft)
10.04.2024 02:42 5,3 C 5,0 C 85 % 1023,7 hPa 0,0 l/m 11,3 km/h (2 Bft) S-SW 202 0 min 0,0 UV-I 0 W/m 3,0 C 1,5 C 14,5 km/h (3 Bft)
10.04.2024 02:43 5,3 C 5,0 C 85 % 1023,7 hPa 0,0 l/m 11,3 km/h (2 Bft) S-SW 202 0 min 0,0 UV-I 0 W/m 3,0 C 1,5 C 14,5 km/h (3 Bft)
10.04.2024 02:44 5,3 C 5,0 C 85 % 1023,7 hPa 0,0 l/m 9,7 km/h (2 Bft) S-SW 202 0 min 0,0 UV-I 0 W/m 3,0 C 2,6 C 12,9 km/h (3 Bft)
10.04.2024 02:45 5,3 C 5,0 C 85 % 1023,7 hPa 0,0 l/m 8,0 km/h (2 Bft) SW 225 0 min 0,0 UV-I 0 W/m 3,0 C 3,9 C 11,3 km/h (2 Bft)
10.04.2024 02:46 5,3 C 5,0 C 85 % 1023,7 hPa 0,0 l/m 8,0 km/h (2 Bft) S-SW 202 0 min 0,0 UV-I 0 W/m 3,0 C 3,9 C 9,7 km/h (2 Bft)
10.04.2024 02:47 5,3 C 5,0 C 85 % 1023,7 hPa 0,0 l/m 6,4 km/h (2 Bft) S-SW 202 0 min 0,0 UV-I 0 W/m 3,0 C 5,3 C 9,7 km/h (2 Bft)
10.04.2024 02:48 5,3 C 5,0 C 85 % 1023,8 hPa 0,0 l/m 4,8 km/h (1 Bft) S-SW 202 0 min 0,0 UV-I 0 W/m 3,0 C 5,3 C 8,0 km/h (2 Bft)
10.04.2024 02:49 5,3 C 5,0 C 85 % 1023,7 hPa 0,0 l/m 8,0 km/h (2 Bft) S-SW 202 0 min 0,0 UV-I 0 W/m 3,0 C 3,9 C 11,3 km/h (2 Bft)
10.04.2024 02:50 5,3 C 5,0 C 85 % 1023,8 hPa 0,0 l/m 8,0 km/h (2 Bft) S-SW 202 0 min 0,0 UV-I 0 W/m 3,0 C 3,9 C 9,7 km/h (2 Bft)
10.04.2024 02:51 5,3 C 5,0 C 85 % 1023,8 hPa 0,0 l/m 9,7 km/h (2 Bft) S-SW 202 0 min 0,0 UV-I 0 W/m 3,0 C 2,6 C 11,3 km/h (2 Bft)
10.04.2024 02:52 5,3 C 5,0 C 85 % 1023,8 hPa 0,0 l/m 6,4 km/h (2 Bft) S-SW 202 0 min 0,0 UV-I 0 W/m 3,0 C 5,3 C 11,3 km/h (2 Bft)
10.04.2024 02:53 5,3 C 5,0 C 85 % 1023,7 hPa 0,0 l/m 8,0 km/h (2 Bft) S-SW 202 0 min 0,0 UV-I 0 W/m 3,0 C 3,9 C 16,1 km/h (3 Bft)
10.04.2024 02:54 5,3 C 5,0 C 85 % 1023,7 hPa 0,0 l/m 9,7 km/h (2 Bft) S 180 0 min 0,0 UV-I 0 W/m 3,0 C 2,6 C 17,7 km/h (3 Bft)
10.04.2024 02:55 5,3 C 5,0 C 85 % 1023,9 hPa 0,0 l/m 6,4 km/h (2 Bft) S 180 0 min 0,0 UV-I 0 W/m 3,0 C 5,3 C 9,7 km/h (2 Bft)
10.04.2024 02:56 5,3 C 5,0 C 85 % 1023,8 hPa 0,0 l/m 8,0 km/h (2 Bft) SW 225 0 min 0,0 UV-I 0 W/m 3,0 C 3,9 C 9,7 km/h (2 Bft)
10.04.2024 02:57 5,3 C 5,0 C 85 % 1023,9 hPa 0,0 l/m 8,0 km/h (2 Bft) SW 225 0 min 0,0 UV-I 0 W/m 3,0 C 3,9 C 9,7 km/h (2 Bft)
10.04.2024 02:58 5,3 C 5,0 C 85 % 1023,9 hPa 0,0 l/m 11,3 km/h (2 Bft) S-SW 202 0 min 0,0 UV-I 0 W/m 3,0 C 1,5 C 14,5 km/h (3 Bft)
10.04.2024 02:59 5,2 C 5,0 C 85 % 1023,9 hPa 0,0 l/m 11,3 km/h (2 Bft) SW 225 0 min 0,0 UV-I 0 W/m 2,9 C 1,4 C 14,5 km/h (3 Bft)
10.04.2024 03:00 5,2 C 5,0 C 85 % 1023,9 hPa 0,0 l/m 8,0 km/h (2 Bft) S-SW 202 0 min 0,0 UV-I 0 W/m 2,9 C 3,8 C 11,3 km/h (2 Bft)
10.04.2024 03:01 5,2 C 5,0 C 85 % 1023,9 hPa 0,0 l/m 8,0 km/h (2 Bft) S-SW 202 0 min 0,0 UV-I 0 W/m 2,9 C 3,8 C 11,3 km/h (2 Bft)
10.04.2024 03:02 5,2 C 5,0 C 85 % 1023,9 hPa 0,0 l/m 8,0 km/h (2 Bft) SW 225 0 min 0,0 UV-I 0 W/m 2,9 C 3,8 C 11,3 km/h (2 Bft)
10.04.2024 03:03 5,2 C 5,0 C 85 % 1023,9 hPa 0,0 l/m 8,0 km/h (2 Bft) SW 225 0 min 0,0 UV-I 0 W/m 2,9 C 3,8 C 11,3 km/h (2 Bft)
10.04.2024 03:04 5,2 C 5,0 C 85 % 1024,0 hPa 0,0 l/m 9,7 km/h (2 Bft) S 180 0 min 0,0 UV-I 0 W/m 2,9 C 2,5 C 14,5 km/h (3 Bft)
10.04.2024 03:05 5,2 C 5,0 C 85 % 1023,9 hPa 0,0 l/m 9,7 km/h (2 Bft) S 180 0 min 0,0 UV-I 0 W/m 2,9 C 2,5 C 14,5 km/h (3 Bft)
10.04.2024 03:06 5,2 C 5,0 C 85 % 1023,9 hPa 0,0 l/m 11,3 km/h (2 Bft) S-SW 202 0 min 0,0 UV-I 0 W/m 2,9 C 1,4 C 14,5 km/h (3 Bft)
10.04.2024 03:07 5,2 C 5,0 C 85 % 1024,0 hPa 0,0 l/m 6,4 km/h (2 Bft) SW 225 0 min 0,0 UV-I 0 W/m 2,9 C 5,2 C 9,7 km/h (2 Bft)
10.04.2024 03:08 5,2 C 4,4 C 85 % 1024,0 hPa 0,0 l/m 9,7 km/h (2 Bft) SW 225 0 min 0,0 UV-I 0 W/m 2,9 C 2,5 C 11,3 km/h (2 Bft)
10.04.2024 03:09 5,2 C 4,4 C 85 % 1023,9 hPa 0,0 l/m 8,0 km/h (2 Bft) SW 225 0 min 0,0 UV-I 0 W/m 2,9 C 3,8 C 9,7 km/h (2 Bft)
10.04.2024 03:10 5,2 C 4,4 C 85 % 1024,0 hPa 0,0 l/m 8,0 km/h (2 Bft) W-SW 247 0 min 0,0 UV-I 0 W/m 2,9 C 3,8 C 11,3 km/h (2 Bft)
10.04.2024 03:11 5,2 C 4,4 C 85 % 1024,0 hPa 0,0 l/m 8,0 km/h (2 Bft) SW 225 0 min 0,0 UV-I 0 W/m 2,9 C 3,8 C 11,3 km/h (2 Bft)
10.04.2024 03:12 5,2 C 4,4 C 85 % 1023,9 hPa 0,0 l/m 4,8 km/h (1 Bft) SW 225 0 min 0,0 UV-I 0 W/m 2,9 C 5,2 C 8,0 km/h (2 Bft)
10.04.2024 03:13 5,2 C 4,4 C 85 % 1024,0 hPa 0,0 l/m 9,7 km/h (2 Bft) SW 225 0 min 0,0 UV-I 0 W/m 2,9 C 2,5 C 14,5 km/h (3 Bft)
10.04.2024 03:14 5,2 C 4,4 C 85 % 1024,0 hPa 0,0 l/m 11,3 km/h (2 Bft) S-SW 202 0 min 0,0 UV-I 0 W/m 2,9 C 1,4 C 12,9 km/h (3 Bft)
10.04.2024 03:15 5,2 C 4,4 C 85 % 1024,0 hPa 0,0 l/m 6,4 km/h (2 Bft) S-SW 202 0 min 0,0 UV-I 0 W/m 2,9 C 5,2 C 9,7 km/h (2 Bft)
10.04.2024 03:16 5,2 C 4,4 C 85 % 1024,0 hPa 0,0 l/m 6,4 km/h (2 Bft) S-SW 202 0 min 0,0 UV-I 0 W/m 2,9 C 5,2 C 8,0 km/h (2 Bft)
10.04.2024 03:17 5,2 C 4,4 C 85 % 1024,1 hPa 0,0 l/m 9,7 km/h (2 Bft) S-SW 202 0 min 0,0 UV-I 0 W/m 2,9 C 2,5 C 11,3 km/h (2 Bft)
10.04.2024 03:18 5,2 C 4,4 C 85 % 1024,1 hPa 0,0 l/m 4,8 km/h (1 Bft) S-SW 202 0 min 0,0 UV-I 0 W/m 2,9 C 5,2 C 6,4 km/h (2 Bft)
10.04.2024 03:19 5,2 C 4,4 C 85 % 1024,1 hPa 0,0 l/m 6,4 km/h (2 Bft) S-SW 202 0 min 0,0 UV-I 0 W/m 2,9 C 5,2 C 9,7 km/h (2 Bft)
10.04.2024 03:20 5,2 C 4,4 C 85 % 1024,1 hPa 0,0 l/m 8,0 km/h (2 Bft) S-SW 202 0 min 0,0 UV-I 0 W/m 2,9 C 3,8 C 12,9 km/h (3 Bft)
10.04.2024 03:21 5,2 C 4,4 C 85 % 1024,1 hPa 0,0 l/m 8,0 km/h (2 Bft) S-SW 202 0 min 0,0 UV-I 0 W/m 2,9 C 3,8 C 11,3 km/h (2 Bft)
10.04.2024 03:22 5,2 C 4,4 C 85 % 1024,1 hPa 0,0 l/m 6,4 km/h (2 Bft) S 180 0 min 0,0 UV-I 0 W/m 2,9 C 5,2 C 9,7 km/h (2 Bft)
10.04.2024 03:23 5,2 C 4,4 C 85 % 1024,2 hPa 0,0 l/m 8,0 km/h (2 Bft) S 180 0 min 0,0 UV-I 0 W/m 2,9 C 3,8 C 9,7 km/h (2 Bft)
10.04.2024 03:24 5,2 C 4,4 C 85 % 1024,1 hPa 0,0 l/m 8,0 km/h (2 Bft) S 180 0 min 0,0 UV-I 0 W/m 2,9 C 3,8 C 9,7 km/h (2 Bft)
10.04.2024 03:25 5,2 C 4,4 C 85 % 1024,1 hPa 0,0 l/m 9,7 km/h (2 Bft) S-SW 202 0 min 0,0 UV-I 0 W/m 2,9 C 2,5 C 11,3 km/h (2 Bft)
10.04.2024 03:26 5,2 C 4,4 C 85 % 1024,1 hPa 0,0 l/m 8,0 km/h (2 Bft) S-SW 202 0 min 0,0 UV-I 0 W/m 2,9 C 3,8 C 11,3 km/h (2 Bft)
10.04.2024 03:27 5,2 C 4,4 C 85 % 1024,2 hPa 0,0 l/m 6,4 km/h (2 Bft) SW 225 0 min 0,0 UV-I 0 W/m 2,9 C 5,2 C 8,0 km/h (2 Bft)
10.04.2024 03:28 5,2 C 4,4 C 85 % 1024,1 hPa 0,0 l/m 8,0 km/h (2 Bft) SW 225 0 min 0,0 UV-I 0 W/m 2,9 C 3,8 C 11,3 km/h (2 Bft)
10.04.2024 03:29 5,2 C 4,4 C 85 % 1024,1 hPa 0,0 l/m 11,3 km/h (2 Bft) SW 225 0 min 0,0 UV-I 0 W/m 2,9 C 1,4 C 12,9 km/h (3 Bft)
10.04.2024 03:30 5,2 C 4,4 C 85 % 1024,1 hPa 0,0 l/m 8,0 km/h (2 Bft) SW 225 0 min 0,0 UV-I 0 W/m 2,9 C 3,8 C 12,9 km/h (3 Bft)
10.04.2024 03:31 5,1 C 4,4 C 85 % 1024,0 hPa 0,0 l/m 8,0 km/h (2 Bft) S-SW 202 0 min 0,0 UV-I 0 W/m 2,8 C 3,7 C 14,5 km/h (3 Bft)
10.04.2024 03:32 5,1 C 4,4 C 85 % 1024,2 hPa 0,0 l/m 6,4 km/h (2 Bft) S-SW 202 0 min 0,0 UV-I 0 W/m 2,8 C 5,1 C 9,7 km/h (2 Bft)
10.04.2024 03:33 5,1 C 4,4 C 85 % 1024,2 hPa 0,0 l/m 11,3 km/h (2 Bft) S-SW 202 0 min 0,0 UV-I 0 W/m 2,8 C 1,3 C 14,5 km/h (3 Bft)
10.04.2024 03:34 5,1 C 4,4 C 85 % 1024,2 hPa 0,0 l/m 9,7 km/h (2 Bft) S-SW 202 0 min 0,0 UV-I 0 W/m 2,8 C 2,4 C 12,9 km/h (3 Bft)
10.04.2024 03:35 5,1 C 4,4 C 85 % 1024,2 hPa 0,0 l/m 9,7 km/h (2 Bft) S-SW 202 0 min 0,0 UV-I 0 W/m 2,8 C 2,4 C 14,5 km/h (3 Bft)
10.04.2024 03:36 5,1 C 4,4 C 85 % 1024,3 hPa 0,0 l/m 8,0 km/h (2 Bft) SW 225 0 min 0,0 UV-I 0 W/m 2,8 C 3,7 C 12,9 km/h (3 Bft)
10.04.2024 03:37 5,1 C 4,4 C 85 % 1024,3 hPa 0,0 l/m 6,4 km/h (2 Bft) SW 225 0 min 0,0 UV-I 0 W/m 2,8 C 5,1 C 9,7 km/h (2 Bft)
10.04.2024 03:38 5,1 C 4,4 C 85 % 1024,2 hPa 0,0 l/m 6,4 km/h (2 Bft) SW 225 0 min 0,0 UV-I 0 W/m 2,8 C 5,1 C 11,3 km/h (2 Bft)
10.04.2024 03:39 5,1 C 4,4 C 86 % 1024,3 hPa 0,0 l/m 9,7 km/h (2 Bft) SW 225 0 min 0,0 UV-I 0 W/m 3,0 C 2,4 C 12,9 km/h (3 Bft)
10.04.2024 03:40 5,1 C 4,4 C 86 % 1024,3 hPa 0,0 l/m 8,0 km/h (2 Bft) SW 225 0 min 0,0 UV-I 0 W/m 3,0 C 3,7 C 11,3 km/h (2 Bft)
10.04.2024 03:41 5,1 C 4,4 C 86 % 1024,3 hPa 0,0 l/m 8,0 km/h (2 Bft) SW 225 0 min 0,0 UV-I 0 W/m 3,0 C 3,7 C 11,3 km/h (2 Bft)
10.04.2024 03:42 5,1 C 4,4 C 86 % 1024,3 hPa 0,0 l/m 8,0 km/h (2 Bft) S-SW 202 0 min 0,0 UV-I 0 W/m 3,0 C 3,7 C 9,7 km/h (2 Bft)
10.04.2024 03:43 5,1 C 4,4 C 86 % 1024,4 hPa 0,0 l/m 6,4 km/h (2 Bft) S-SW 202 0 min 0,0 UV-I 0 W/m 3,0 C 5,1 C 9,7 km/h (2 Bft)
10.04.2024 03:44 5,1 C 4,4 C 86 % 1024,3 hPa 0,0 l/m 6,4 km/h (2 Bft) SW 225 0 min 0,0 UV-I 0 W/m 3,0 C 5,1 C 8,0 km/h (2 Bft)
10.04.2024 03:45 5,1 C 4,4 C 86 % 1024,3 hPa 0,0 l/m 4,8 km/h (1 Bft) SW 225 0 min 0,0 UV-I 0 W/m 3,0 C 5,1 C 6,4 km/h (2 Bft)
10.04.2024 03:46 5,1 C 4,4 C 86 % 1024,3 hPa 0,0 l/m 3,2 km/h (1 Bft) SW 225 0 min 0,0 UV-I 0 W/m 3,0 C 5,1 C 6,4 km/h (2 Bft)
10.04.2024 03:47 5,1 C 4,4 C 86 % 1024,3 hPa 0,0 l/m 4,8 km/h (1 Bft) SW 225 0 min 0,0 UV-I 0 W/m 3,0 C 5,1 C 8,0 km/h (2 Bft)
10.04.2024 03:48 5,1 C 4,4 C 86 % 1024,4 hPa 0,0 l/m 4,8 km/h (1 Bft) SW 225 0 min 0,0 UV-I 0 W/m 3,0 C 5,1 C 8,0 km/h (2 Bft)
10.04.2024 03:49 5,1 C 4,4 C 86 % 1024,4 hPa 0,0 l/m 4,8 km/h (1 Bft) S-SW 202 0 min 0,0 UV-I 0 W/m 3,0 C 5,1 C 6,4 km/h (2 Bft)
10.04.2024 03:50 5,1 C 4,4 C 86 % 1024,4 hPa 0,0 l/m 4,8 km/h (1 Bft) SW 225 0 min 0,0 UV-I 0 W/m 3,0 C 5,1 C 8,0 km/h (2 Bft)
10.04.2024 03:51 5,1 C 4,4 C 86 % 1024,5 hPa 0,0 l/m 8,0 km/h (2 Bft) SW 225 0 min 0,0 UV-I 0 W/m 3,0 C 3,7 C 11,3 km/h (2 Bft)
10.04.2024 03:52 5,1 C 4,4 C 86 % 1024,5 hPa 0,0 l/m 8,0 km/h (2 Bft) W-SW 247 0 min 0,0 UV-I 0 W/m 3,0 C 3,7 C 12,9 km/h (3 Bft)
10.04.2024 03:53 5,1 C 4,4 C 86 % 1024,5 hPa 0,0 l/m 8,0 km/h (2 Bft) W-SW 247 0 min 0,0 UV-I 0 W/m 3,0 C 3,7 C 12,9 km/h (3 Bft)
10.04.2024 03:54 5,1 C 4,4 C 86 % 1024,4 hPa 0,0 l/m 9,7 km/h (2 Bft) SW 225 0 min 0,0 UV-I 0 W/m 3,0 C 2,4 C 16,1 km/h (3 Bft)
10.04.2024 03:55 5,1 C 4,4 C 86 % 1024,4 hPa 0,0 l/m 8,0 km/h (2 Bft) SW 225 0 min 0,0 UV-I 0 W/m 3,0 C 3,7 C 9,7 km/h (2 Bft)
10.04.2024 03:56 5,1 C 4,4 C 86 % 1024,4 hPa 0,0 l/m 9,7 km/h (2 Bft) S-SW 202 0 min 0,0 UV-I 0 W/m 3,0 C 2,4 C 11,3 km/h (2 Bft)
10.04.2024 03:57 5,1 C 4,4 C 85 % 1024,4 hPa 0,0 l/m 8,0 km/h (2 Bft) S-SW 202 0 min 0,0 UV-I 0 W/m 2,8 C 3,7 C 11,3 km/h (2 Bft)
10.04.2024 03:58 5,2 C 4,4 C 85 % 1024,5 hPa 0,0 l/m 4,8 km/h (1 Bft) S-SW 202 0 min 0,0 UV-I 0 W/m 2,9 C 5,2 C 6,4 km/h (2 Bft)
10.04.2024 03:59 5,1 C 4,4 C 85 % 1024,5 hPa 0,0 l/m 3,2 km/h (1 Bft) S-SW 202 0 min 0,0 UV-I 0 W/m 2,8 C 5,1 C 6,4 km/h (2 Bft)
10.04.2024 04:00 5,2 C 4,4 C 85 % 1024,5 hPa 0,0 l/m 6,4 km/h (2 Bft) S-SW 202 0 min 0,0 UV-I 0 W/m 2,9 C 5,2 C 8,0 km/h (2 Bft)
10.04.2024 04:01 5,2 C 4,4 C 85 % 1024,6 hPa 0,0 l/m 3,2 km/h (1 Bft) S-SW 202 0 min 0,0 UV-I 0 W/m 2,9 C 5,2 C 3,2 km/h (1 Bft)
10.04.2024 04:02 5,2 C 4,4 C 85 % 1024,5 hPa 0,0 l/m 3,2 km/h (1 Bft) S-SW 202 0 min 0,0 UV-I 0 W/m 2,9 C 5,2 C 8,0 km/h (2 Bft)
10.04.2024 04:03 5,1 C 4,4 C 85 % 1024,6 hPa 0,0 l/m 6,4 km/h (2 Bft) S-SW 202 0 min 0,0 UV-I 0 W/m 2,8 C 5,1 C 11,3 km/h (2 Bft)
10.04.2024 04:04 5,1 C 4,4 C 85 % 1024,6 hPa 0,0 l/m 8,0 km/h (2 Bft) SW 225 0 min 0,0 UV-I 0 W/m 2,8 C 3,7 C 11,3 km/h (2 Bft)
10.04.2024 04:05 5,1 C 4,4 C 85 % 1024,6 hPa 0,0 l/m 9,7 km/h (2 Bft) S-SW 202 0 min 0,0 UV-I 0 W/m 2,8 C 2,4 C 12,9 km/h (3 Bft)
10.04.2024 04:06 5,1 C 4,4 C 86 % 1024,6 hPa 0,0 l/m 8,0 km/h (2 Bft) S-SW 202 0 min 0,0 UV-I 0 W/m 3,0 C 3,7 C 9,7 km/h (2 Bft)
10.04.2024 04:07 5,1 C 4,4 C 86 % 1024,6 hPa 0,0 l/m 8,0 km/h (2 Bft) S-SW 202 0 min 0,0 UV-I 0 W/m 3,0 C 3,7 C 9,7 km/h (2 Bft)
10.04.2024 04:08 5,1 C 4,4 C 86 % 1024,6 hPa 0,0 l/m 8,0 km/h (2 Bft) S-SW 202 0 min 0,0 UV-I 0 W/m 3,0 C 3,7 C 9,7 km/h (2 Bft)
10.04.2024 04:09 5,1 C 4,4 C 86 % 1024,6 hPa 0,0 l/m 8,0 km/h (2 Bft) S-SW 202 0 min 0,0 UV-I 0 W/m 3,0 C 3,7 C 9,7 km/h (2 Bft)
10.04.2024 04:10 5,1 C 4,4 C 86 % 1024,7 hPa 0,0 l/m 8,0 km/h (2 Bft) S-SW 202 0 min 0,0 UV-I 0 W/m 3,0 C 3,7 C 9,7 km/h (2 Bft)
10.04.2024 04:11 5,0 C 4,4 C 86 % 1024,7 hPa 0,0 l/m 6,4 km/h (2 Bft) SW 225 0 min 0,0 UV-I 0 W/m 2,9 C 5,0 C 8,0 km/h (2 Bft)
10.04.2024 04:12 5,0 C 4,4 C 86 % 1024,5 hPa 0,0 l/m 6,4 km/h (2 Bft) SW 225 0 min 0,0 UV-I 0 W/m 2,9 C 5,0 C 9,7 km/h (2 Bft)
10.04.2024 04:13 5,0 C 4,4 C 86 % 1024,6 hPa 0,0 l/m 9,7 km/h (2 Bft) SW 225 0 min 0,0 UV-I 0 W/m 2,9 C 2,3 C 12,9 km/h (3 Bft)
10.04.2024 04:14 5,1 C 4,4 C 86 % 1024,6 hPa 0,0 l/m 9,7 km/h (2 Bft) S-SW 202 0 min 0,0 UV-I 0 W/m 3,0 C 2,4 C 11,3 km/h (2 Bft)
10.04.2024 04:15 5,1 C 4,4 C 86 % 1024,6 hPa 0,0 l/m 6,4 km/h (2 Bft) S-SW 202 0 min 0,0 UV-I 0 W/m 3,0 C 5,1 C 9,7 km/h (2 Bft)
10.04.2024 04:16 5,1 C 4,4 C 86 % 1024,6 hPa 0,0 l/m 8,0 km/h (2 Bft) S-SW 202 0 min 0,0 UV-I 0 W/m 3,0 C 3,7 C 11,3 km/h (2 Bft)
10.04.2024 04:17 5,0 C 4,4 C 86 % 1024,6 hPa 0,0 l/m 8,0 km/h (2 Bft) S-SW 202 0 min 0,0 UV-I 0 W/m 2,9 C 3,6 C 11,3 km/h (2 Bft)
10.04.2024 04:18 5,0 C 4,4 C 86 % 1024,6 hPa 0,0 l/m 11,3 km/h (2 Bft) SW 225 0 min 0,0 UV-I 0 W/m 2,9 C 1,2 C 14,5 km/h (3 Bft)
10.04.2024 04:19 5,0 C 4,4 C 86 % 1024,7 hPa 0,0 l/m 8,0 km/h (2 Bft) SW 225 0 min 0,0 UV-I 0 W/m 2,9 C 3,6 C 12,9 km/h (3 Bft)
10.04.2024 04:20 5,1 C 4,4 C 86 % 1024,7 hPa 0,0 l/m 6,4 km/h (2 Bft) SW 225 0 min 0,0 UV-I 0 W/m 3,0 C 5,1 C 8,0 km/h (2 Bft)
10.04.2024 04:21 5,0 C 4,4 C 86 % 1024,7 hPa 0,0 l/m 8,0 km/h (2 Bft) SW 225 0 min 0,0 UV-I 0 W/m 2,9 C 3,6 C 9,7 km/h (2 Bft)
10.04.2024 04:22 5,0 C 4,4 C 86 % 1024,7 hPa 0,0 l/m 4,8 km/h (1 Bft) SW 225 0 min 0,0 UV-I 0 W/m 2,9 C 5,0 C 9,7 km/h (2 Bft)
10.04.2024 04:23 5,1 C 4,4 C 86 % 1024,7 hPa 0,0 l/m 4,8 km/h (1 Bft) W 270 0 min 0,0 UV-I 0 W/m 3,0 C 5,1 C 9,7 km/h (2 Bft)
10.04.2024 04:24 5,1 C 4,4 C 86 % 1024,8 hPa 0,0 l/m 8,0 km/h (2 Bft) W 270 0 min 0,0 UV-I 0 W/m 3,0 C 3,7 C 11,3 km/h (2 Bft)
10.04.2024 04:25 5,1 C 4,4 C 86 % 1024,8 hPa 0,0 l/m 4,8 km/h (1 Bft) SW 225 0 min 0,0 UV-I 0 W/m 3,0 C 5,1 C 9,7 km/h (2 Bft)
10.04.2024 04:26 5,0 C 4,4 C 86 % 1024,8 hPa 0,0 l/m 8,0 km/h (2 Bft) S-SW 202 0 min 0,0 UV-I 0 W/m 2,9 C 3,6 C 11,3 km/h (2 Bft)
10.04.2024 04:27 5,0 C 4,4 C 86 % 1024,8 hPa 0,0 l/m 6,4 km/h (2 Bft) S-SW 202 0 min 0,0 UV-I 0 W/m 2,9 C 5,0 C 8,0 km/h (2 Bft)
10.04.2024 04:28 5,1 C 4,4 C 85 % 1024,8 hPa 0,0 l/m 4,8 km/h (1 Bft) S-SW 202 0 min 0,0 UV-I 0 W/m 2,8 C 5,1 C 6,4 km/h (2 Bft)
10.04.2024 04:29 5,1 C 4,4 C 85 % 1024,8 hPa 0,0 l/m 4,8 km/h (1 Bft) SW 225 0 min 0,0 UV-I 0 W/m 2,8 C 5,1 C 8,0 km/h (2 Bft)
10.04.2024 04:30 5,1 C 4,4 C 85 % 1024,8 hPa 0,0 l/m 8,0 km/h (2 Bft) S-SW 202 0 min 0,0 UV-I 0 W/m 2,8 C 3,7 C 9,7 km/h (2 Bft)
10.04.2024 04:31 5,1 C 4,4 C 85 % 1024,8 hPa 0,0 l/m 4,8 km/h (1 Bft) S-SW 202 0 min 0,0 UV-I 0 W/m 2,8 C 5,1 C 6,4 km/h (2 Bft)
10.04.2024 04:32 5,1 C 4,4 C 85 % 1024,8 hPa 0,0 l/m 4,8 km/h (1 Bft) S-SW 202 0 min 0,0 UV-I 0 W/m 2,8 C 5,1 C 6,4 km/h (2 Bft)
10.04.2024 04:33 5,1 C 4,4 C 86 % 1024,8 hPa 0,0 l/m 4,8 km/h (1 Bft) S-SW 202 0 min 0,0 UV-I 0 W/m 3,0 C 5,1 C 8,0 km/h (2 Bft)
10.04.2024 04:34 5,1 C 4,4 C 86 % 1024,9 hPa 0,0 l/m 6,4 km/h (2 Bft) S-SW 202 0 min 0,0 UV-I 0 W/m 3,0 C 5,1 C 8,0 km/h (2 Bft)
10.04.2024 04:35 5,0 C 4,4 C 86 % 1024,9 hPa 0,0 l/m 6,4 km/h (2 Bft) S-SW 202 0 min 0,0 UV-I 0 W/m 2,9 C 5,0 C 9,7 km/h (2 Bft)
10.04.2024 04:36 5,0 C 4,4 C 86 % 1024,8 hPa 0,0 l/m 8,0 km/h (2 Bft) S-SW 202 0 min 0,0 UV-I 0 W/m 2,9 C 3,6 C 9,7 km/h (2 Bft)
10.04.2024 04:37 5,1 C 4,4 C 86 % 1024,8 hPa 0,0 l/m 6,4 km/h (2 Bft) S-SW 202 0 min 0,0 UV-I 0 W/m 3,0 C 5,1 C 8,0 km/h (2 Bft)
10.04.2024 04:38 5,0 C 4,4 C 86 % 1024,8 hPa 0,0 l/m 8,0 km/h (2 Bft) SW 225 0 min 0,0 UV-I 0 W/m 2,9 C 3,6 C 11,3 km/h (2 Bft)
10.04.2024 04:39 5,0 C 4,4 C 86 % 1024,8 hPa 0,0 l/m 8,0 km/h (2 Bft) S-SW 202 0 min 0,0 UV-I 0 W/m 2,9 C 3,6 C 9,7 km/h (2 Bft)
10.04.2024 04:40 5,0 C 4,4 C 86 % 1024,9 hPa 0,0 l/m 6,4 km/h (2 Bft) SW 225 0 min 0,0 UV-I 0 W/m 2,9 C 5,0 C 9,7 km/h (2 Bft)
10.04.2024 04:41 5,0 C 4,4 C 86 % 1024,9 hPa 0,0 l/m 9,7 km/h (2 Bft) S-SW 202 0 min 0,0 UV-I 0 W/m 2,9 C 2,3 C 11,3 km/h (2 Bft)
10.04.2024 04:42 5,0 C 4,4 C 86 % 1024,9 hPa 0,0 l/m 8,0 km/h (2 Bft) S-SW 202 0 min 0,0 UV-I 0 W/m 2,9 C 3,6 C 11,3 km/h (2 Bft)
10.04.2024 04:43 5,0 C 4,4 C 86 % 1025,0 hPa 0,0 l/m 6,4 km/h (2 Bft) S-SW 202 0 min 0,0 UV-I 0 W/m 2,9 C 5,0 C 8,0 km/h (2 Bft)
10.04.2024 04:44 5,0 C 4,4 C 86 % 1024,9 hPa 0,0 l/m 6,4 km/h (2 Bft) S-SW 202 0 min 0,0 UV-I 0 W/m 2,9 C 5,0 C 8,0 km/h (2 Bft)
10.04.2024 04:45 5,0 C 4,4 C 86 % 1025,0 hPa 0,0 l/m 6,4 km/h (2 Bft) S-SW 202 0 min 0,0 UV-I 0 W/m 2,9 C 5,0 C 8,0 km/h (2 Bft)
10.04.2024 04:46 5,0 C 4,4 C 86 % 1025,1 hPa 0,0 l/m 8,0 km/h (2 Bft) S-SW 202 0 min 0,0 UV-I 0 W/m 2,9 C 3,6 C 9,7 km/h (2 Bft)
10.04.2024 04:47 4,9 C 4,4 C 86 % 1024,9 hPa 0,0 l/m 9,7 km/h (2 Bft) S-SW 202 0 min 0,0 UV-I 0 W/m 2,8 C 2,2 C 11,3 km/h (2 Bft)
10.04.2024 04:48 5,0 C 4,4 C 86 % 1025,0 hPa 0,0 l/m 8,0 km/h (2 Bft) SW 225 0 min 0,0 UV-I 0 W/m 2,9 C 3,6 C 11,3 km/h (2 Bft)
10.04.2024 04:49 4,9 C 4,4 C 86 % 1024,9 hPa 0,0 l/m 8,0 km/h (2 Bft) S-SW 202 0 min 0,0 UV-I 0 W/m 2,8 C 3,5 C 11,3 km/h (2 Bft)
10.04.2024 04:50 5,0 C 4,4 C 86 % 1025,0 hPa 0,0 l/m 8,0 km/h (2 Bft) SW 225 0 min 0,0 UV-I 0 W/m 2,9 C 3,6 C 11,3 km/h (2 Bft)
10.04.2024 04:51 4,9 C 4,4 C 86 % 1024,9 hPa 0,0 l/m 4,8 km/h (1 Bft) SW 225 0 min 0,0 UV-I 0 W/m 2,8 C 4,9 C 6,4 km/h (2 Bft)
10.04.2024 04:52 4,9 C 4,4 C 86 % 1025,1 hPa 0,0 l/m 6,4 km/h (2 Bft) SW 225 0 min 0,0 UV-I 0 W/m 2,8 C 4,9 C 9,7 km/h (2 Bft)
10.04.2024 04:53 4,9 C 4,4 C 86 % 1025,1 hPa 0,0 l/m 8,0 km/h (2 Bft) SW 225 0 min 0,0 UV-I 0 W/m 2,8 C 3,5 C 9,7 km/h (2 Bft)
10.04.2024 04:54 4,9 C 4,4 C 86 % 1025,0 hPa 0,0 l/m 6,4 km/h (2 Bft) SW 225 0 min 0,0 UV-I 0 W/m 2,8 C 4,9 C 8,0 km/h (2 Bft)
10.04.2024 04:55 4,9 C 4,4 C 86 % 1025,0 hPa 0,0 l/m 6,4 km/h (2 Bft) SW 225 0 min 0,0 UV-I 0 W/m 2,8 C 4,9 C 9,7 km/h (2 Bft)
10.04.2024 04:56 5,0 C 4,4 C 86 % 1025,1 hPa 0,0 l/m 6,4 km/h (2 Bft) SW 225 0 min 0,0 UV-I 0 W/m 2,9 C 5,0 C 9,7 km/h (2 Bft)
10.04.2024 04:57 5,0 C 4,4 C 86 % 1025,1 hPa 0,0 l/m 8,0 km/h (2 Bft) SW 225 0 min 0,0 UV-I 0 W/m 2,9 C 3,6 C 9,7 km/h (2 Bft)
10.04.2024 04:58 5,0 C 4,4 C 86 % 1025,1 hPa 0,0 l/m 6,4 km/h (2 Bft) SW 225 0 min 0,0 UV-I 0 W/m 2,9 C 5,0 C 9,7 km/h (2 Bft)
10.04.2024 04:59 5,0 C 4,4 C 86 % 1025,2 hPa 0,0 l/m 4,8 km/h (1 Bft) SW 225 0 min 0,0 UV-I 0 W/m 2,9 C 5,0 C 6,4 km/h (2 Bft)
10.04.2024 05:00 5,0 C 4,4 C 86 % 1025,2 hPa 0,0 l/m 3,2 km/h (1 Bft) SW 225 0 min 0,0 UV-I 0 W/m 2,9 C 5,0 C 6,4 km/h (2 Bft)
10.04.2024 05:01 4,9 C 4,4 C 86 % 1025,2 hPa 0,0 l/m 6,4 km/h (2 Bft) SW 225 0 min 0,0 UV-I 0 W/m 2,8 C 4,9 C 9,7 km/h (2 Bft)
10.04.2024 05:02 5,0 C 4,4 C 86 % 1025,2 hPa 0,0 l/m 8,0 km/h (2 Bft) SW 225 0 min 0,0 UV-I 0 W/m 2,9 C 3,6 C 12,9 km/h (3 Bft)
10.04.2024 05:03 4,9 C 4,4 C 86 % 1025,3 hPa 0,0 l/m 4,8 km/h (1 Bft) SW 225 0 min 0,0 UV-I 0 W/m 2,8 C 4,9 C 8,0 km/h (2 Bft)
10.04.2024 05:04 4,9 C 4,4 C 86 % 1025,3 hPa 0,0 l/m 6,4 km/h (2 Bft) SW 225 0 min 0,0 UV-I 0 W/m 2,8 C 4,9 C 8,0 km/h (2 Bft)
10.04.2024 05:05 5,0 C 4,4 C 86 % 1025,2 hPa 0,0 l/m 8,0 km/h (2 Bft) SW 225 0 min 0,0 UV-I 0 W/m 2,9 C 3,6 C 9,7 km/h (2 Bft)
10.04.2024 05:06 4,9 C 4,4 C 86 % 1025,2 hPa 0,0 l/m 6,4 km/h (2 Bft) SW 225 0 min 0,0 UV-I 0 W/m 2,8 C 4,9 C 8,0 km/h (2 Bft)
10.04.2024 05:07 4,9 C 4,4 C 86 % 1025,3 hPa 0,0 l/m 6,4 km/h (2 Bft) SW 225 0 min 0,0 UV-I 0 W/m 2,8 C 4,9 C 8,0 km/h (2 Bft)
10.04.2024 05:08 4,9 C 4,4 C 86 % 1025,3 hPa 0,0 l/m 8,0 km/h (2 Bft) SW 225 0 min 0,0 UV-I 0 W/m 2,8 C 3,5 C 11,3 km/h (2 Bft)
10.04.2024 05:09 4,9 C 4,4 C 86 % 1025,3 hPa 0,0 l/m 6,4 km/h (2 Bft) W-SW 247 0 min 0,0 UV-I 0 W/m 2,8 C 4,9 C 8,0 km/h (2 Bft)
10.04.2024 05:10 4,9 C 4,4 C 86 % 1025,3 hPa 0,0 l/m 4,8 km/h (1 Bft) W-SW 247 0 min 0,0 UV-I 0 W/m 2,8 C 4,9 C 9,7 km/h (2 Bft)
10.04.2024 05:11 4,9 C 4,4 C 86 % 1025,3 hPa 0,0 l/m 3,2 km/h (1 Bft) W-SW 247 0 min 0,0 UV-I 0 W/m 2,8 C 4,9 C 6,4 km/h (2 Bft)
10.04.2024 05:12 4,9 C 4,4 C 86 % 1025,4 hPa 0,0 l/m 4,8 km/h (1 Bft) W-SW 247 0 min 0,0 UV-I 0 W/m 2,8 C 4,9 C 9,7 km/h (2 Bft)
10.04.2024 05:13 4,9 C 4,4 C 86 % 1025,3 hPa 0,0 l/m 4,8 km/h (1 Bft) SW 225 0 min 0,0 UV-I 0 W/m 2,8 C 4,9 C 6,4 km/h (2 Bft)
10.04.2024 05:14 4,9 C 4,4 C 86 % 1025,4 hPa 0,0 l/m 4,8 km/h (1 Bft) SW 225 0 min 0,0 UV-I 0 W/m 2,8 C 4,9 C 11,3 km/h (2 Bft)
10.04.2024 05:15 4,9 C 4,4 C 86 % 1025,4 hPa 0,0 l/m 9,7 km/h (2 Bft) S-SW 202 0 min 0,0 UV-I 0 W/m 2,8 C 2,2 C 11,3 km/h (2 Bft)
10.04.2024 05:16 4,9 C 4,4 C 86 % 1025,4 hPa 0,0 l/m 4,8 km/h (1 Bft) S-SW 202 0 min 0,0 UV-I 0 W/m 2,8 C 4,9 C 9,7 km/h (2 Bft)
10.04.2024 05:17 4,9 C 4,4 C 86 % 1025,5 hPa 0,0 l/m 3,2 km/h (1 Bft) S-SW 202 0 min 0,0 UV-I 0 W/m 2,8 C 4,9 C 6,4 km/h (2 Bft)
10.04.2024 05:18 4,9 C 4,4 C 86 % 1025,5 hPa 0,0 l/m 4,8 km/h (1 Bft) S-SW 202 0 min 0,0 UV-I 0 W/m 2,8 C 4,9 C 6,4 km/h (2 Bft)
10.04.2024 05:19 4,9 C 4,4 C 86 % 1025,5 hPa 0,0 l/m 6,4 km/h (2 Bft) S-SW 202 0 min 0,0 UV-I 0 W/m 2,8 C 4,9 C 8,0 km/h (2 Bft)
10.04.2024 05:20 4,9 C 4,4 C 86 % 1025,5 hPa 0,0 l/m 3,2 km/h (1 Bft) S-SW 202 0 min 0,0 UV-I 0 W/m 2,8 C 4,9 C 3,2 km/h (1 Bft)
10.04.2024 05:21 4,9 C 4,4 C 86 % 1025,5 hPa 0,0 l/m 4,8 km/h (1 Bft) S-SW 202 0 min 0,0 UV-I 0 W/m 2,8 C 4,9 C 9,7 km/h (2 Bft)
10.04.2024 05:22 4,9 C 4,4 C 86 % 1025,6 hPa 0,0 l/m 12,9 km/h (3 Bft) W-SW 247 0 min 0,0 UV-I 0 W/m 2,8 C 0,1 C 16,1 km/h (3 Bft)
10.04.2024 05:23 4,9 C 4,4 C 86 % 1025,5 hPa 0,0 l/m 9,7 km/h (2 Bft) W-SW 247 0 min 0,0 UV-I 0 W/m 2,8 C 2,2 C 14,5 km/h (3 Bft)
10.04.2024 05:24 4,9 C 4,4 C 86 % 1025,6 hPa 0,0 l/m 9,7 km/h (2 Bft) W-SW 247 0 min 0,0 UV-I 0 W/m 2,8 C 2,2 C 14,5 km/h (3 Bft)
10.04.2024 05:25 4,9 C 4,4 C 86 % 1025,6 hPa 0,0 l/m 9,7 km/h (2 Bft) W-SW 247 0 min 0,0 UV-I 0 W/m 2,8 C 2,2 C 17,7 km/h (3 Bft)
10.04.2024 05:26 4,9 C 4,4 C 86 % 1025,6 hPa 0,0 l/m 8,0 km/h (2 Bft) S-SW 202 0 min 0,0 UV-I 0 W/m 2,8 C 3,5 C 12,9 km/h (3 Bft)
10.04.2024 05:27 5,0 C 4,4 C 86 % 1025,6 hPa 0,0 l/m 8,0 km/h (2 Bft) SW 225 0 min 0,0 UV-I 0 W/m 2,9 C 3,6 C 14,5 km/h (3 Bft)
10.04.2024 05:28 5,0 C 4,4 C 86 % 1025,6 hPa 0,0 l/m 6,4 km/h (2 Bft) SW 225 0 min 0,0 UV-I 0 W/m 2,9 C 5,0 C 11,3 km/h (2 Bft)
10.04.2024 05:29 5,0 C 4,4 C 86 % 1025,7 hPa 0,0 l/m 14,5 km/h (3 Bft) SW 225 0 min 0,0 UV-I 0 W/m 2,9 C -0,7 C 20,9 km/h (4 Bft)
10.04.2024 05:30 5,0 C 4,4 C 86 % 1025,6 hPa 0,0 l/m 14,5 km/h (3 Bft) W-SW 247 0 min 0,0 UV-I 0 W/m 2,9 C -0,7 C 22,5 km/h (4 Bft)
10.04.2024 05:31 5,0 C 4,4 C 85 % 1025,7 hPa 0,0 l/m 8,0 km/h (2 Bft) W-SW 247 0 min 0,0 UV-I 0 W/m 2,7 C 3,6 C 16,1 km/h (3 Bft)
10.04.2024 05:32 5,0 C 4,4 C 85 % 1025,7 hPa 0,0 l/m 6,4 km/h (2 Bft) W-SW 247 0 min 0,0 UV-I 0 W/m 2,7 C 5,0 C 11,3 km/h (2 Bft)
10.04.2024 05:33 5,0 C 4,4 C 85 % 1025,8 hPa 0,0 l/m 4,8 km/h (1 Bft) W-SW 247 0 min 0,0 UV-I 0 W/m 2,7 C 5,0 C 8,0 km/h (2 Bft)
10.04.2024 05:34 5,0 C 4,4 C 85 % 1025,8 hPa 0,0 l/m 8,0 km/h (2 Bft) S-SW 202 0 min 0,0 UV-I 0 W/m 2,7 C 3,6 C 12,9 km/h (3 Bft)
10.04.2024 05:35 5,0 C 4,4 C 85 % 1025,7 hPa 0,0 l/m 6,4 km/h (2 Bft) W-SW 247 0 min 0,0 UV-I 0 W/m 2,7 C 5,0 C 11,3 km/h (2 Bft)
10.04.2024 05:36 5,0 C 4,4 C 85 % 1025,8 hPa 0,0 l/m 8,0 km/h (2 Bft) SW 225 0 min 0,0 UV-I 0 W/m 2,7 C 3,6 C 12,9 km/h (3 Bft)
10.04.2024 05:37 5,0 C 4,4 C 85 % 1025,7 hPa 0,0 l/m 6,4 km/h (2 Bft) SW 225 0 min 0,0 UV-I 0 W/m 2,7 C 5,0 C 11,3 km/h (2 Bft)
10.04.2024 05:38 5,0 C 4,4 C 85 % 1025,8 hPa 0,0 l/m 8,0 km/h (2 Bft) W-SW 247 0 min 0,0 UV-I 0 W/m 2,7 C 3,6 C 11,3 km/h (2 Bft)
10.04.2024 05:39 5,0 C 4,4 C 85 % 1025,7 hPa 0,0 l/m 6,4 km/h (2 Bft) W-SW 247 0 min 0,0 UV-I 0 W/m 2,7 C 5,0 C 9,7 km/h (2 Bft)
10.04.2024 05:40 4,9 C 4,4 C 85 % 1025,8 hPa 0,0 l/m 4,8 km/h (1 Bft) W-SW 247 0 min 0,0 UV-I 0 W/m 2,6 C 4,9 C 11,3 km/h (2 Bft)
10.04.2024 05:41 4,9 C 4,4 C 85 % 1025,8 hPa 0,0 l/m 6,4 km/h (2 Bft) W-SW 247 0 min 0,0 UV-I 0 W/m 2,6 C 4,9 C 12,9 km/h (3 Bft)
10.04.2024 05:42 5,0 C 4,4 C 85 % 1025,8 hPa 0,0 l/m 4,8 km/h (1 Bft) W-SW 247 0 min 0,0 UV-I 0 W/m 2,7 C 5,0 C 9,7 km/h (2 Bft)
10.04.2024 05:43 4,9 C 4,4 C 85 % 1025,8 hPa 0,0 l/m 4,8 km/h (1 Bft) SW 225 0 min 0,0 UV-I 0 W/m 2,6 C 4,9 C 8,0 km/h (2 Bft)
10.04.2024 05:44 4,9 C 4,4 C 85 % 1025,8 hPa 0,0 l/m 6,4 km/h (2 Bft) SW 225 0 min 0,0 UV-I 0 W/m 2,6 C 4,9 C 9,7 km/h (2 Bft)
10.04.2024 05:45 4,9 C 4,4 C 85 % 1025,8 hPa 0,0 l/m 6,4 km/h (2 Bft) W-SW 247 0 min 0,0 UV-I 0 W/m 2,6 C 4,9 C 9,7 km/h (2 Bft)
10.04.2024 05:46 4,9 C 4,4 C 85 % 1025,9 hPa 0,0 l/m 3,2 km/h (1 Bft) W-SW 247 0 min 0,0 UV-I 0 W/m 2,6 C 4,9 C 6,4 km/h (2 Bft)
10.04.2024 05:47 4,9 C 4,4 C 85 % 1025,9 hPa 0,0 l/m 8,0 km/h (2 Bft) W-SW 247 0 min 0,0 UV-I 0 W/m 2,6 C 3,5 C 11,3 km/h (2 Bft)
10.04.2024 05:48 4,9 C 4,4 C 85 % 1025,9 hPa 0,0 l/m 8,0 km/h (2 Bft) W-SW 247 0 min 0,0 UV-I 0 W/m 2,6 C 3,5 C 14,5 km/h (3 Bft)
10.04.2024 05:49 4,9 C 4,4 C 85 % 1025,9 hPa 0,0 l/m 6,4 km/h (2 Bft) SW 225 0 min 0,0 UV-I 0 W/m 2,6 C 4,9 C 12,9 km/h (3 Bft)
10.04.2024 05:50 4,9 C 4,4 C 85 % 1025,9 hPa 0,0 l/m 9,7 km/h (2 Bft) SW 225 0 min 0,0 UV-I 0 W/m 2,6 C 2,2 C 12,9 km/h (3 Bft)
10.04.2024 05:51 4,9 C 4,4 C 85 % 1025,9 hPa 0,0 l/m 6,4 km/h (2 Bft) SW 225 0 min 0,0 UV-I 0 W/m 2,6 C 4,9 C 9,7 km/h (2 Bft)
10.04.2024 05:52 4,9 C 4,4 C 85 % 1025,9 hPa 0,0 l/m 4,8 km/h (1 Bft) SW 225 0 min 0,0 UV-I 0 W/m 2,6 C 4,9 C 6,4 km/h (2 Bft)
10.04.2024 05:53 4,9 C 4,4 C 85 % 1025,9 hPa 0,0 l/m 6,4 km/h (2 Bft) SW 225 0 min 0,0 UV-I 0 W/m 2,6 C 4,9 C 12,9 km/h (3 Bft)
10.04.2024 05:54 4,9 C 4,4 C 85 % 1026,0 hPa 0,0 l/m 4,8 km/h (1 Bft) W-SW 247 0 min 0,0 UV-I 0 W/m 2,6 C 4,9 C 8,0 km/h (2 Bft)
10.04.2024 05:55 4,8 C 4,4 C 85 % 1026,0 hPa 0,0 l/m 4,8 km/h (1 Bft) W-SW 247 0 min 0,0 UV-I 0 W/m 2,5 C 4,8 C 6,4 km/h (2 Bft)
10.04.2024 05:56 4,9 C 4,4 C 85 % 1026,1 hPa 0,0 l/m 6,4 km/h (2 Bft) W-SW 247 0 min 0,0 UV-I 0 W/m 2,6 C 4,9 C 11,3 km/h (2 Bft)
10.04.2024 05:57 4,9 C 4,4 C 85 % 1026,0 hPa 0,0 l/m 6,4 km/h (2 Bft) W-SW 247 0 min 0,0 UV-I 0 W/m 2,6 C 4,9 C 11,3 km/h (2 Bft)
10.04.2024 05:58 4,8 C 4,4 C 85 % 1026,0 hPa 0,0 l/m 9,7 km/h (2 Bft) W 270 0 min 0,0 UV-I 0 W/m 2,5 C 2,1 C 12,9 km/h (3 Bft)
10.04.2024 05:59 4,8 C 4,4 C 86 % 1026,1 hPa 0,0 l/m 9,7 km/h (2 Bft) W-SW 247 0 min 0,0 UV-I 0 W/m 2,7 C 2,1 C 16,1 km/h (3 Bft)
10.04.2024 06:00 4,9 C 4,4 C 85 % 1026,2 hPa 0,0 l/m 9,7 km/h (2 Bft) W-SW 247 0 min 0,0 UV-I 0 W/m 2,6 C 2,2 C 12,9 km/h (3 Bft)
10.04.2024 06:01 4,9 C 4,4 C 86 % 1026,2 hPa 0,0 l/m 4,8 km/h (1 Bft) W 270 0 min 0,0 UV-I 0 W/m 2,8 C 4,9 C 9,7 km/h (2 Bft)
10.04.2024 06:02 4,9 C 4,4 C 86 % 1026,2 hPa 0,0 l/m 6,4 km/h (2 Bft) W-SW 247 0 min 0,0 UV-I 0 W/m 2,8 C 4,9 C 12,9 km/h (3 Bft)
10.04.2024 06:03 4,9 C 4,4 C 86 % 1026,2 hPa 0,0 l/m 11,3 km/h (2 Bft) W-SW 247 0 min 0,0 UV-I 0 W/m 2,8 C 1,1 C 20,9 km/h (4 Bft)
10.04.2024 06:04 4,8 C 4,4 C 85 % 1026,1 hPa 0,0 l/m 9,7 km/h (2 Bft) SW 225 0 min 0,0 UV-I 0 W/m 2,5 C 2,1 C 16,1 km/h (3 Bft)
10.04.2024 06:05 4,9 C 4,4 C 85 % 1026,1 hPa 0,0 l/m 8,0 km/h (2 Bft) W 270 0 min 0,0 UV-I 0 W/m 2,6 C 3,5 C 11,3 km/h (2 Bft)
10.04.2024 06:06 4,8 C 4,4 C 85 % 1026,2 hPa 0,0 l/m 8,0 km/h (2 Bft) W-SW 247 0 min 0,0 UV-I 0 W/m 2,5 C 3,4 C 9,7 km/h (2 Bft)
10.04.2024 06:07 4,8 C 4,4 C 85 % 1026,1 hPa 0,0 l/m 6,4 km/h (2 Bft) SW 225 0 min 0,0 UV-I 0 W/m 2,5 C 4,8 C 11,3 km/h (2 Bft)
10.04.2024 06:08 4,8 C 4,4 C 85 % 1026,2 hPa 0,0 l/m 4,8 km/h (1 Bft) SW 225 0 min 0,0 UV-I 0 W/m 2,5 C 4,8 C 6,4 km/h (2 Bft)
10.04.2024 06:09 4,8 C 4,4 C 85 % 1026,2 hPa 0,0 l/m 6,4 km/h (2 Bft) W-SW 247 0 min 0,0 UV-I 0 W/m 2,5 C 4,8 C 11,3 km/h (2 Bft)
10.04.2024 06:10 4,8 C 4,4 C 85 % 1026,3 hPa 0,0 l/m 9,7 km/h (2 Bft) W-SW 247 0 min 0,0 UV-I 0 W/m 2,5 C 2,1 C 14,5 km/h (3 Bft)
10.04.2024 06:11 4,8 C 4,4 C 85 % 1026,2 hPa 0,0 l/m 6,4 km/h (2 Bft) W-SW 247 0 min 0,0 UV-I 0 W/m 2,5 C 4,8 C 11,3 km/h (2 Bft)
10.04.2024 06:12 4,8 C 4,4 C 85 % 1026,2 hPa 0,0 l/m 4,8 km/h (1 Bft) W-SW 247 0 min 0,0 UV-I 0 W/m 2,5 C 4,8 C 8,0 km/h (2 Bft)
10.04.2024 06:13 4,8 C 4,4 C 85 % 1026,3 hPa 0,0 l/m 6,4 km/h (2 Bft) W-SW 247 0 min 0,0 UV-I 0 W/m 2,5 C 4,8 C 11,3 km/h (2 Bft)
10.04.2024 06:14 4,8 C 4,4 C 85 % 1026,3 hPa 0,0 l/m 6,4 km/h (2 Bft) W-SW 247 0 min 0,0 UV-I 0 W/m 2,5 C 4,8 C 9,7 km/h (2 Bft)
10.04.2024 06:15 4,8 C 4,4 C 85 % 1026,3 hPa 0,0 l/m 11,3 km/h (2 Bft) S-SW 202 0 min 0,0 UV-I 0 W/m 2,5 C 1,0 C 14,5 km/h (3 Bft)
10.04.2024 06:16 4,8 C 4,4 C 85 % 1026,4 hPa 0,0 l/m 11,3 km/h (2 Bft) W-SW 247 0 min 0,0 UV-I 0 W/m 2,5 C 1,0 C 16,1 km/h (3 Bft)
10.04.2024 06:17 4,8 C 4,4 C 85 % 1026,3 hPa 0,0 l/m 11,3 km/h (2 Bft) SW 225 0 min 0,0 UV-I 0 W/m 2,5 C 1,0 C 16,1 km/h (3 Bft)
10.04.2024 06:18 4,8 C 4,4 C 85 % 1026,3 hPa 0,0 l/m 6,4 km/h (2 Bft) W-SW 247 0 min 0,0 UV-I 0 W/m 2,5 C 4,8 C 9,7 km/h (2 Bft)
10.04.2024 06:19 4,8 C 4,4 C 85 % 1026,3 hPa 0,0 l/m 6,4 km/h (2 Bft) W-SW 247 0 min 0,0 UV-I 0 W/m 2,5 C 4,8 C 11,3 km/h (2 Bft)
10.04.2024 06:20 4,8 C 4,4 C 85 % 1026,3 hPa 0,0 l/m 4,8 km/h (1 Bft) W-SW 247 0 min 0,0 UV-I 0 W/m 2,5 C 4,8 C 8,0 km/h (2 Bft)
10.04.2024 06:21 4,8 C 4,4 C 85 % 1026,3 hPa 0,0 l/m 4,8 km/h (1 Bft) W-SW 247 0 min 0,0 UV-I 0 W/m 2,5 C 4,8 C 9,7 km/h (2 Bft)
10.04.2024 06:22 4,8 C 4,4 C 85 % 1026,4 hPa 0,0 l/m 6,4 km/h (2 Bft) W-SW 247 0 min 0,0 UV-I 0 W/m 2,5 C 4,8 C 8,0 km/h (2 Bft)
10.04.2024 06:23 4,8 C 4,4 C 85 % 1026,4 hPa 0,0 l/m 6,4 km/h (2 Bft) W 270 0 min 0,0 UV-I 0 W/m 2,5 C 4,8 C 12,9 km/h (3 Bft)
10.04.2024 06:24 4,8 C 4,4 C 85 % 1026,5 hPa 0,0 l/m 4,8 km/h (1 Bft) W-SW 247 0 min 0,0 UV-I 0 W/m 2,5 C 4,8 C 8,0 km/h (2 Bft)
10.04.2024 06:25 4,8 C 4,4 C 85 % 1026,3 hPa 0,0 l/m 6,4 km/h (2 Bft) W-SW 247 0 min 0,0 UV-I 0 W/m 2,5 C 4,8 C 9,7 km/h (2 Bft)
10.04.2024 06:26 4,8 C 4,4 C 85 % 1026,4 hPa 0,0 l/m 6,4 km/h (2 Bft) W-SW 247 0 min 0,0 UV-I 0 W/m 2,5 C 4,8 C 9,7 km/h (2 Bft)
10.04.2024 06:27 4,8 C 3,9 C 85 % 1026,4 hPa 0,0 l/m 6,4 km/h (2 Bft) W-SW 247 0 min 0,0 UV-I 0 W/m 2,5 C 4,8 C 8,0 km/h (2 Bft)
10.04.2024 06:28 4,8 C 3,9 C 85 % 1026,5 hPa 0,0 l/m 6,4 km/h (2 Bft) W-SW 247 0 min 0,0 UV-I 0 W/m 2,5 C 4,8 C 12,9 km/h (3 Bft)
10.04.2024 06:29 4,7 C 3,9 C 85 % 1026,4 hPa 0,0 l/m 8,0 km/h (2 Bft) W-SW 247 0 min 0,0 UV-I 0 W/m 2,4 C 3,3 C 11,3 km/h (2 Bft)
10.04.2024 06:30 4,7 C 3,9 C 85 % 1026,4 hPa 0,0 l/m 6,4 km/h (2 Bft) W 270 0 min 0,0 UV-I 0 W/m 2,4 C 4,7 C 12,9 km/h (3 Bft)
10.04.2024 06:31 4,7 C 3,9 C 85 % 1026,5 hPa 0,0 l/m 8,0 km/h (2 Bft) W-SW 247 0 min 0,0 UV-I 0 W/m 2,4 C 3,3 C 16,1 km/h (3 Bft)
10.04.2024 06:32 4,7 C 3,3 C 86 % 1026,5 hPa 0,0 l/m 6,4 km/h (2 Bft) W-SW 247 0 min 0,0 UV-I 0 W/m 2,6 C 4,7 C 8,0 km/h (2 Bft)
10.04.2024 06:33 4,6 C 3,3 C 86 % 1026,5 hPa 0,0 l/m 6,4 km/h (2 Bft) SW 225 0 min 0,0 UV-I 0 W/m 2,5 C 4,6 C 8,0 km/h (2 Bft)
10.04.2024 06:34 4,6 C 3,3 C 86 % 1026,5 hPa 0,0 l/m 6,4 km/h (2 Bft) W-SW 247 0 min 0,0 UV-I 0 W/m 2,5 C 4,6 C 8,0 km/h (2 Bft)
10.04.2024 06:35 4,6 C 3,3 C 86 % 1026,6 hPa 0,0 l/m 4,8 km/h (1 Bft) W-SW 247 0 min 0,0 UV-I 0 W/m 2,5 C 4,6 C 8,0 km/h (2 Bft)
10.04.2024 06:36 4,5 C 3,3 C 86 % 1026,7 hPa 0,0 l/m 4,8 km/h (1 Bft) W-SW 247 0 min 0,0 UV-I 0 W/m 2,4 C 4,5 C 8,0 km/h (2 Bft)
10.04.2024 06:37 4,5 C 3,3 C 86 % 1026,7 hPa 0,0 l/m 6,4 km/h (2 Bft) W-SW 247 0 min 0,0 UV-I 0 W/m 2,4 C 4,5 C 9,7 km/h (2 Bft)
10.04.2024 06:38 4,5 C 3,3 C 86 % 1026,8 hPa 0,0 l/m 4,8 km/h (1 Bft) W-SW 247 0 min 0,0 UV-I 0 W/m 2,4 C 4,5 C 8,0 km/h (2 Bft)
10.04.2024 06:39 4,5 C 3,3 C 86 % 1026,8 hPa 0,0 l/m 6,4 km/h (2 Bft) W-SW 247 0 min 0,0 UV-I 0 W/m 2,4 C 4,5 C 8,0 km/h (2 Bft)
10.04.2024 06:40 4,5 C 3,3 C 86 % 1026,8 hPa 0,0 l/m 6,4 km/h (2 Bft) W-SW 247 0 min 0,0 UV-I 0 W/m 2,4 C 4,5 C 8,0 km/h (2 Bft)
10.04.2024 06:41 4,4 C 3,3 C 86 % 1026,8 hPa 0,0 l/m 4,8 km/h (1 Bft) W-SW 247 0 min 0,0 UV-I 0 W/m 2,3 C 4,4 C 8,0 km/h (2 Bft)
10.04.2024 06:42 4,5 C 3,9 C 86 % 1026,8 hPa 0,0 l/m 4,8 km/h (1 Bft) W-SW 247 0 min 0,0 UV-I 0 W/m 2,4 C 4,5 C 6,4 km/h (2 Bft)
10.04.2024 06:43 4,5 C 3,9 C 86 % 1026,9 hPa 0,0 l/m 4,8 km/h (1 Bft) W-SW 247 0 min 0,0 UV-I 0 W/m 2,4 C 4,5 C 8,0 km/h (2 Bft)
10.04.2024 06:44 4,5 C 3,9 C 86 % 1026,9 hPa 0,0 l/m 4,8 km/h (1 Bft) W-SW 247 0 min 0,0 UV-I 0 W/m 2,4 C 4,5 C 9,7 km/h (2 Bft)
10.04.2024 06:45 4,5 C 3,9 C 86 % 1026,9 hPa 0,0 l/m 6,4 km/h (2 Bft) W-SW 247 0 min 0,0 UV-I 0 W/m 2,4 C 4,5 C 9,7 km/h (2 Bft)
10.04.2024 06:46 4,5 C 3,9 C 86 % 1027,0 hPa 0,0 l/m 6,4 km/h (2 Bft) W-SW 247 0 min 0,0 UV-I 0 W/m 2,4 C 4,5 C 11,3 km/h (2 Bft)
10.04.2024 06:47 4,6 C 3,9 C 86 % 1027,0 hPa 0,0 l/m 6,4 km/h (2 Bft) SW 225 0 min 0,0 UV-I 0 W/m 2,5 C 4,6 C 11,3 km/h (2 Bft)
10.04.2024 06:48 4,6 C 3,9 C 87 % 1027,0 hPa 0,0 l/m 4,8 km/h (1 Bft) SW 225 0 min 0,0 UV-I 0 W/m 2,6 C 4,6 C 6,4 km/h (2 Bft)
10.04.2024 06:49 4,6 C 3,9 C 87 % 1027,0 hPa 0,0 l/m 1,6 km/h (1 Bft) SW 225 0 min 0,0 UV-I 0 W/m 2,6 C 4,6 C 4,8 km/h (1 Bft)
10.04.2024 06:50 4,6 C 3,9 C 87 % 1027,0 hPa 0,0 l/m 3,2 km/h (1 Bft) SW 225 0 min 0,0 UV-I 0 W/m 2,6 C 4,6 C 8,0 km/h (2 Bft)
10.04.2024 06:51 4,6 C 3,9 C 86 % 1027,0 hPa 0,0 l/m 6,4 km/h (2 Bft) SW 225 0 min 0,0 UV-I 0 W/m 2,5 C 4,6 C 9,7 km/h (2 Bft)
10.04.2024 06:52 4,6 C 3,9 C 86 % 1027,0 hPa 0,0 l/m 4,8 km/h (1 Bft) SW 225 0 min 0,0 UV-I 0 W/m 2,5 C 4,6 C 6,4 km/h (2 Bft)
10.04.2024 06:53 4,6 C 3,9 C 86 % 1027,0 hPa 0,0 l/m 6,4 km/h (2 Bft) W-SW 247 0 min 0,0 UV-I 0 W/m 2,5 C 4,6 C 11,3 km/h (2 Bft)
10.04.2024 06:54 4,7 C 3,9 C 86 % 1027,0 hPa 0,0 l/m 9,7 km/h (2 Bft) W-SW 247 0 min 0,0 UV-I 0 W/m 2,6 C 2,0 C 12,9 km/h (3 Bft)
10.04.2024 06:55 4,7 C 3,9 C 86 % 1027,1 hPa 0,0 l/m 8,0 km/h (2 Bft) W 270 0 min 0,0 UV-I 0 W/m 2,6 C 3,3 C 11,3 km/h (2 Bft)
10.04.2024 06:56 4,6 C 3,9 C 86 % 1027,2 hPa 0,0 l/m 8,0 km/h (2 Bft) W-SW 247 0 min 0,0 UV-I 0 W/m 2,5 C 3,2 C 12,9 km/h (3 Bft)
10.04.2024 06:57 4,6 C 3,9 C 86 % 1027,0 hPa 0,0 l/m 6,4 km/h (2 Bft) W 270 0 min 0,0 UV-I 0 W/m 2,5 C 4,6 C 12,9 km/h (3 Bft)
10.04.2024 06:58 4,6 C 3,9 C 86 % 1027,1 hPa 0,0 l/m 4,8 km/h (1 Bft) W 270 0 min 0,0 UV-I 0 W/m 2,5 C 4,6 C 9,7 km/h (2 Bft)
10.04.2024 06:59 4,7 C 3,9 C 86 % 1027,1 hPa 0,0 l/m 3,2 km/h (1 Bft) W 270 0 min 0,0 UV-I 0 W/m 2,6 C 4,7 C 4,8 km/h (1 Bft)
10.04.2024 07:00 4,6 C 3,9 C 86 % 1027,2 hPa 0,0 l/m 6,4 km/h (2 Bft) W 270 0 min 0,0 UV-I 0 W/m 2,5 C 4,6 C 11,3 km/h (2 Bft)
10.04.2024 07:01 4,7 C 3,9 C 86 % 1027,1 hPa 0,0 l/m 6,4 km/h (2 Bft) W-SW 247 0 min 0,0 UV-I 5 W/m 2,6 C 4,7 C 9,7 km/h (2 Bft)
10.04.2024 07:02 4,6 C 3,9 C 86 % 1027,2 hPa 0,0 l/m 4,8 km/h (1 Bft) W-SW 247 0 min 0,0 UV-I 5 W/m 2,5 C 4,6 C 8,0 km/h (2 Bft)
10.04.2024 07:03 4,6 C 3,9 C 86 % 1027,2 hPa 0,0 l/m 6,4 km/h (2 Bft) W-SW 247 0 min 0,0 UV-I 6 W/m 2,5 C 4,6 C 9,7 km/h (2 Bft)
10.04.2024 07:04 4,7 C 3,9 C 86 % 1027,2 hPa 0,0 l/m 4,8 km/h (1 Bft) SW 225 0 min 0,0 UV-I 7 W/m 2,6 C 4,7 C 8,0 km/h (2 Bft)
10.04.2024 07:05 4,7 C 3,9 C 86 % 1027,3 hPa 0,0 l/m 8,0 km/h (2 Bft) W-SW 247 0 min 0,0 UV-I 7 W/m 2,6 C 3,3 C 11,3 km/h (2 Bft)
10.04.2024 07:06 4,7 C 3,9 C 86 % 1027,3 hPa 0,0 l/m 8,0 km/h (2 Bft) SW 225 0 min 0,0 UV-I 9 W/m 2,6 C 3,3 C 11,3 km/h (2 Bft)
10.04.2024 07:07 4,7 C 3,9 C 86 % 1027,3 hPa 0,0 l/m 8,0 km/h (2 Bft) SW 225 0 min 0,0 UV-I 9 W/m 2,6 C 3,3 C 12,9 km/h (3 Bft)
10.04.2024 07:08 4,7 C 3,9 C 86 % 1027,4 hPa 0,0 l/m 6,4 km/h (2 Bft) W-SW 247 0 min 0,0 UV-I 9 W/m 2,6 C 4,7 C 11,3 km/h (2 Bft)
10.04.2024 07:09 4,7 C 3,9 C 86 % 1027,3 hPa 0,0 l/m 6,4 km/h (2 Bft) W-SW 247 0 min 0,0 UV-I 10 W/m 2,6 C 4,7 C 11,3 km/h (2 Bft)
10.04.2024 07:10 4,7 C 3,9 C 86 % 1027,4 hPa 0,0 l/m 6,4 km/h (2 Bft) SW 225 0 min 0,0 UV-I 11 W/m 2,6 C 4,7 C 9,7 km/h (2 Bft)
10.04.2024 07:11 4,7 C 4,4 C 86 % 1027,4 hPa 0,0 l/m 3,2 km/h (1 Bft) SW 225 0 min 0,0 UV-I 11 W/m 2,6 C 4,7 C 8,0 km/h (2 Bft)
10.04.2024 07:12 4,7 C 4,4 C 86 % 1027,4 hPa 0,0 l/m 4,8 km/h (1 Bft) SW 225 0 min 0,0 UV-I 9 W/m 2,6 C 4,7 C 6,4 km/h (2 Bft)
10.04.2024 07:13 4,7 C 3,9 C 86 % 1027,4 hPa 0,0 l/m 4,8 km/h (1 Bft) SW 225 0 min 0,0 UV-I 11 W/m 2,6 C 4,7 C 8,0 km/h (2 Bft)
10.04.2024 07:14 4,7 C 3,9 C 86 % 1027,5 hPa 0,0 l/m 4,8 km/h (1 Bft) SW 225 0 min 0,0 UV-I 11 W/m 2,6 C 4,7 C 6,4 km/h (2 Bft)
10.04.2024 07:15 4,7 C 3,9 C 86 % 1027,4 hPa 0,0 l/m 4,8 km/h (1 Bft) SW 225 0 min 0,0 UV-I 11 W/m 2,6 C 4,7 C 6,4 km/h (2 Bft)
10.04.2024 07:16 4,7 C 3,9 C 86 % 1027,4 hPa 0,0 l/m 6,4 km/h (2 Bft) SW 225 0 min 0,0 UV-I 12 W/m 2,6 C 4,7 C 9,7 km/h (2 Bft)
10.04.2024 07:17 4,7 C 3,9 C 86 % 1027,5 hPa 0,0 l/m 8,0 km/h (2 Bft) SW 225 0 min 0,0 UV-I 14 W/m 2,6 C 3,3 C 12,9 km/h (3 Bft)
10.04.2024 07:18 4,7 C 3,9 C 86 % 1027,5 hPa 0,0 l/m 6,4 km/h (2 Bft) W 270 0 min 0,0 UV-I 16 W/m 2,6 C 4,7 C 9,7 km/h (2 Bft)
10.04.2024 07:19 4,7 C 3,9 C 86 % 1027,5 hPa 0,0 l/m 8,0 km/h (2 Bft) SW 225 0 min 0,0 UV-I 14 W/m 2,6 C 3,3 C 12,9 km/h (3 Bft)
10.04.2024 07:20 4,7 C 3,9 C 86 % 1027,5 hPa 0,0 l/m 8,0 km/h (2 Bft) W-SW 247 0 min 0,0 UV-I 14 W/m 2,6 C 3,3 C 12,9 km/h (3 Bft)
10.04.2024 07:21 4,7 C 3,9 C 86 % 1027,6 hPa 0,0 l/m 8,0 km/h (2 Bft) W-SW 247 0 min 0,0 UV-I 14 W/m 2,6 C 3,3 C 11,3 km/h (2 Bft)
10.04.2024 07:22 4,7 C 3,9 C 86 % 1027,6 hPa 0,0 l/m 4,8 km/h (1 Bft) W-SW 247 0 min 0,0 UV-I 14 W/m 2,6 C 4,7 C 8,0 km/h (2 Bft)
10.04.2024 07:23 4,6 C 3,9 C 86 % 1027,6 hPa 0,0 l/m 4,8 km/h (1 Bft) W-SW 247 0 min 0,0 UV-I 12 W/m 2,5 C 4,6 C 8,0 km/h (2 Bft)
10.04.2024 07:24 4,7 C 3,9 C 86 % 1027,6 hPa 0,0 l/m 6,4 km/h (2 Bft) W-SW 247 0 min 0,0 UV-I 12 W/m 2,6 C 4,7 C 8,0 km/h (2 Bft)
10.04.2024 07:25 4,7 C 3,9 C 86 % 1027,5 hPa 0,0 l/m 8,0 km/h (2 Bft) W-SW 247 0 min 0,0 UV-I 16 W/m 2,6 C 3,3 C 12,9 km/h (3 Bft)
10.04.2024 07:26 4,7 C 3,9 C 86 % 1027,5 hPa 0,0 l/m 11,3 km/h (2 Bft) W-SW 247 0 min 0,0 UV-I 18 W/m 2,6 C 0,9 C 17,7 km/h (3 Bft)
10.04.2024 07:27 4,6 C 3,9 C 86 % 1027,6 hPa 0,0 l/m 12,9 km/h (3 Bft) W-SW 247 0 min 0,0 UV-I 18 W/m 2,5 C -0,2 C 16,1 km/h (3 Bft)
10.04.2024 07:28 4,6 C 3,9 C 86 % 1027,7 hPa 0,0 l/m 8,0 km/h (2 Bft) SW 225 0 min 0,0 UV-I 18 W/m 2,5 C 3,2 C 9,7 km/h (2 Bft)
10.04.2024 07:29 4,6 C 4,4 C 86 % 1027,6 hPa 0,0 l/m 3,2 km/h (1 Bft) SW 225 0 min 0,0 UV-I 21 W/m 2,5 C 4,6 C 4,8 km/h (1 Bft)
10.04.2024 07:30 4,6 C 4,4 C 86 % 1027,7 hPa 0,0 l/m 3,2 km/h (1 Bft) SW 225 0 min 0,0 UV-I 23 W/m 2,5 C 4,6 C 6,4 km/h (2 Bft)
10.04.2024 07:31 4,7 C 4,4 C 86 % 1027,7 hPa 0,0 l/m 6,4 km/h (2 Bft) W-SW 247 0 min 0,0 UV-I 19 W/m 2,6 C 4,7 C 9,7 km/h (2 Bft)
10.04.2024 07:32 4,7 C 4,4 C 86 % 1027,7 hPa 0,0 l/m 4,8 km/h (1 Bft) W-SW 247 0 min 0,0 UV-I 22 W/m 2,6 C 4,7 C 6,4 km/h (2 Bft)
10.04.2024 07:33 4,6 C 4,4 C 86 % 1027,8 hPa 0,0 l/m 4,8 km/h (1 Bft) W-SW 247 0 min 0,0 UV-I 21 W/m 2,5 C 4,6 C 6,4 km/h (2 Bft)
10.04.2024 07:34 4,6 C 4,4 C 86 % 1027,7 hPa 0,0 l/m 9,7 km/h (2 Bft) W-SW 247 0 min 0,0 UV-I 19 W/m 2,5 C 1,8 C 14,5 km/h (3 Bft)
10.04.2024 07:35 4,7 C 4,4 C 86 % 1027,6 hPa 0,0 l/m 6,4 km/h (2 Bft) W-SW 247 0 min 0,0 UV-I 21 W/m 2,6 C 4,7 C 14,5 km/h (3 Bft)
10.04.2024 07:36 4,7 C 4,4 C 86 % 1027,7 hPa 0,0 l/m 6,4 km/h (2 Bft) W 270 0 min 0,0 UV-I 25 W/m 2,6 C 4,7 C 14,5 km/h (3 Bft)
10.04.2024 07:37 4,7 C 4,4 C 86 % 1027,8 hPa 0,0 l/m 8,0 km/h (2 Bft) W-SW 247 0 min 0,0 UV-I 25 W/m 2,6 C 3,3 C 12,9 km/h (3 Bft)
10.04.2024 07:38 4,7 C 4,4 C 86 % 1027,9 hPa 0,0 l/m 8,0 km/h (2 Bft) W-SW 247 0 min 0,0 UV-I 30 W/m 2,6 C 3,3 C 14,5 km/h (3 Bft)
10.04.2024 07:39 4,7 C 4,4 C 86 % 1027,9 hPa 0,0 l/m 6,4 km/h (2 Bft) W-SW 247 0 min 0,0 UV-I 30 W/m 2,6 C 4,7 C 9,7 km/h (2 Bft)
10.04.2024 07:40 4,7 C 4,4 C 86 % 1027,9 hPa 0,0 l/m 9,7 km/h (2 Bft) W-SW 247 0 min 0,0 UV-I 32 W/m 2,6 C 2,0 C 16,1 km/h (3 Bft)
10.04.2024 07:41 4,7 C 4,4 C 86 % 1028,0 hPa 0,0 l/m 9,7 km/h (2 Bft) W 270 0 min 0,0 UV-I 32 W/m 2,6 C 2,0 C 14,5 km/h (3 Bft)
10.04.2024 07:42 4,7 C 4,4 C 86 % 1028,0 hPa 0,0 l/m 6,4 km/h (2 Bft) SW 225 0 min 0,0 UV-I 30 W/m 2,6 C 4,7 C 14,5 km/h (3 Bft)
10.04.2024 07:43 4,7 C 4,4 C 86 % 1028,0 hPa 0,0 l/m 8,0 km/h (2 Bft) W-SW 247 0 min 0,0 UV-I 32 W/m 2,6 C 3,3 C 12,9 km/h (3 Bft)
10.04.2024 07:44 4,7 C 4,4 C 86 % 1028,1 hPa 0,0 l/m 3,2 km/h (1 Bft) W-SW 247 0 min 0,0 UV-I 32 W/m 2,6 C 4,7 C 4,8 km/h (1 Bft)
10.04.2024 07:45 4,7 C 4,4 C 86 % 1028,1 hPa 0,0 l/m 8,0 km/h (2 Bft) W-SW 247 0 min 0,0 UV-I 37 W/m 2,6 C 3,3 C 14,5 km/h (3 Bft)
10.04.2024 07:46 4,7 C 4,4 C 86 % 1028,1 hPa 0,0 l/m 4,8 km/h (1 Bft) W-SW 247 0 min 0,0 UV-I 42 W/m 2,6 C 4,7 C 8,0 km/h (2 Bft)
10.04.2024 07:47 4,8 C 4,4 C 86 % 1028,1 hPa 0,0 l/m 3,2 km/h (1 Bft) W-SW 247 0 min 0,0 UV-I 49 W/m 2,7 C 4,8 C 4,8 km/h (1 Bft)
10.04.2024 07:48 4,8 C 4,4 C 86 % 1028,1 hPa 0,0 l/m 4,8 km/h (1 Bft) W-SW 247 0 min 0,0 UV-I 54 W/m 2,7 C 4,8 C 8,0 km/h (2 Bft)
10.04.2024 07:49 4,8 C 5,0 C 86 % 1028,1 hPa 0,0 l/m 14,5 km/h (3 Bft) W-SW 247 0 min 0,0 UV-I 49 W/m 2,7 C -0,9 C 17,7 km/h (3 Bft)
10.04.2024 07:50 4,8 C 5,0 C 86 % 1028,1 hPa 0,0 l/m 8,0 km/h (2 Bft) SW 225 0 min 0,0 UV-I 49 W/m 2,7 C 3,4 C 14,5 km/h (3 Bft)
10.04.2024 07:51 4,8 C 5,0 C 86 % 1028,1 hPa 0,0 l/m 4,8 km/h (1 Bft) W-SW 247 0 min 0,0 UV-I 44 W/m 2,7 C 4,8 C 8,0 km/h (2 Bft)
10.04.2024 07:52 4,8 C 5,0 C 86 % 1028,2 hPa 0,0 l/m 6,4 km/h (2 Bft) W-SW 247 0 min 0,0 UV-I 40 W/m 2,7 C 4,8 C 9,7 km/h (2 Bft)
10.04.2024 07:57 4,9 C 5,0 C 86 % 1028,2 hPa 0,0 l/m 5,9 km/h (2 Bft) W-SW 238 0 min 0,0 UV-I 40 W/m 2,8 C 4,9 C 12,9 km/h (3 Bft)
10.04.2024 08:00 4,9 C 5,0 C 86 % 1028,2 hPa 0,0 l/m 8,9 km/h (2 Bft) W-SW 239 0 min 0,0 UV-I 39 W/m 2,8 C 2,8 C 16,1 km/h (3 Bft)
10.04.2024 08:03 5,0 C 5,0 C 86 % 1028,3 hPa 0,0 l/m 7,0 km/h (2 Bft) W-SW 252 0 min 0,0 UV-I 43 W/m 2,9 C 4,5 C 12,9 km/h (3 Bft)
10.04.2024 08:06 5,0 C 5,0 C 85 % 1028,3 hPa 0,0 l/m 5,0 km/h (1 Bft) W 274 0 min 0,0 UV-I 43 W/m 2,7 C 5,0 C 14,5 km/h (3 Bft)
10.04.2024 08:09 5,0 C 5,0 C 85 % 1028,4 hPa 0,0 l/m 5,4 km/h (1 Bft) SW 234 0 min 0,0 UV-I 36 W/m 2,7 C 5,0 C 12,9 km/h (3 Bft)
10.04.2024 08:12 5,0 C 5,0 C 85 % 1028,4 hPa 0,0 l/m 7,1 km/h (2 Bft) W-SW 253 0 min 0,0 UV-I 60 W/m 2,7 C 4,4 C 14,5 km/h (3 Bft)
10.04.2024 08:15 5,1 C 5,6 C 85 % 1028,4 hPa 0,0 l/m 5,8 km/h (2 Bft) W 262 0 min 0,0 UV-I 66 W/m 2,8 C 5,1 C 9,7 km/h (2 Bft)
10.04.2024 08:18 5,2 C 5,6 C 85 % 1028,5 hPa 0,0 l/m 4,9 km/h (1 Bft) W 261 0 min 0,0 UV-I 72 W/m 2,9 C 5,2 C 12,9 km/h (3 Bft)
10.04.2024 08:21 5,2 C 5,6 C 85 % 1028,4 hPa 0,0 l/m 8,2 km/h (2 Bft) W-SW 249 0 min 0,0 UV-I 73 W/m 2,9 C 3,6 C 16,1 km/h (3 Bft)
10.04.2024 08:24 5,2 C 5,6 C 85 % 1028,4 hPa 0,0 l/m 8,9 km/h (2 Bft) SW 229 0 min 0,0 UV-I 89 W/m 2,9 C 3,1 C 14,5 km/h (3 Bft)
10.04.2024 08:27 5,3 C 6,1 C 85 % 1028,5 hPa 0,0 l/m 6,9 km/h (2 Bft) SW 232 0 min 0,0 UV-I 115 W/m 3,0 C 4,9 C 12,9 km/h (3 Bft)
10.04.2024 08:30 5,4 C 6,1 C 85 % 1028,6 hPa 0,0 l/m 5,0 km/h (1 Bft) W-SW 249 0 min 0,0 UV-I 97 W/m 3,1 C 5,4 C 12,9 km/h (3 Bft)
10.04.2024 08:33 5,4 C 6,1 C 85 % 1028,6 hPa 0,0 l/m 7,9 km/h (2 Bft) SW 217 0 min 0,0 UV-I 85 W/m 3,1 C 4,1 C 17,7 km/h (3 Bft)
10.04.2024 08:36 5,3 C 6,1 C 84 % 1028,8 hPa 0,0 l/m 11,8 km/h (2 Bft) W 268 0 min 0,1 UV-I 114 W/m 2,8 C 1,2 C 20,9 km/h (4 Bft)
10.04.2024 08:39 5,4 C 6,1 C 85 % 1028,8 hPa 0,0 l/m 7,9 km/h (2 Bft) W-SW 240 0 min 0,0 UV-I 104 W/m 3,1 C 4,1 C 14,5 km/h (3 Bft)
10.04.2024 08:42 5,4 C 5,6 C 84 % 1028,9 hPa 0,0 l/m 13,1 km/h (3 Bft) W-SW 256 0 min 0,0 UV-I 79 W/m 2,9 C 0,6 C 17,7 km/h (3 Bft)
10.04.2024 08:45 5,4 C 6,1 C 84 % 1028,9 hPa 0,0 l/m 7,3 km/h (2 Bft) W 263 0 min 0,5 UV-I 111 W/m 2,9 C 4,6 C 12,9 km/h (3 Bft)
10.04.2024 08:48 5,5 C 6,1 C 84 % 1028,9 hPa 0,0 l/m 10,1 km/h (2 Bft) W-SW 257 0 min 0,5 UV-I 127 W/m 3,0 C 2,6 C 16,1 km/h (3 Bft)
10.04.2024 08:51 5,6 C 6,1 C 84 % 1028,9 hPa 0,0 l/m 9,5 km/h (2 Bft) W 260 0 min 0,5 UV-I 140 W/m 3,1 C 3,1 C 17,7 km/h (3 Bft)
10.04.2024 08:54 5,7 C 6,7 C 84 % 1028,9 hPa 0,0 l/m 7,6 km/h (2 Bft) S-SW 202 0 min 0,5 UV-I 131 W/m 3,2 C 4,7 C 16,1 km/h (3 Bft)
10.04.2024 08:57 5,7 C 6,1 C 83 % 1028,8 hPa 0,0 l/m 8,2 km/h (2 Bft) SW 227 0 min 0,5 UV-I 103 W/m 3,0 C 4,2 C 14,5 km/h (3 Bft)
10.04.2024 09:00 5,6 C 6,7 C 83 % 1028,9 hPa 0,0 l/m 11,1 km/h (2 Bft) W 260 0 min 0,6 UV-I 154 W/m 2,9 C 2,0 C 16,1 km/h (3 Bft)
10.04.2024 09:03 5,7 C 6,7 C 83 % 1029,0 hPa 0,0 l/m 10,1 km/h (2 Bft) SW 217 0 min 0,5 UV-I 112 W/m 3,0 C 2,8 C 16,1 km/h (3 Bft)
10.04.2024 09:06 5,6 C 6,1 C 82 % 1028,9 hPa 0,0 l/m 10,0 km/h (2 Bft) SW 230 0 min 0,6 UV-I 103 W/m 2,8 C 2,7 C 17,7 km/h (3 Bft)
10.04.2024 09:09 5,6 C 6,1 C 82 % 1028,9 hPa 0,0 l/m 10,1 km/h (2 Bft) S-SW 205 0 min 0,7 UV-I 129 W/m 2,8 C 2,7 C 19,3 km/h (3 Bft)
10.04.2024 09:12 5,7 C 6,7 C 82 % 1029,1 hPa 0,0 l/m 9,9 km/h (2 Bft) W-SW 255 0 min 0,7 UV-I 161 W/m 2,9 C 2,9 C 14,5 km/h (3 Bft)
10.04.2024 09:15 5,8 C 6,7 C 82 % 1029,1 hPa 0,0 l/m 6,7 km/h (2 Bft) W-SW 246 0 min 0,6 UV-I 145 W/m 3,0 C 5,6 C 12,9 km/h (3 Bft)
10.04.2024 09:18 5,8 C 6,7 C 82 % 1029,0 hPa 0,0 l/m 7,4 km/h (2 Bft) SW 225 0 min 0,6 UV-I 134 W/m 3,0 C 4,9 C 11,3 km/h (2 Bft)
10.04.2024 09:21 5,8 C 6,7 C 82 % 1029,1 hPa 0,0 l/m 10,6 km/h (2 Bft) W-SW 241 0 min 0,6 UV-I 131 W/m 3,0 C 2,6 C 20,9 km/h (4 Bft)
10.04.2024 09:24 5,8 C 6,7 C 81 % 1029,3 hPa 0,0 l/m 11,8 km/h (2 Bft) W-SW 250 0 min 0,7 UV-I 168 W/m 2,8 C 1,8 C 19,3 km/h (3 Bft)
10.04.2024 09:27 5,9 C 7,2 C 82 % 1029,3 hPa 0,0 l/m 8,0 km/h (2 Bft) W-SW 255 0 min 0,7 UV-I 188 W/m 3,1 C 4,5 C 12,9 km/h (3 Bft)
10.04.2024 09:30 6,1 C 7,2 C 81 % 1029,3 hPa 0,0 l/m 9,0 km/h (2 Bft) W 265 0 min 0,7 UV-I 165 W/m 3,1 C 4,0 C 16,1 km/h (3 Bft)
10.04.2024 09:33 6,1 C 7,8 C 81 % 1029,5 hPa 0,0 l/m 8,6 km/h (2 Bft) W 269 0 min 0,7 UV-I 189 W/m 3,1 C 4,3 C 12,9 km/h (3 Bft)
10.04.2024 09:36 6,1 C 7,8 C 81 % 1029,5 hPa 0,0 l/m 8,8 km/h (2 Bft) S-SW 211 0 min 0,7 UV-I 202 W/m 3,1 C 4,1 C 12,9 km/h (3 Bft)
10.04.2024 09:39 6,1 C 7,8 C 81 % 1029,6 hPa 0,0 l/m 5,3 km/h (1 Bft) SW 232 0 min 0,6 UV-I 139 W/m 3,1 C 6,1 C 8,0 km/h (2 Bft)
10.04.2024 09:42 6,1 C 7,8 C 81 % 1029,6 hPa 0,0 l/m 8,3 km/h (2 Bft) W-NW 283 0 min 0,7 UV-I 149 W/m 3,1 C 4,5 C 17,7 km/h (3 Bft)
10.04.2024 09:45 6,2 C 7,8 C 80 % 1029,6 hPa 0,0 l/m 11,5 km/h (2 Bft) W 261 0 min 0,8 UV-I 195 W/m 3,0 C 2,4 C 17,7 km/h (3 Bft)
10.04.2024 09:48 6,2 C 7,8 C 80 % 1029,6 hPa 0,0 l/m 6,3 km/h (2 Bft) SW 236 0 min 0,6 UV-I 170 W/m 3,0 C 6,2 C 12,9 km/h (3 Bft)
10.04.2024 09:51 6,2 C 7,8 C 80 % 1029,7 hPa 0,0 l/m 5,8 km/h (2 Bft) W-SW 237 0 min 0,6 UV-I 156 W/m 3,0 C 6,2 C 9,7 km/h (2 Bft)
10.04.2024 09:54 6,1 C 7,8 C 80 % 1029,7 hPa 0,0 l/m 8,1 km/h (2 Bft) W-SW 251 0 min 0,7 UV-I 154 W/m 2,9 C 4,7 C 12,9 km/h (3 Bft)
10.04.2024 09:57 6,1 C 7,8 C 80 % 1029,7 hPa 0,0 l/m 5,6 km/h (1 Bft) SW 221 0 min 0,7 UV-I 179 W/m 2,9 C 6,1 C 14,5 km/h (3 Bft)
10.04.2024 10:00 6,3 C 8,3 C 81 % 1029,8 hPa 0,0 l/m 5,4 km/h (1 Bft) W-SW 249 0 min 0,9 UV-I 194 W/m 3,3 C 6,3 C 9,7 km/h (2 Bft)
10.04.2024 10:03 6,5 C 8,9 C 80 % 1029,8 hPa 0,0 l/m 6,5 km/h (2 Bft) NW 305 0 min 1,3 UV-I 264 W/m 3,3 C 6,4 C 12,9 km/h (3 Bft)
10.04.2024 10:06 6,9 C 9,4 C 80 % 1030,0 hPa 0,0 l/m 7,4 km/h (2 Bft) W 271 3 min 1,0 UV-I 314 W/m 3,7 C 6,1 C 16,1 km/h (3 Bft)
10.04.2024 10:09 6,9 C 9,4 C 78 % 1030,0 hPa 0,0 l/m 10,8 km/h (2 Bft) W-SW 250 0 min 0,8 UV-I 217 W/m 3,3 C 3,7 C 16,1 km/h (3 Bft)
10.04.2024 10:12 6,8 C 8,9 C 78 % 1030,0 hPa 0,0 l/m 10,5 km/h (2 Bft) W 279 0 min 0,9 UV-I 182 W/m 3,2 C 3,7 C 17,7 km/h (3 Bft)
10.04.2024 10:15 6,7 C 8,3 C 78 % 1030,1 hPa 0,0 l/m 10,0 km/h (2 Bft) W-SW 248 0 min 1,1 UV-I 203 W/m 3,1 C 4,0 C 17,7 km/h (3 Bft)
10.04.2024 10:18 6,7 C 8,3 C 77 % 1030,1 hPa 0,0 l/m 11,9 km/h (2 Bft) W-SW 249 0 min 1,1 UV-I 189 W/m 3,0 C 2,8 C 17,7 km/h (3 Bft)
10.04.2024 10:21 6,8 C 9,4 C 77 % 1030,2 hPa 0,0 l/m 8,1 km/h (2 Bft) SW 222 0 min 1,4 UV-I 202 W/m 3,1 C 5,4 C 14,5 km/h (3 Bft)
10.04.2024 10:24 7,0 C 10,6 C 77 % 1030,1 hPa 0,0 l/m 8,4 km/h (2 Bft) W-SW 248 3 min 1,8 UV-I 349 W/m 3,2 C 5,4 C 14,5 km/h (3 Bft)
10.04.2024 10:27 7,4 C 11,1 C 77 % 1030,2 hPa 0,0 l/m 7,8 km/h (2 Bft) S 184 3 min 1,6 UV-I 578 W/m 3,6 C 6,3 C 16,1 km/h (3 Bft)
10.04.2024 10:30 7,2 C 9,4 C 75 % 1030,1 hPa 0,0 l/m 12,3 km/h (3 Bft) W 259 0 min 1,2 UV-I 190 W/m 3,1 C 3,1 C 17,7 km/h (3 Bft)
10.04.2024 10:33 7,3 C 10,6 C 76 % 1030,2 hPa 0,0 l/m 11,1 km/h (2 Bft) W-SW 246 0 min 1,8 UV-I 225 W/m 3,4 C 3,9 C 16,1 km/h (3 Bft)
10.04.2024 10:36 7,5 C 11,7 C 76 % 1030,3 hPa 0,0 l/m 9,0 km/h (2 Bft) W-SW 242 3 min 2,0 UV-I 492 W/m 3,5 C 5,5 C 14,5 km/h (3 Bft)
10.04.2024 10:39 7,7 C 12,2 C 74 % 1030,3 hPa 0,0 l/m 7,9 km/h (2 Bft) W 264 3 min 2,1 UV-I 625 W/m 3,4 C 6,5 C 11,3 km/h (2 Bft)
10.04.2024 10:42 8,3 C 13,3 C 76 % 1030,2 hPa 0,0 l/m 6,2 km/h (2 Bft) SW 218 3 min 2,1 UV-I 602 W/m 4,3 C 8,3 C 11,3 km/h (2 Bft)
10.04.2024 10:45 8,1 C 12,8 C 73 % 1030,2 hPa 0,0 l/m 8,1 km/h (2 Bft) SW 225 3 min 2,0 UV-I 580 W/m 3,6 C 6,8 C 14,5 km/h (3 Bft)
10.04.2024 10:48 8,4 C 12,8 C 73 % 1030,3 hPa 0,0 l/m 8,4 km/h (2 Bft) W-SW 254 3 min 2,2 UV-I 622 W/m 3,8 C 6,9 C 16,1 km/h (3 Bft)
10.04.2024 10:51 8,3 C 12,2 C 73 % 1030,3 hPa 0,0 l/m 8,9 km/h (2 Bft) W 277 3 min 2,0 UV-I 607 W/m 3,8 C 6,4 C 14,5 km/h (3 Bft)
10.04.2024 10:54 8,1 C 12,8 C 72 % 1030,3 hPa 0,0 l/m 5,9 km/h (2 Bft) S-SW 197 3 min 2,1 UV-I 560 W/m 3,4 C 8,1 C 9,7 km/h (2 Bft)
10.04.2024 10:57 8,1 C 12,8 C 74 % 1030,3 hPa 0,0 l/m 6,0 km/h (2 Bft) S-SW 198 3 min 2,1 UV-I 628 W/m 3,8 C 8,1 C 12,9 km/h (3 Bft)
10.04.2024 11:00 8,4 C 11,7 C 72 % 1030,3 hPa 0,0 l/m 9,8 km/h (2 Bft) SW 229 3 min 2,0 UV-I 543 W/m 3,7 C 6,0 C 19,3 km/h (3 Bft)
10.04.2024 11:03 8,6 C 13,3 C 71 % 1030,3 hPa 0,0 l/m 10,7 km/h (2 Bft) S-SW 205 3 min 2,4 UV-I 547 W/m 3,6 C 5,6 C 19,3 km/h (3 Bft)
10.04.2024 11:06 8,8 C 13,9 C 72 % 1030,4 hPa 0,0 l/m 9,2 km/h (2 Bft) SW 221 3 min 2,3 UV-I 551 W/m 4,0 C 6,8 C 16,1 km/h (3 Bft)
10.04.2024 11:09 8,9 C 13,3 C 71 % 1030,6 hPa 0,0 l/m 8,1 km/h (2 Bft) SW 230 3 min 2,5 UV-I 637 W/m 3,9 C 7,6 C 12,9 km/h (3 Bft)
10.04.2024 11:12 9,4 C 15,6 C 71 % 1030,6 hPa 0,0 l/m 3,8 km/h (1 Bft) NW 313 3 min 2,6 UV-I 698 W/m 4,4 C 9,4 C 9,7 km/h (2 Bft)
10.04.2024 11:15 9,1 C 15,0 C 68 % 1030,7 hPa 0,0 l/m 5,9 km/h (2 Bft) S-SW 209 3 min 1,8 UV-I 561 W/m 3,5 C 9,1 C 11,3 km/h (2 Bft)
10.04.2024 11:18 8,4 C 13,3 C 71 % 1030,6 hPa 0,0 l/m 7,2 km/h (2 Bft) W-SW 243 0 min 1,8 UV-I 260 W/m 3,5 C 7,8 C 14,5 km/h (3 Bft)
10.04.2024 11:21 8,5 C 12,2 C 69 % 1030,7 hPa 0,0 l/m 7,4 km/h (2 Bft) W-NW 289 0 min 1,4 UV-I 258 W/m 3,1 C 7,7 C 12,9 km/h (3 Bft)
10.04.2024 11:24 8,1 C 10,0 C 70 % 1030,7 hPa 0,0 l/m 13,0 km/h (3 Bft) W 267 0 min 1,2 UV-I 132 W/m 3,0 C 3,8 C 17,7 km/h (3 Bft)
10.04.2024 11:27 7,7 C 9,4 C 70 % 1030,8 hPa 0,0 l/m 9,7 km/h (2 Bft) W 277 0 min 1,4 UV-I 138 W/m 2,6 C 5,2 C 14,5 km/h (3 Bft)
10.04.2024 11:30 7,7 C 9,4 C 70 % 1030,7 hPa 0,0 l/m 8,3 km/h (2 Bft) W-SW 252 0 min 1,6 UV-I 141 W/m 2,6 C 6,2 C 14,5 km/h (3 Bft)
10.04.2024 11:33 8,4 C 12,8 C 70 % 1030,7 hPa 0,0 l/m 8,4 km/h (2 Bft) W-SW 252 3 min 2,6 UV-I 673 W/m 3,3 C 6,9 C 16,1 km/h (3 Bft)
10.04.2024 11:36 8,7 C 12,8 C 69 % 1030,8 hPa 0,0 l/m 11,4 km/h (2 Bft) SW 221 3 min 2,2 UV-I 494 W/m 3,3 C 5,3 C 19,3 km/h (3 Bft)
10.04.2024 11:39 8,7 C 13,3 C 68 % 1030,7 hPa 0,0 l/m 10,6 km/h (2 Bft) S-SW 195 3 min 2,5 UV-I 547 W/m 3,1 C 5,8 C 16,1 km/h (3 Bft)
10.04.2024 11:42 8,7 C 13,3 C 69 % 1030,7 hPa 0,0 l/m 10,8 km/h (2 Bft) W 259 0 min 2,3 UV-I 305 W/m 3,3 C 5,7 C 16,1 km/h (3 Bft)
10.04.2024 11:45 8,7 C 13,3 C 68 % 1030,8 hPa 0,0 l/m 9,9 km/h (2 Bft) W 267 0 min 2,3 UV-I 166 W/m 3,1 C 6,2 C 17,7 km/h (3 Bft)
10.04.2024 11:48 9,4 C 15,6 C 68 % 1030,9 hPa 0,0 l/m 11,1 km/h (2 Bft) W 262 3 min 2,9 UV-I 588 W/m 3,8 C 6,3 C 19,3 km/h (3 Bft)
10.04.2024 11:51 9,4 C 16,1 C 68 % 1030,9 hPa 0,0 l/m 7,9 km/h (2 Bft) W-SW 252 3 min 2,9 UV-I 683 W/m 3,8 C 8,3 C 12,9 km/h (3 Bft)
10.04.2024 11:54 9,4 C 16,7 C 64 % 1030,9 hPa 0,0 l/m 11,4 km/h (2 Bft) S-SW 193 3 min 3,0 UV-I 707 W/m 2,9 C 6,1 C 17,7 km/h (3 Bft)
10.04.2024 11:57 9,3 C 16,7 C 67 % 1030,9 hPa 0,0 l/m 13,7 km/h (3 Bft) SW 220 3 min 3,1 UV-I 768 W/m 3,5 C 4,9 C 19,3 km/h (3 Bft)
10.04.2024 12:00 9,4 C 17,2 C 66 % 1030,8 hPa 0,0 l/m 16,3 km/h (3 Bft) S 178 3 min 3,3 UV-I 841 W/m 3,4 C 3,9 C 20,9 km/h (4 Bft)
10.04.2024 12:03 9,6 C 16,7 C 66 % 1031,0 hPa 0,0 l/m 12,6 km/h (3 Bft) S-SW 196 3 min 2,8 UV-I 903 W/m 3,6 C 5,8 C 17,7 km/h (3 Bft)
10.04.2024 12:06 8,9 C 13,3 C 64 % 1030,9 hPa 0,0 l/m 11,3 km/h (2 Bft) W 269 3 min 2,1 UV-I 465 W/m 2,5 C 5,6 C 16,1 km/h (3 Bft)
10.04.2024 12:09 8,8 C 13,3 C 65 % 1031,0 hPa 0,0 l/m 6,4 km/h (2 Bft) SW 224 0 min 1,8 UV-I 319 W/m 2,6 C 8,8 C 11,3 km/h (2 Bft)
10.04.2024 12:12 8,8 C 12,8 C 65 % 1031,0 hPa 0,0 l/m 4,7 km/h (1 Bft) SW 218 0 min 1,7 UV-I 265 W/m 2,6 C 8,8 C 9,7 km/h (2 Bft)
10.04.2024 12:15 8,8 C 11,1 C 66 % 1031,0 hPa 0,0 l/m 8,9 km/h (2 Bft) W-SW 238 0 min 1,6 UV-I 195 W/m 2,8 C 7,0 C 14,5 km/h (3 Bft)
10.04.2024 12:18 8,4 C 10,0 C 65 % 1031,0 hPa 0,0 l/m 7,0 km/h (2 Bft) W-SW 246 0 min 1,5 UV-I 152 W/m 2,2 C 7,9 C 12,9 km/h (3 Bft)
10.04.2024 12:21 8,3 C 10,0 C 66 % 1031,0 hPa 0,0 l/m 6,3 km/h (2 Bft) W-SW 248 0 min 1,5 UV-I 148 W/m 2,3 C 8,3 C 11,3 km/h (2 Bft)
10.04.2024 12:24 8,4 C 10,0 C 66 % 1031,0 hPa 0,0 l/m 7,6 km/h (2 Bft) S-SW 194 0 min 1,7 UV-I 196 W/m 2,4 C 7,5 C 16,1 km/h (3 Bft)
10.04.2024 12:27 9,2 C 14,4 C 65 % 1031,0 hPa 0,0 l/m 11,6 km/h (2 Bft) SW 217 3 min 3,3 UV-I 646 W/m 3,0 C 5,8 C 17,7 km/h (3 Bft)
10.04.2024 12:30 9,7 C 17,8 C 62 % 1031,1 hPa 0,0 l/m 11,6 km/h (2 Bft) S-SO 159 3 min 3,5 UV-I 847 W/m 2,8 C 6,4 C 17,7 km/h (3 Bft)
10.04.2024 12:33 9,9 C 18,9 C 63 % 1030,9 hPa 0,0 l/m 7,9 km/h (2 Bft) S 176 3 min 3,4 UV-I 849 W/m 3,2 C 8,8 C 12,9 km/h (3 Bft)
10.04.2024 12:36 9,9 C 17,8 C 62 % 1031,0 hPa 0,0 l/m 9,1 km/h (2 Bft) SW 234 3 min 2,7 UV-I 712 W/m 3,0 C 8,0 C 12,9 km/h (3 Bft)
10.04.2024 12:39 9,7 C 16,1 C 61 % 1031,1 hPa 0,0 l/m 9,8 km/h (2 Bft) S 188 0 min 2,6 UV-I 377 W/m 2,5 C 7,4 C 12,9 km/h (3 Bft)
10.04.2024 12:42 9,4 C 12,8 C 62 % 1031,0 hPa 0,0 l/m 12,3 km/h (3 Bft) S-SW 211 0 min 1,5 UV-I 233 W/m 2,5 C 5,7 C 16,1 km/h (3 Bft)
10.04.2024 12:45 9,1 C 11,7 C 63 % 1031,0 hPa 0,0 l/m 11,8 km/h (2 Bft) S-SW 205 0 min 1,5 UV-I 255 W/m 2,4 C 5,6 C 17,7 km/h (3 Bft)
10.04.2024 12:48 9,2 C 11,7 C 65 % 1031,0 hPa 0,0 l/m 8,4 km/h (2 Bft) S-SW 200 0 min 1,7 UV-I 304 W/m 3,0 C 7,7 C 16,1 km/h (3 Bft)
10.04.2024 12:51 9,3 C 11,7 C 64 % 1031,0 hPa 0,0 l/m 8,2 km/h (2 Bft) W 273 0 min 1,7 UV-I 251 W/m 2,8 C 8,0 C 17,7 km/h (3 Bft)
10.04.2024 12:54 9,1 C 11,1 C 63 % 1031,0 hPa 0,0 l/m 9,5 km/h (2 Bft) W 262 0 min 1,8 UV-I 248 W/m 2,4 C 6,9 C 12,9 km/h (3 Bft)
10.04.2024 12:57 9,1 C 11,1 C 63 % 1031,0 hPa 0,0 l/m 8,2 km/h (2 Bft) W-SW 252 0 min 1,8 UV-I 244 W/m 2,4 C 7,8 C 14,5 km/h (3 Bft)
10.04.2024 13:00 9,1 C 11,1 C 63 % 1031,0 hPa 0,0 l/m 9,6 km/h (2 Bft) W 260 0 min 1,8 UV-I 230 W/m 2,4 C 6,8 C 14,5 km/h (3 Bft)
10.04.2024 13:03 9,1 C 10,6 C 64 % 1031,0 hPa 0,0 l/m 9,8 km/h (2 Bft) W-SW 241 0 min 1,7 UV-I 194 W/m 2,7 C 6,7 C 14,5 km/h (3 Bft)
10.04.2024 13:06 8,9 C 10,6 C 65 % 1031,0 hPa 0,0 l/m 9,5 km/h (2 Bft) SW 219 0 min 1,6 UV-I 172 W/m 2,7 C 6,7 C 16,1 km/h (3 Bft)
10.04.2024 13:09 8,8 C 10,0 C 65 % 1031,1 hPa 0,0 l/m 9,7 km/h (2 Bft) W-SW 243 0 min 1,6 UV-I 171 W/m 2,6 C 6,5 C 14,5 km/h (3 Bft)
10.04.2024 13:12 8,8 C 10,0 C 65 % 1031,0 hPa 0,0 l/m 10,5 km/h (2 Bft) S-SW 209 0 min 1,6 UV-I 177 W/m 2,6 C 6,0 C 19,3 km/h (3 Bft)
10.04.2024 13:15 8,7 C 10,0 C 64 % 1031,0 hPa 0,0 l/m 9,1 km/h (2 Bft) SW 220 0 min 1,7 UV-I 190 W/m 2,3 C 6,7 C 14,5 km/h (3 Bft)
10.04.2024 13:18 8,8 C 10,6 C 65 % 1031,2 hPa 0,0 l/m 7,2 km/h (2 Bft) W-SW 252 0 min 1,8 UV-I 217 W/m 2,6 C 8,2 C 12,9 km/h (3 Bft)
10.04.2024 13:21 8,8 C 11,1 C 63 % 1031,1 hPa 0,0 l/m 8,3 km/h (2 Bft) W-SW 244 0 min 1,9 UV-I 246 W/m 2,2 C 7,4 C 14,5 km/h (3 Bft)
10.04.2024 13:24 9,0 C 11,7 C 64 % 1031,1 hPa 0,0 l/m 7,9 km/h (2 Bft) W-SW 242 0 min 2,0 UV-I 290 W/m 2,6 C 7,9 C 12,9 km/h (3 Bft)
10.04.2024 13:27 9,2 C 12,2 C 64 % 1031,1 hPa 0,0 l/m 8,0 km/h (2 Bft) S-SW 202 0 min 2,2 UV-I 349 W/m 2,8 C 8,0 C 12,9 km/h (3 Bft)
10.04.2024 13:30 9,2 C 12,8 C 63 % 1031,2 hPa 0,0 l/m 10,8 km/h (2 Bft) SW 216 0 min 2,2 UV-I 336 W/m 2,5 C 6,2 C 14,5 km/h (3 Bft)
10.04.2024 13:33 9,3 C 12,8 C 62 % 1031,1 hPa 0,0 l/m 8,8 km/h (2 Bft) SW 234 0 min 2,1 UV-I 311 W/m 2,4 C 7,6 C 12,9 km/h (3 Bft)
10.04.2024 13:36 9,4 C 12,8 C 61 % 1031,2 hPa 0,0 l/m 7,8 km/h (2 Bft) S-SW 192 0 min 2,2 UV-I 342 W/m 2,3 C 8,4 C 14,5 km/h (3 Bft)
10.04.2024 13:39 9,5 C 13,3 C 60 % 1031,1 hPa 0,0 l/m 7,3 km/h (2 Bft) SW 224 0 min 2,3 UV-I 387 W/m 2,1 C 8,8 C 11,3 km/h (2 Bft)
10.04.2024 13:42 9,7 C 14,4 C 60 % 1031,2 hPa 0,0 l/m 5,9 km/h (2 Bft) SW 215 3 min 2,4 UV-I 415 W/m 2,3 C 9,7 C 11,3 km/h (2 Bft)
10.04.2024 13:45 9,7 C 14,4 C 60 % 1031,1 hPa 0,0 l/m 7,9 km/h (2 Bft) SW 223 0 min 2,3 UV-I 345 W/m 2,3 C 8,6 C 12,9 km/h (3 Bft)
10.04.2024 13:48 9,7 C 13,9 C 61 % 1031,1 hPa 0,0 l/m 7,4 km/h (2 Bft) S-SO 155 0 min 2,2 UV-I 333 W/m 2,5 C 9,0 C 14,5 km/h (3 Bft)
10.04.2024 13:51 9,8 C 13,9 C 61 % 1031,1 hPa 0,0 l/m 8,7 km/h (2 Bft) S 184 0 min 2,8 UV-I 363 W/m 2,6 C 8,2 C 12,9 km/h (3 Bft)
10.04.2024 13:54 10,4 C 18,3 C 61 % 1031,1 hPa 0,0 l/m 9,1 km/h (2 Bft) W 264 3 min 3,5 UV-I 829 W/m 3,2 C 8,6 C 16,1 km/h (3 Bft)
10.04.2024 13:57 10,7 C 17,2 C 60 % 1031,0 hPa 0,0 l/m 10,1 km/h (2 Bft) S-SO 159 3 min 3,3 UV-I 835 W/m 3,3 C 8,3 C 17,7 km/h (3 Bft)
10.04.2024 14:00 10,6 C 17,8 C 58 % 1031,2 hPa 0,0 l/m 11,3 km/h (2 Bft) S-SW 194 3 min 3,2 UV-I 754 W/m 2,7 C 7,6 C 17,7 km/h (3 Bft)
10.04.2024 14:03 10,4 C 16,1 C 60 % 1031,3 hPa 0,0 l/m 7,1 km/h (2 Bft) S 188 0 min 2,5 UV-I 391 W/m 3,0 C 9,9 C 11,3 km/h (2 Bft)
10.04.2024 14:06 10,3 C 16,7 C 58 % 1031,3 hPa 0,0 l/m 7,9 km/h (2 Bft) S 176 3 min 2,8 UV-I 587 W/m 2,4 C 9,2 C 16,1 km/h (3 Bft)
10.04.2024 14:09 10,3 C 15,6 C 58 % 1031,2 hPa 0,0 l/m 8,0 km/h (2 Bft) S 183 3 min 2,4 UV-I 410 W/m 2,4 C 9,2 C 12,9 km/h (3 Bft)
10.04.2024 14:12 10,2 C 15,6 C 60 % 1031,3 hPa 0,0 l/m 9,9 km/h (2 Bft) W-SW 257 3 min 2,6 UV-I 405 W/m 2,8 C 7,9 C 12,9 km/h (3 Bft)
10.04.2024 14:15 10,4 C 15,0 C 58 % 1031,2 hPa 0,0 l/m 10,6 km/h (2 Bft) W-SW 247 0 min 2,8 UV-I 365 W/m 2,5 C 7,7 C 17,7 km/h (3 Bft)
10.04.2024 14:18 10,6 C 16,1 C 62 % 1031,1 hPa 0,0 l/m 5,4 km/h (1 Bft) W-NW 296 3 min 2,9 UV-I 484 W/m 3,6 C 10,6 C 11,3 km/h (2 Bft)
10.04.2024 14:21 11,1 C 21,1 C 59 % 1031,1 hPa 0,0 l/m 9,6 km/h (2 Bft) S 190 3 min 3,9 UV-I 846 W/m 3,4 C 9,0 C 16,1 km/h (3 Bft)
10.04.2024 14:24 11,4 C 22,8 C 58 % 1031,1 hPa 0,0 l/m 9,0 km/h (2 Bft) W-SW 247 3 min 3,5 UV-I 792 W/m 3,4 C 9,7 C 14,5 km/h (3 Bft)
10.04.2024 14:27 11,3 C 22,8 C 58 % 1031,2 hPa 0,0 l/m 9,1 km/h (2 Bft) W 266 3 min 3,7 UV-I 793 W/m 3,3 C 9,5 C 17,7 km/h (3 Bft)
10.04.2024 14:30 11,6 C 23,9 C 57 % 1031,2 hPa 0,0 l/m 8,1 km/h (2 Bft) W 279 3 min 3,9 UV-I 857 W/m 3,4 C 10,5 C 12,9 km/h (3 Bft)
10.04.2024 14:33 11,6 C 24,4 C 55 % 1031,1 hPa 0,0 l/m 8,5 km/h (2 Bft) W 272 3 min 3,9 UV-I 854 W/m 2,9 C 10,2 C 12,9 km/h (3 Bft)
10.04.2024 14:36 11,2 C 20,0 C 57 % 1031,1 hPa 0,0 l/m 9,1 km/h (2 Bft) W 267 3 min 2,7 UV-I 853 W/m 3,0 C 9,4 C 17,7 km/h (3 Bft)
10.04.2024 14:39 11,2 C 18,9 C 57 % 1031,1 hPa 0,0 l/m 9,5 km/h (2 Bft) W 265 3 min 3,0 UV-I 530 W/m 3,0 C 9,2 C 16,1 km/h (3 Bft)
10.04.2024 14:42 11,8 C 22,2 C 59 % 1031,2 hPa 0,0 l/m 10,4 km/h (2 Bft) W-SW 248 3 min 3,7 UV-I 841 W/m 4,1 C 9,4 C 14,5 km/h (3 Bft)
10.04.2024 14:45 11,9 C 20,6 C 57 % 1031,2 hPa 0,0 l/m 8,8 km/h (2 Bft) S-SW 213 3 min 2,8 UV-I 661 W/m 3,7 C 10,4 C 14,5 km/h (3 Bft)
10.04.2024 14:48 11,0 C 15,0 C 56 % 1031,2 hPa 0,0 l/m 8,9 km/h (2 Bft) SW 229 0 min 1,7 UV-I 191 W/m 2,6 C 9,3 C 14,5 km/h (3 Bft)
10.04.2024 14:51 10,5 C 12,8 C 59 % 1031,2 hPa 0,0 l/m 9,0 km/h (2 Bft) W 260 0 min 1,6 UV-I 185 W/m 2,8 C 8,7 C 16,1 km/h (3 Bft)
10.04.2024 14:54 10,4 C 12,2 C 59 % 1031,2 hPa 0,0 l/m 9,7 km/h (2 Bft) W 260 0 min 1,6 UV-I 195 W/m 2,7 C 8,2 C 16,1 km/h (3 Bft)
10.04.2024 14:57 10,4 C 12,2 C 59 % 1031,3 hPa 0,0 l/m 7,8 km/h (2 Bft) W 266 0 min 1,6 UV-I 214 W/m 2,7 C 9,4 C 14,5 km/h (3 Bft)
10.04.2024 15:00 10,3 C 12,2 C 58 % 1031,5 hPa 0,0 l/m 7,0 km/h (2 Bft) SW 215 0 min 1,6 UV-I 220 W/m 2,4 C 9,9 C 11,3 km/h (2 Bft)
10.04.2024 15:03 10,3 C 12,2 C 58 % 1031,3 hPa 0,0 l/m 3,2 km/h (1 Bft) SW 216 0 min 1,7 UV-I 224 W/m 2,4 C 10,3 C 6,4 km/h (2 Bft)
10.04.2024 15:06 10,4 C 12,8 C 57 % 1031,4 hPa 0,0 l/m 5,5 km/h (1 Bft) SW 234 0 min 1,6 UV-I 205 W/m 2,3 C 10,4 C 11,3 km/h (2 Bft)
10.04.2024 15:09 10,4 C 12,2 C 55 % 1031,4 hPa 0,0 l/m 5,9 km/h (2 Bft) SW 236 0 min 1,5 UV-I 193 W/m 1,8 C 10,4 C 14,5 km/h (3 Bft)
10.04.2024 15:12 10,5 C 13,9 C 56 % 1031,4 hPa 0,0 l/m 6,5 km/h (2 Bft) S-SW 202 0 min 1,9 UV-I 309 W/m 2,1 C 10,5 C 12,9 km/h (3 Bft)
10.04.2024 15:15 10,9 C 15,0 C 58 % 1031,4 hPa 0,0 l/m 7,5 km/h (2 Bft) SW 225 3 min 2,1 UV-I 420 W/m 3,0 C 10,1 C 11,3 km/h (2 Bft)
10.04.2024 15:18 10,7 C 13,3 C 56 % 1031,3 hPa 0,0 l/m 5,4 km/h (1 Bft) W-SW 258 0 min 1,5 UV-I 197 W/m 2,3 C 10,7 C 11,3 km/h (2 Bft)
10.04.2024 15:21 10,6 C 13,3 C 57 % 1031,4 hPa 0,0 l/m 7,3 km/h (2 Bft) SW 229 0 min 1,6 UV-I 215 W/m 2,4 C 10,0 C 12,9 km/h (3 Bft)
10.04.2024 15:24 10,4 C 13,3 C 56 % 1031,4 hPa 0,0 l/m 5,4 km/h (1 Bft) SW 225 0 min 1,6 UV-I 211 W/m 2,0 C 10,4 C 9,7 km/h (2 Bft)
10.04.2024 15:27 10,4 C 12,8 C 56 % 1031,3 hPa 0,0 l/m 5,0 km/h (1 Bft) SW 234 0 min 1,4 UV-I 175 W/m 2,0 C 10,4 C 6,4 km/h (2 Bft)
10.04.2024 15:30 10,4 C 12,8 C 57 % 1031,3 hPa 0,0 l/m 3,4 km/h (1 Bft) W-SW 238 0 min 1,3 UV-I 185 W/m 2,3 C 10,4 C 6,4 km/h (2 Bft)
10.04.2024 15:33 10,6 C 13,3 C 57 % 1031,3 hPa 0,0 l/m 3,8 km/h (1 Bft) SW 221 0 min 1,6 UV-I 229 W/m 2,4 C 10,6 C 8,0 km/h (2 Bft)
10.04.2024 15:36 11,4 C 18,3 C 56 % 1031,4 hPa 0,0 l/m 4,7 km/h (1 Bft) W 275 3 min 2,9 UV-I 650 W/m 2,9 C 11,4 C 9,7 km/h (2 Bft)
10.04.2024 15:39 11,6 C 18,9 C 60 % 1031,4 hPa 0,0 l/m 2,0 km/h (1 Bft) W 275 3 min 2,2 UV-I 591 W/m 4,1 C 11,6 C 4,8 km/h (1 Bft)
10.04.2024 15:42 11,3 C 16,7 C 55 % 1031,4 hPa 0,0 l/m 8,2 km/h (2 Bft) S-SW 205 0 min 1,8 UV-I 286 W/m 2,6 C 10,1 C 14,5 km/h (3 Bft)
10.04.2024 15:45 11,2 C 15,0 C 55 % 1031,3 hPa 0,0 l/m 9,5 km/h (2 Bft) S-SO 161 0 min 2,0 UV-I 237 W/m 2,5 C 9,2 C 17,7 km/h (3 Bft)
10.04.2024 15:48 11,4 C 18,9 C 56 % 1031,3 hPa 0,0 l/m 8,2 km/h (2 Bft) S 175 3 min 2,9 UV-I 582 W/m 2,9 C 10,2 C 12,9 km/h (3 Bft)
10.04.2024 15:51 12,0 C 22,2 C 57 % 1031,3 hPa 0,0 l/m 8,3 km/h (2 Bft) S-SW 192 3 min 2,9 UV-I 744 W/m 3,8 C 10,8 C 16,1 km/h (3 Bft)
10.04.2024 15:54 12,2 C 21,7 C 55 % 1031,3 hPa 0,0 l/m 11,2 km/h (2 Bft) S-SW 205 3 min 3,0 UV-I 729 W/m 3,4 C 9,4 C 17,7 km/h (3 Bft)
10.04.2024 15:57 11,7 C 18,3 C 53 % 1031,4 hPa 0,0 l/m 10,1 km/h (2 Bft) SW 222 3 min 2,0 UV-I 726 W/m 2,4 C 9,4 C 14,5 km/h (3 Bft)
10.04.2024 16:00 11,8 C 21,1 C 56 % 1031,3 hPa 0,0 l/m 9,1 km/h (2 Bft) W 268 3 min 2,9 UV-I 712 W/m 3,3 C 10,1 C 16,1 km/h (3 Bft)
10.04.2024 16:03 12,2 C 22,8 C 55 % 1031,3 hPa 0,0 l/m 10,2 km/h (2 Bft) W 259 3 min 2,8 UV-I 674 W/m 3,4 C 9,9 C 14,5 km/h (3 Bft)
10.04.2024 16:06 12,0 C 22,8 C 51 % 1031,3 hPa 0,0 l/m 8,8 km/h (2 Bft) W 281 3 min 2,8 UV-I 651 W/m 2,2 C 10,5 C 14,5 km/h (3 Bft)
10.04.2024 16:09 11,8 C 21,7 C 53 % 1031,3 hPa 0,0 l/m 4,9 km/h (1 Bft) S-SW 192 3 min 2,7 UV-I 644 W/m 2,5 C 11,8 C 12,9 km/h (3 Bft)
10.04.2024 16:12 11,8 C 21,1 C 54 % 1031,3 hPa 0,0 l/m 11,6 km/h (2 Bft) S-SW 196 3 min 2,6 UV-I 613 W/m 2,8 C 8,8 C 17,7 km/h (3 Bft)
10.04.2024 16:15 11,7 C 20,0 C 53 % 1031,4 hPa 0,0 l/m 13,2 km/h (3 Bft) S-SW 198 3 min 2,6 UV-I 610 W/m 2,4 C 7,9 C 17,7 km/h (3 Bft)
10.04.2024 16:18 11,7 C 20,6 C 52 % 1031,2 hPa 0,0 l/m 8,1 km/h (2 Bft) S 182 3 min 2,6 UV-I 596 W/m 2,2 C 10,6 C 12,9 km/h (3 Bft)
10.04.2024 16:21 11,8 C 21,7 C 54 % 1031,3 hPa 0,0 l/m 8,6 km/h (2 Bft) SW 229 3 min 2,5 UV-I 589 W/m 2,8 C 10,4 C 19,3 km/h (3 Bft)
10.04.2024 16:24 12,1 C 21,1 C 54 % 1031,4 hPa 0,0 l/m 11,1 km/h (2 Bft) SW 235 3 min 2,3 UV-I 597 W/m 3,1 C 9,4 C 20,9 km/h (4 Bft)
10.04.2024 16:27 11,7 C 19,4 C 53 % 1031,4 hPa 0,0 l/m 5,5 km/h (1 Bft) SW 224 3 min 2,0 UV-I 598 W/m 2,4 C 11,7 C 12,9 km/h (3 Bft)
10.04.2024 16:30 11,7 C 20,0 C 55 % 1031,5 hPa 0,0 l/m 5,1 km/h (1 Bft) SW 235 3 min 2,3 UV-I 589 W/m 3,0 C 11,7 C 9,7 km/h (2 Bft)
10.04.2024 16:33 11,8 C 20,6 C 55 % 1031,4 hPa 0,0 l/m 8,1 km/h (2 Bft) S-SW 209 3 min 2,3 UV-I 564 W/m 3,1 C 10,7 C 14,5 km/h (3 Bft)
10.04.2024 16:36 11,3 C 17,2 C 55 % 1031,5 hPa 0,0 l/m 8,9 km/h (2 Bft) S 190 0 min 1,7 UV-I 182 W/m 2,6 C 9,7 C 12,9 km/h (3 Bft)
10.04.2024 16:39 11,1 C 16,1 C 55 % 1031,5 hPa 0,0 l/m 7,6 km/h (2 Bft) W-SW 249 3 min 1,7 UV-I 353 W/m 2,4 C 10,3 C 12,9 km/h (3 Bft)
10.04.2024 16:42 11,3 C 18,3 C 55 % 1031,5 hPa 0,0 l/m 8,7 km/h (2 Bft) S-SW 201 3 min 2,2 UV-I 485 W/m 2,6 C 9,8 C 16,1 km/h (3 Bft)
10.04.2024 16:45 11,5 C 18,3 C 55 % 1031,5 hPa 0,0 l/m 10,9 km/h (2 Bft) S-SW 194 3 min 2,2 UV-I 538 W/m 2,8 C 8,8 C 17,7 km/h (3 Bft)
10.04.2024 16:48 11,6 C 18,3 C 55 % 1031,6 hPa 0,0 l/m 9,6 km/h (2 Bft) S-SW 204 3 min 2,2 UV-I 535 W/m 2,9 C 9,6 C 16,1 km/h (3 Bft)
10.04.2024 16:51 11,6 C 18,9 C 55 % 1031,6 hPa 0,0 l/m 12,9 km/h (3 Bft) S-SW 202 3 min 2,2 UV-I 528 W/m 2,9 C 7,9 C 16,1 km/h (3 Bft)
10.04.2024 16:54 11,6 C 18,9 C 55 % 1031,6 hPa 0,0 l/m 10,3 km/h (2 Bft) S-SW 200 3 min 2,1 UV-I 516 W/m 2,9 C 9,2 C 12,9 km/h (3 Bft)
10.04.2024 16:57 11,6 C 18,9 C 55 % 1031,5 hPa 0,0 l/m 8,7 km/h (2 Bft) S-SW 209 3 min 2,0 UV-I 510 W/m 2,9 C 10,1 C 12,9 km/h (3 Bft)
10.04.2024 17:00 11,6 C 18,3 C 56 % 1031,6 hPa 0,0 l/m 7,2 km/h (2 Bft) S-SO 165 3 min 2,0 UV-I 501 W/m 3,1 C 11,1 C 12,9 km/h (3 Bft)
10.04.2024 17:03 11,8 C 16,1 C 54 % 1031,6 hPa 0,0 l/m 11,5 km/h (2 Bft) SW 215 3 min 2,0 UV-I 493 W/m 2,8 C 8,8 C 16,1 km/h (3 Bft)
10.04.2024 17:06 11,7 C 15,6 C 54 % 1031,5 hPa 0,0 l/m 5,7 km/h (1 Bft) S-SW 197 3 min 1,9 UV-I 484 W/m 2,7 C 11,7 C 8,0 km/h (2 Bft)
10.04.2024 17:09 11,7 C 15,0 C 54 % 1031,5 hPa 0,0 l/m 12,0 km/h (2 Bft) SW 217 3 min 1,7 UV-I 421 W/m 2,7 C 8,5 C 19,3 km/h (3 Bft)
10.04.2024 17:12 11,5 C 15,6 C 54 % 1031,5 hPa 0,0 l/m 8,0 km/h (2 Bft) SW 228 3 min 1,7 UV-I 359 W/m 2,5 C 10,4 C 14,5 km/h (3 Bft)
10.04.2024 17:15 11,3 C 13,9 C 53 % 1031,6 hPa 0,0 l/m 6,0 km/h (2 Bft) SW 224 3 min 1,0 UV-I 283 W/m 2,1 C 11,3 C 8,0 km/h (2 Bft)
10.04.2024 17:18 11,2 C 16,1 C 54 % 1031,6 hPa 0,0 l/m 4,8 km/h (1 Bft) SW 223 0 min 1,5 UV-I 220 W/m 2,2 C 11,2 C 8,0 km/h (2 Bft)
10.04.2024 17:21 11,1 C 15,6 C 54 % 1031,6 hPa 0,0 l/m 6,8 km/h (2 Bft) SW 218 0 min 1,2 UV-I 176 W/m 2,2 C 10,8 C 9,7 km/h (2 Bft)
10.04.2024 17:24 11,0 C 13,3 C 55 % 1031,6 hPa 0,0 l/m 7,1 km/h (2 Bft) W-SW 253 0 min 1,0 UV-I 113 W/m 2,3 C 10,5 C 12,9 km/h (3 Bft)
10.04.2024 17:27 10,9 C 12,8 C 56 % 1031,6 hPa 0,0 l/m 4,0 km/h (1 Bft) W-SW 246 0 min 0,9 UV-I 86 W/m 2,5 C 10,9 C 6,4 km/h (2 Bft)
10.04.2024 17:30 11,1 C 15,0 C 56 % 1031,6 hPa 0,0 l/m 3,9 km/h (1 Bft) W-SW 246 0 min 1,4 UV-I 143 W/m 2,7 C 11,1 C 6,4 km/h (2 Bft)
10.04.2024 17:33 11,2 C 15,6 C 56 % 1031,6 hPa 0,0 l/m 5,1 km/h (1 Bft) W-SW 250 0 min 1,0 UV-I 191 W/m 2,8 C 11,2 C 6,4 km/h (2 Bft)
10.04.2024 17:36 11,1 C 14,4 C 56 % 1031,5 hPa 0,0 l/m 4,2 km/h (1 Bft) W-SW 250 0 min 0,9 UV-I 120 W/m 2,7 C 11,1 C 6,4 km/h (2 Bft)
10.04.2024 17:39 10,8 C 13,3 C 57 % 1031,5 hPa 0,0 l/m 2,6 km/h (1 Bft) W-SW 250 0 min 0,9 UV-I 114 W/m 2,6 C 10,8 C 4,8 km/h (1 Bft)
10.04.2024 17:42 11,3 C 19,4 C 58 % 1031,5 hPa 0,0 l/m 1,4 km/h (1 Bft) W-SW 250 3 min 1,4 UV-I 343 W/m 3,3 C 11,3 C 3,2 km/h (1 Bft)
10.04.2024 17:45 11,4 C 20,6 C 56 % 1031,5 hPa 0,0 l/m 2,3 km/h (1 Bft) S 176 3 min 1,4 UV-I 455 W/m 2,9 C 11,4 C 6,4 km/h (2 Bft)
10.04.2024 17:48 11,6 C 21,1 C 55 % 1031,5 hPa 0,0 l/m 4,2 km/h (1 Bft) S 170 3 min 1,2 UV-I 444 W/m 2,9 C 11,6 C 9,7 km/h (2 Bft)
10.04.2024 17:51 11,8 C 22,8 C 54 % 1031,5 hPa 0,0 l/m 3,6 km/h (1 Bft) S 170 3 min 1,3 UV-I 413 W/m 2,8 C 11,8 C 8,0 km/h (2 Bft)
10.04.2024 17:54 11,8 C 22,2 C 53 % 1031,6 hPa 0,0 l/m 4,3 km/h (1 Bft) S 174 3 min 1,3 UV-I 392 W/m 2,5 C 11,8 C 9,7 km/h (2 Bft)
10.04.2024 17:57 11,6 C 21,7 C 54 % 1031,6 hPa 0,0 l/m 5,9 km/h (2 Bft) S-SO 164 3 min 1,1 UV-I 356 W/m 2,6 C 11,6 C 9,7 km/h (2 Bft)
10.04.2024 18:00 11,3 C 20,0 C 52 % 1031,6 hPa 0,0 l/m 5,3 km/h (1 Bft) S-SO 164 3 min 1,1 UV-I 299 W/m 1,8 C 11,3 C 8,0 km/h (2 Bft)
10.04.2024 18:03 11,3 C 20,6 C 53 % 1031,5 hPa 0,0 l/m 4,3 km/h (1 Bft) S-SO 163 3 min 1,1 UV-I 350 W/m 2,1 C 11,3 C 9,7 km/h (2 Bft)
10.04.2024 18:06 11,6 C 22,8 C 53 % 1031,6 hPa 0,0 l/m 2,0 km/h (1 Bft) S-SO 163 3 min 1,1 UV-I 341 W/m 2,4 C 11,6 C 6,4 km/h (2 Bft)
10.04.2024 18:09 11,7 C 22,2 C 51 % 1031,6 hPa 0,0 l/m 3,0 km/h (1 Bft) SW 227 3 min 1,0 UV-I 325 W/m 1,9 C 11,7 C 6,4 km/h (2 Bft)
10.04.2024 18:12 11,6 C 18,3 C 51 % 1031,6 hPa 0,0 l/m 3,6 km/h (1 Bft) W 270 0 min 0,6 UV-I 69 W/m 1,8 C 11,6 C 6,4 km/h (2 Bft)
10.04.2024 18:15 11,2 C 14,4 C 52 % 1031,5 hPa 0,0 l/m 1,6 km/h (1 Bft) W 270 0 min 0,6 UV-I 56 W/m 1,7 C 11,2 C 4,8 km/h (1 Bft)
10.04.2024 18:18 10,9 C 12,2 C 54 % 1031,5 hPa 0,0 l/m 7,4 km/h (2 Bft) S-SW 192 0 min 0,6 UV-I 68 W/m 2,0 C 10,2 C 11,3 km/h (2 Bft)
10.04.2024 18:21 10,8 C 10,6 C 54 % 1031,5 hPa 0,0 l/m 7,3 km/h (2 Bft) S 189 0 min 0,6 UV-I 61 W/m 1,9 C 10,2 C 11,3 km/h (2 Bft)
10.04.2024 18:24 10,7 C 10,6 C 54 % 1031,3 hPa 0,0 l/m 4,7 km/h (1 Bft) S 189 0 min 0,5 UV-I 58 W/m 1,8 C 10,7 C 6,4 km/h (2 Bft)
10.04.2024 18:27 10,6 C 10,0 C 55 % 1031,4 hPa 0,0 l/m 4,6 km/h (1 Bft) S 189 0 min 0,5 UV-I 59 W/m 1,9 C 10,6 C 6,4 km/h (2 Bft)
10.04.2024 18:30 10,5 C 10,0 C 54 % 1031,4 hPa 0,0 l/m 4,0 km/h (1 Bft) S 189 0 min 0,5 UV-I 61 W/m 1,6 C 10,5 C 6,4 km/h (2 Bft)
10.04.2024 18:33 10,4 C 10,0 C 55 % 1031,4 hPa 0,0 l/m 2,7 km/h (1 Bft) S 189 0 min 0,5 UV-I 63 W/m 1,8 C 10,4 C 4,8 km/h (1 Bft)
10.04.2024 18:36 10,5 C 9,4 C 54 % 1031,5 hPa 0,0 l/m 3,5 km/h (1 Bft) S 189 0 min 0,6 UV-I 133 W/m 1,6 C 10,5 C 4,8 km/h (1 Bft)
10.04.2024 18:39 10,8 C 10,0 C 54 % 1031,5 hPa 0,0 l/m 4,1 km/h (1 Bft) S 189 3 min 0,7 UV-I 224 W/m 1,9 C 10,8 C 6,4 km/h (2 Bft)
10.04.2024 18:42 10,9 C 10,0 C 53 % 1031,5 hPa 0,0 l/m 5,6 km/h (1 Bft) S-SO 166 0 min 0,3 UV-I 71 W/m 1,7 C 10,9 C 14,5 km/h (3 Bft)
10.04.2024 18:45 11,0 C 10,0 C 52 % 1031,5 hPa 0,0 l/m 8,6 km/h (2 Bft) S-SO 159 0 min 0,0 UV-I 50 W/m 1,5 C 9,5 C 16,1 km/h (3 Bft)
10.04.2024 18:48 10,9 C 10,0 C 52 % 1031,5 hPa 0,0 l/m 9,7 km/h (2 Bft) SW 218 0 min 0,0 UV-I 45 W/m 1,4 C 8,8 C 16,1 km/h (3 Bft)
10.04.2024 18:51 10,8 C 9,4 C 53 % 1031,6 hPa 0,0 l/m 8,4 km/h (2 Bft) S-SW 196 0 min 0,0 UV-I 43 W/m 1,6 C 9,4 C 11,3 km/h (2 Bft)
10.04.2024 18:54 10,6 C 9,4 C 54 % 1031,5 hPa 0,0 l/m 6,7 km/h (2 Bft) S-SW 200 0 min 0,0 UV-I 40 W/m 1,7 C 10,4 C 9,7 km/h (2 Bft)
10.04.2024 18:57 10,4 C 8,9 C 55 % 1031,6 hPa 0,0 l/m 7,1 km/h (2 Bft) S-SW 193 0 min 0,0 UV-I 38 W/m 1,8 C 9,9 C 11,3 km/h (2 Bft)
10.04.2024 19:00 10,3 C 8,9 C 55 % 1031,8 hPa 0,0 l/m 6,0 km/h (2 Bft) S 173 0 min 0,0 UV-I 39 W/m 1,7 C 10,3 C 9,7 km/h (2 Bft)
10.04.2024 19:03 10,2 C 8,3 C 56 % 1031,7 hPa 0,0 l/m 6,9 km/h (2 Bft) S 181 0 min 0,0 UV-I 38 W/m 1,8 C 9,8 C 11,3 km/h (2 Bft)
10.04.2024 19:06 10,2 C 8,9 C 56 % 1031,7 hPa 0,0 l/m 7,9 km/h (2 Bft) S 190 0 min 0,0 UV-I 37 W/m 1,8 C 9,1 C 12,9 km/h (3 Bft)
10.04.2024 19:09 10,3 C 8,9 C 57 % 1031,6 hPa 0,0 l/m 6,8 km/h (2 Bft) S 181 0 min 0,0 UV-I 33 W/m 2,2 C 10,0 C 11,3 km/h (2 Bft)
10.04.2024 19:12 10,4 C 8,9 C 58 % 1031,7 hPa 0,0 l/m 6,9 km/h (2 Bft) S 178 0 min 0,0 UV-I 35 W/m 2,5 C 10,0 C 14,5 km/h (3 Bft)
10.04.2024 19:15 10,4 C 8,9 C 58 % 1031,7 hPa 0,0 l/m 4,6 km/h (1 Bft) S-SW 192 0 min 0,0 UV-I 33 W/m 2,5 C 10,4 C 8,0 km/h (2 Bft)
10.04.2024 19:18 10,5 C 8,9 C 57 % 1031,7 hPa 0,0 l/m 4,7 km/h (1 Bft) S 179 0 min 0,0 UV-I 30 W/m 2,3 C 10,5 C 8,0 km/h (2 Bft)
10.04.2024 19:21 10,4 C 8,9 C 56 % 1031,8 hPa 0,0 l/m 5,8 km/h (2 Bft) S 175 0 min 0,0 UV-I 30 W/m 2,0 C 10,4 C 11,3 km/h (2 Bft)
10.04.2024 19:24 10,3 C 8,9 C 57 % 1031,8 hPa 0,0 l/m 4,6 km/h (1 Bft) S 175 0 min 0,0 UV-I 30 W/m 2,2 C 10,3 C 9,7 km/h (2 Bft)
10.04.2024 19:27 10,2 C 8,3 C 58 % 1031,9 hPa 0,0 l/m 4,4 km/h (1 Bft) S 175 0 min 0,0 UV-I 30 W/m 2,3 C 10,2 C 9,7 km/h (2 Bft)
10.04.2024 19:30 10,3 C 8,3 C 58 % 1032,0 hPa 0,0 l/m 6,7 km/h (2 Bft) S 177 0 min 0,0 UV-I 30 W/m 2,4 C 10,1 C 12,9 km/h (3 Bft)
10.04.2024 19:33 10,3 C 8,3 C 58 % 1032,0 hPa 0,0 l/m 3,7 km/h (1 Bft) S 177 0 min 0,0 UV-I 31 W/m 2,4 C 10,3 C 6,4 km/h (2 Bft)
10.04.2024 19:36 10,2 C 8,3 C 58 % 1032,1 hPa 0,0 l/m 5,4 km/h (1 Bft) S 179 0 min 0,0 UV-I 31 W/m 2,3 C 10,2 C 9,7 km/h (2 Bft)
10.04.2024 19:39 10,3 C 8,3 C 58 % 1032,1 hPa 0,0 l/m 5,3 km/h (1 Bft) S 176 0 min 0,0 UV-I 31 W/m 2,4 C 10,3 C 11,3 km/h (2 Bft)
10.04.2024 19:42 10,3 C 8,3 C 58 % 1032,1 hPa 0,0 l/m 6,3 km/h (2 Bft) S 186 0 min 0,0 UV-I 26 W/m 2,4 C 10,3 C 11,3 km/h (2 Bft)
10.04.2024 19:45 10,1 C 8,3 C 58 % 1032,0 hPa 0,0 l/m 5,2 km/h (1 Bft) S 185 0 min 0,0 UV-I 22 W/m 2,2 C 10,1 C 9,7 km/h (2 Bft)
10.04.2024 19:48 10,1 C 7,8 C 58 % 1032,1 hPa 0,0 l/m 4,0 km/h (1 Bft) S 186 0 min 0,0 UV-I 19 W/m 2,2 C 10,1 C 6,4 km/h (2 Bft)
10.04.2024 19:52 9,8 C 7,2 C 59 % 1032,0 hPa 0,0 l/m 5,1 km/h (1 Bft) S 186 0 min 0,0 UV-I 17 W/m 2,2 C 9,8 C 8,0 km/h (2 Bft)
10.04.2024 19:54 9,6 C 7,2 C 60 % 1032,0 hPa 0,0 l/m 4,9 km/h (1 Bft) S 186 0 min 0,0 UV-I 15 W/m 2,2 C 9,6 C 8,0 km/h (2 Bft)
10.04.2024 19:59 9,4 C 6,7 C 61 % 1032,1 hPa 0,0 l/m 4,2 km/h (1 Bft) S 186 0 min 0,0 UV-I 13 W/m 2,3 C 9,4 C 6,4 km/h (2 Bft)
10.04.2024 20:00 9,3 C 6,7 C 61 % 1032,1 hPa 0,0 l/m 4,8 km/h (1 Bft) S 180 0 min 0,0 UV-I 12 W/m 2,2 C 9,3 C 8,0 km/h (2 Bft)
10.04.2024 20:01 9,3 C 6,7 C 61 % 1032,2 hPa 0,0 l/m 4,8 km/h (1 Bft) S 180 0 min 0,0 UV-I 12 W/m 2,2 C 9,3 C 6,4 km/h (2 Bft)
10.04.2024 20:02 9,2 C 6,7 C 61 % 1032,2 hPa 0,0 l/m 3,2 km/h (1 Bft) S 180 0 min 0,0 UV-I 11 W/m 2,1 C 9,2 C 6,4 km/h (2 Bft)
10.04.2024 20:03 9,2 C 6,7 C 61 % 1032,2 hPa 0,0 l/m 3,2 km/h (1 Bft) S 180 0 min 0,0 UV-I 11 W/m 2,1 C 9,2 C 4,8 km/h (1 Bft)
10.04.2024 20:04 9,1 C 6,7 C 61 % 1032,2 hPa 0,0 l/m 3,2 km/h (1 Bft) S 180 0 min 0,0 UV-I 11 W/m 2,0 C 9,1 C 4,8 km/h (1 Bft)
10.04.2024 20:05 9,1 C 6,7 C 61 % 1032,2 hPa 0,0 l/m 4,8 km/h (1 Bft) S 180 0 min 0,0 UV-I 9 W/m 2,0 C 9,1 C 6,4 km/h (2 Bft)
10.04.2024 20:06 9,1 C 6,1 C 61 % 1032,2 hPa 0,0 l/m 4,8 km/h (1 Bft) S 180 0 min 0,0 UV-I 9 W/m 2,0 C 9,1 C 6,4 km/h (2 Bft)
10.04.2024 20:07 9,1 C 6,1 C 61 % 1032,2 hPa 0,0 l/m 4,8 km/h (1 Bft) S 180 0 min 0,0 UV-I 9 W/m 2,0 C 9,1 C 6,4 km/h (2 Bft)
10.04.2024 20:08 9,0 C 6,1 C 61 % 1032,2 hPa 0,0 l/m 3,2 km/h (1 Bft) S 180 0 min 0,0 UV-I 8 W/m 1,9 C 9,0 C 4,8 km/h (1 Bft)
10.04.2024 20:09 8,9 C 6,1 C 61 % 1032,2 hPa 0,0 l/m 3,2 km/h (1 Bft) S 180 0 min 0,0 UV-I 7 W/m 1,8 C 8,9 C 4,8 km/h (1 Bft)
10.04.2024 20:10 8,9 C 6,1 C 62 % 1032,2 hPa 0,0 l/m 3,2 km/h (1 Bft) S 180 0 min 0,0 UV-I 7 W/m 2,0 C 8,9 C 6,4 km/h (2 Bft)
10.04.2024 20:11 8,8 C 6,1 C 62 % 1032,3 hPa 0,0 l/m 3,2 km/h (1 Bft) S 180 0 min 0,0 UV-I 5 W/m 1,9 C 8,8 C 4,8 km/h (1 Bft)
10.04.2024 20:12 8,8 C 6,1 C 62 % 1032,3 hPa 0,0 l/m 3,2 km/h (1 Bft) S 180 0 min 0,0 UV-I 5 W/m 1,9 C 8,8 C 4,8 km/h (1 Bft)
10.04.2024 20:13 8,8 C 6,1 C 62 % 1032,3 hPa 0,0 l/m 3,2 km/h (1 Bft) S 180 0 min 0,0 UV-I 5 W/m 1,9 C 8,8 C 4,8 km/h (1 Bft)
10.04.2024 20:14 8,7 C 6,1 C 62 % 1032,4 hPa 0,0 l/m 3,2 km/h (1 Bft) S 180 0 min 0,0 UV-I 5 W/m 1,8 C 8,7 C 4,8 km/h (1 Bft)
10.04.2024 20:15 8,7 C 6,1 C 63 % 1032,4 hPa 0,0 l/m 3,2 km/h (1 Bft) S 180 0 min 0,0 UV-I 5 W/m 2,1 C 8,7 C 4,8 km/h (1 Bft)
10.04.2024 20:16 8,6 C 5,6 C 63 % 1032,3 hPa 0,0 l/m 4,8 km/h (1 Bft) S 180 0 min 0,0 UV-I 0 W/m 2,0 C 8,6 C 6,4 km/h (2 Bft)
10.04.2024 20:17 8,5 C 5,6 C 63 % 1032,5 hPa 0,0 l/m 4,8 km/h (1 Bft) S-SW 202 0 min 0,0 UV-I 0 W/m 1,9 C 8,5 C 8,0 km/h (2 Bft)
10.04.2024 20:18 8,4 C 5,6 C 63 % 1032,4 hPa 0,0 l/m 4,8 km/h (1 Bft) S-SW 202 0 min 0,0 UV-I 0 W/m 1,8 C 8,4 C 6,4 km/h (2 Bft)
10.04.2024 20:19 8,4 C 5,6 C 64 % 1032,5 hPa 0,0 l/m 3,2 km/h (1 Bft) S-SW 202 0 min 0,0 UV-I 0 W/m 2,0 C 8,4 C 4,8 km/h (1 Bft)
10.04.2024 20:20 8,4 C 5,6 C 64 % 1032,5 hPa 0,0 l/m 3,2 km/h (1 Bft) S-SW 202 0 min 0,0 UV-I 0 W/m 2,0 C 8,4 C 4,8 km/h (1 Bft)
10.04.2024 20:21 8,3 C 5,6 C 64 % 1032,5 hPa 0,0 l/m 3,2 km/h (1 Bft) S-SW 202 0 min 0,0 UV-I 0 W/m 1,9 C 8,3 C 4,8 km/h (1 Bft)
10.04.2024 20:22 8,3 C 5,6 C 64 % 1032,6 hPa 0,0 l/m 3,2 km/h (1 Bft) S-SW 202 0 min 0,0 UV-I 0 W/m 1,9 C 8,3 C 4,8 km/h (1 Bft)
10.04.2024 20:23 8,2 C 5,0 C 64 % 1032,5 hPa 0,0 l/m 3,2 km/h (1 Bft) S-SW 202 0 min 0,0 UV-I 0 W/m 1,8 C 8,2 C 4,8 km/h (1 Bft)
10.04.2024 20:24 8,2 C 5,0 C 65 % 1032,6 hPa 0,0 l/m 3,2 km/h (1 Bft) S-SW 202 0 min 0,0 UV-I 0 W/m 2,0 C 8,2 C 4,8 km/h (1 Bft)
10.04.2024 20:25 8,1 C 5,0 C 65 % 1032,6 hPa 0,0 l/m 1,6 km/h (1 Bft) S-SW 202 0 min 0,0 UV-I 0 W/m 1,9 C 8,1 C 3,2 km/h (1 Bft)
10.04.2024 20:26 7,9 C 5,0 C 65 % 1032,7 hPa 0,0 l/m 3,2 km/h (1 Bft) S-SW 202 0 min 0,0 UV-I 0 W/m 1,7 C 7,9 C 4,8 km/h (1 Bft)
10.04.2024 20:27 7,9 C 5,0 C 66 % 1032,6 hPa 0,0 l/m 4,8 km/h (1 Bft) S-SW 202 0 min 0,0 UV-I 0 W/m 1,9 C 7,9 C 4,8 km/h (1 Bft)
10.04.2024 20:28 7,8 C 5,0 C 66 % 1032,5 hPa 0,0 l/m 3,2 km/h (1 Bft) S-SW 202 0 min 0,0 UV-I 0 W/m 1,9 C 7,8 C 4,8 km/h (1 Bft)
10.04.2024 20:29 7,8 C 5,0 C 66 % 1032,6 hPa 0,0 l/m 3,2 km/h (1 Bft) S-SW 202 0 min 0,0 UV-I 0 W/m 1,9 C 7,8 C 4,8 km/h (1 Bft)
10.04.2024 20:30 7,7 C 5,0 C 66 % 1032,6 hPa 0,0 l/m 3,2 km/h (1 Bft) S-SW 202 0 min 0,0 UV-I 0 W/m 1,8 C 7,7 C 4,8 km/h (1 Bft)
10.04.2024 20:31 7,6 C 4,4 C 66 % 1032,6 hPa 0,0 l/m 3,2 km/h (1 Bft) S-SW 202 0 min 0,0 UV-I 0 W/m 1,7 C 7,6 C 4,8 km/h (1 Bft)
10.04.2024 20:32 7,6 C 5,0 C 67 % 1032,7 hPa 0,0 l/m 3,2 km/h (1 Bft) S-SW 202 0 min 0,0 UV-I 0 W/m 1,9 C 7,6 C 4,8 km/h (1 Bft)
10.04.2024 20:33 7,5 C 5,0 C 67 % 1032,6 hPa 0,0 l/m 3,2 km/h (1 Bft) S-SW 202 0 min 0,0 UV-I 0 W/m 1,8 C 7,5 C 4,8 km/h (1 Bft)
10.04.2024 20:34 7,4 C 4,4 C 67 % 1032,7 hPa 0,0 l/m 3,2 km/h (1 Bft) S-SW 202 0 min 0,0 UV-I 0 W/m 1,7 C 7,4 C 4,8 km/h (1 Bft)
10.04.2024 20:35 7,3 C 4,4 C 67 % 1032,6 hPa 0,0 l/m 3,2 km/h (1 Bft) S-SW 202 0 min 0,0 UV-I 0 W/m 1,6 C 7,3 C 4,8 km/h (1 Bft)
10.04.2024 20:36 7,3 C 4,4 C 67 % 1032,7 hPa 0,0 l/m 3,2 km/h (1 Bft) S-SW 202 0 min 0,0 UV-I 0 W/m 1,6 C 7,3 C 4,8 km/h (1 Bft)
10.04.2024 20:37 7,3 C 4,4 C 67 % 1032,6 hPa 0,0 l/m 3,2 km/h (1 Bft) S-SW 202 0 min 0,0 UV-I 0 W/m 1,6 C 7,3 C 4,8 km/h (1 Bft)
10.04.2024 20:38 7,4 C 4,4 C 67 % 1032,8 hPa 0,0 l/m 1,6 km/h (1 Bft) S-SW 202 0 min 0,0 UV-I 0 W/m 1,7 C 7,4 C 3,2 km/h (1 Bft)
10.04.2024 20:39 7,4 C 4,4 C 67 % 1032,6 hPa 0,0 l/m 1,6 km/h (1 Bft) S-SW 202 0 min 0,0 UV-I 0 W/m 1,7 C 7,4 C 3,2 km/h (1 Bft)
10.04.2024 20:40 7,3 C 3,9 C 68 % 1032,7 hPa 0,0 l/m 1,6 km/h (1 Bft) S-SW 202 0 min 0,0 UV-I 0 W/m 1,8 C 7,3 C 3,2 km/h (1 Bft)
10.04.2024 20:41 7,3 C 3,9 C 68 % 1032,7 hPa 0,0 l/m 1,6 km/h (1 Bft) S-SW 202 0 min 0,0 UV-I 0 W/m 1,8 C 7,3 C 3,2 km/h (1 Bft)
10.04.2024 20:42 7,3 C 3,9 C 67 % 1032,7 hPa 0,0 l/m 0,0 km/h (0 Bft) S-SW 202 0 min 0,0 UV-I 0 W/m 1,6 C 7,3 C 1,6 km/h (1 Bft)
10.04.2024 20:43 7,2 C 3,9 C 68 % 1032,6 hPa 0,0 l/m 0,0 km/h (0 Bft) S-SW 202 0 min 0,0 UV-I 0 W/m 1,7 C 7,2 C 1,6 km/h (1 Bft)
10.04.2024 20:44 7,2 C 3,9 C 68 % 1032,6 hPa 0,0 l/m 1,6 km/h (1 Bft) S-SW 202 0 min 0,0 UV-I 0 W/m 1,7 C 7,2 C 1,6 km/h (1 Bft)
10.04.2024 20:48 6,9 C 3,3 C 69 % 1032,9 hPa 0,0 l/m 1,7 km/h (1 Bft) S-SW 201 0 min 0,0 UV-I 0 W/m 1,6 C 6,9 C 3,2 km/h (1 Bft)
10.04.2024 20:51 6,7 C 3,3 C 70 % 1032,9 hPa 0,0 l/m 1,6 km/h (1 Bft) S-SW 201 0 min 0,0 UV-I 0 W/m 1,6 C 6,7 C 3,2 km/h (1 Bft)
10.04.2024 20:54 6,6 C 2,8 C 70 % 1032,9 hPa 0,0 l/m 1,6 km/h (1 Bft) S-SW 201 0 min 0,0 UV-I 0 W/m 1,5 C 6,6 C 3,2 km/h (1 Bft)
10.04.2024 20:57 6,2 C 2,8 C 72 % 1032,9 hPa 0,0 l/m 0,0 km/h (0 Bft) S-SW 201 0 min 0,0 UV-I 0 W/m 1,5 C 6,2 C 0,0 km/h (0 Bft)
10.04.2024 21:00 6,0 C 2,8 C 73 % 1032,9 hPa 0,0 l/m 0,1 km/h (0 Bft) S-SW 201 0 min 0,0 UV-I 0 W/m 1,5 C 6,0 C 1,6 km/h (1 Bft)
10.04.2024 21:03 6,1 C 2,8 C 73 % 1032,9 hPa 0,0 l/m 1,1 km/h (1 Bft) S-SW 201 0 min 0,0 UV-I 0 W/m 1,6 C 6,1 C 1,6 km/h (1 Bft)
10.04.2024 21:06 6,1 C 2,8 C 73 % 1032,9 hPa 0,0 l/m 1,5 km/h (1 Bft) S-SW 201 0 min 0,0 UV-I 0 W/m 1,6 C 6,1 C 3,2 km/h (1 Bft)
10.04.2024 21:09 6,1 C 2,2 C 72 % 1032,9 hPa 0,0 l/m 1,5 km/h (1 Bft) S-SW 201 0 min 0,0 UV-I 0 W/m 1,4 C 6,1 C 3,2 km/h (1 Bft)
10.04.2024 21:12 6,2 C 2,2 C 72 % 1033,0 hPa 0,0 l/m 1,6 km/h (1 Bft) S-SW 201 0 min 0,0 UV-I 0 W/m 1,5 C 6,2 C 3,2 km/h (1 Bft)
10.04.2024 21:15 6,1 C 2,8 C 72 % 1033,1 hPa 0,0 l/m 1,5 km/h (1 Bft) S-SW 201 0 min 0,0 UV-I 0 W/m 1,4 C 6,1 C 3,2 km/h (1 Bft)
10.04.2024 21:18 6,2 C 2,2 C 72 % 1033,3 hPa 0,0 l/m 0,2 km/h (0 Bft) S-SW 201 0 min 0,0 UV-I 0 W/m 1,5 C 6,2 C 1,6 km/h (1 Bft)
10.04.2024 21:21 6,1 C 2,2 C 73 % 1033,4 hPa 0,0 l/m 0,3 km/h (0 Bft) S-SW 201 0 min 0,0 UV-I 0 W/m 1,6 C 6,1 C 1,6 km/h (1 Bft)
10.04.2024 21:24 6,0 C 2,2 C 72 % 1033,1 hPa 0,0 l/m 0,0 km/h (0 Bft) S-SW 201 0 min 0,0 UV-I 0 W/m 1,3 C 6,0 C 0,0 km/h (0 Bft)
10.04.2024 21:27 5,7 C 2,2 C 73 % 1033,1 hPa 0,0 l/m 1,0 km/h (0 Bft) S-SW 201 0 min 0,0 UV-I 0 W/m 1,2 C 5,7 C 3,2 km/h (1 Bft)
10.04.2024 21:30 5,1 C 2,2 C 74 % 1033,0 hPa 0,0 l/m 1,7 km/h (1 Bft) S-SW 201 0 min 0,0 UV-I 0 W/m 0,9 C 5,1 C 3,2 km/h (1 Bft)
10.04.2024 21:33 4,8 C 2,2 C 76 % 1033,0 hPa 0,0 l/m 2,5 km/h (1 Bft) S-SW 200 0 min 0,0 UV-I 0 W/m 0,9 C 4,8 C 4,8 km/h (1 Bft)
10.04.2024 21:36 4,9 C 2,2 C 77 % 1033,1 hPa 0,0 l/m 4,2 km/h (1 Bft) S-SW 193 0 min 0,0 UV-I 0 W/m 1,2 C 4,9 C 8,0 km/h (2 Bft)
10.04.2024 21:39 5,2 C 2,2 C 75 % 1032,9 hPa 0,0 l/m 3,6 km/h (1 Bft) S-SW 193 0 min 0,0 UV-I 0 W/m 1,1 C 5,2 C 4,8 km/h (1 Bft)
10.04.2024 21:42 5,1 C 2,2 C 75 % 1032,7 hPa 0,0 l/m 2,9 km/h (1 Bft) S-SW 193 0 min 0,0 UV-I 0 W/m 1,0 C 5,1 C 4,8 km/h (1 Bft)
10.04.2024 21:45 5,0 C 2,2 C 76 % 1032,6 hPa 0,0 l/m 1,0 km/h (0 Bft) S-SW 193 0 min 0,0 UV-I 0 W/m 1,1 C 5,0 C 3,2 km/h (1 Bft)
10.04.2024 21:48 5,1 C 2,2 C 76 % 1032,7 hPa 0,0 l/m 1,2 km/h (1 Bft) S-SW 192 0 min 0,0 UV-I 0 W/m 1,2 C 5,1 C 3,2 km/h (1 Bft)
10.04.2024 21:51 5,1 C 2,2 C 76 % 1032,7 hPa 0,0 l/m 1,9 km/h (1 Bft) S-SW 192 0 min 0,0 UV-I 0 W/m 1,2 C 5,1 C 3,2 km/h (1 Bft)
10.04.2024 21:54 4,9 C 2,2 C 76 % 1032,7 hPa 0,0 l/m 0,4 km/h (0 Bft) S-SW 192 0 min 0,0 UV-I 0 W/m 1,0 C 4,9 C 3,2 km/h (1 Bft)
10.04.2024 21:57 4,9 C 2,2 C 76 % 1032,7 hPa 0,0 l/m 0,2 km/h (0 Bft) S-SW 193 0 min 0,0 UV-I 0 W/m 1,0 C 4,9 C 1,6 km/h (1 Bft)
10.04.2024 22:00 4,8 C 2,2 C 76 % 1032,6 hPa 0,0 l/m 0,2 km/h (0 Bft) S-SW 193 0 min 0,0 UV-I 0 W/m 0,9 C 4,8 C 1,6 km/h (1 Bft)
10.04.2024 22:03 4,4 C 1,7 C 77 % 1032,6 hPa 0,0 l/m 0,4 km/h (0 Bft) S-SW 192 0 min 0,0 UV-I 0 W/m 0,7 C 4,4 C 3,2 km/h (1 Bft)
10.04.2024 22:06 3,9 C 1,1 C 77 % 1032,5 hPa 0,0 l/m 2,6 km/h (1 Bft) S-SW 192 0 min 0,0 UV-I 0 W/m 0,2 C 3,9 C 4,8 km/h (1 Bft)
10.04.2024 22:09 3,7 C 1,1 C 79 % 1032,6 hPa 0,0 l/m 2,0 km/h (1 Bft) S-SW 192 0 min 0,0 UV-I 0 W/m 0,4 C 3,7 C 4,8 km/h (1 Bft)
10.04.2024 22:12 3,8 C 1,7 C 80 % 1032,6 hPa 0,0 l/m 1,5 km/h (1 Bft) S-SW 192 0 min 0,0 UV-I 0 W/m 0,7 C 3,8 C 4,8 km/h (1 Bft)
10.04.2024 22:15 4,1 C 1,7 C 79 % 1032,8 hPa 0,0 l/m 0,7 km/h (0 Bft) S-SW 192 0 min 0,0 UV-I 0 W/m 0,8 C 4,1 C 3,2 km/h (1 Bft)
10.04.2024 22:18 4,2 C 1,7 C 78 % 1033,0 hPa 0,0 l/m 1,1 km/h (1 Bft) S-SW 192 0 min 0,0 UV-I 0 W/m 0,7 C 4,2 C 3,2 km/h (1 Bft)
10.04.2024 22:21 4,3 C 1,7 C 78 % 1032,9 hPa 0,0 l/m 0,6 km/h (0 Bft) S-SW 192 0 min 0,0 UV-I 0 W/m 0,8 C 4,3 C 3,2 km/h (1 Bft)
10.04.2024 22:24 4,2 C 1,1 C 78 % 1033,1 hPa 0,0 l/m 1,1 km/h (1 Bft) S-SW 192 0 min 0,0 UV-I 0 W/m 0,7 C 4,2 C 3,2 km/h (1 Bft)
10.04.2024 22:27 4,3 C 1,1 C 78 % 1033,1 hPa 0,0 l/m 0,1 km/h (0 Bft) S-SW 192 0 min 0,0 UV-I 0 W/m 0,8 C 4,3 C 1,6 km/h (1 Bft)
10.04.2024 22:30 4,4 C 1,1 C 77 % 1033,1 hPa 0,0 l/m 0,9 km/h (0 Bft) S-SW 192 0 min 0,0 UV-I 0 W/m 0,7 C 4,4 C 3,2 km/h (1 Bft)
10.04.2024 22:33 4,7 C 1,7 C 77 % 1033,2 hPa 0,0 l/m 0,2 km/h (0 Bft) S-SW 192 0 min 0,0 UV-I 0 W/m 1,0 C 4,7 C 1,6 km/h (1 Bft)
10.04.2024 22:36 4,8 C 1,7 C 76 % 1033,2 hPa 0,0 l/m 0,0 km/h (0 Bft) S-SW 192 0 min 0,0 UV-I 0 W/m 0,9 C 4,8 C 0,0 km/h (0 Bft)
10.04.2024 22:39 4,8 C 1,7 C 76 % 1033,2 hPa 0,0 l/m 0,5 km/h (0 Bft) S-SW 192 0 min 0,0 UV-I 0 W/m 0,9 C 4,8 C 1,6 km/h (1 Bft)
10.04.2024 22:42 4,4 C 1,7 C 76 % 1033,2 hPa 0,0 l/m 1,0 km/h (0 Bft) S-SW 192 0 min 0,0 UV-I 0 W/m 0,5 C 4,4 C 3,2 km/h (1 Bft)
10.04.2024 22:45 3,9 C 1,1 C 77 % 1033,1 hPa 0,0 l/m 2,2 km/h (1 Bft) S-SW 192 0 min 0,0 UV-I 0 W/m 0,2 C 3,9 C 3,2 km/h (1 Bft)
10.04.2024 22:48 3,5 C 0,6 C 78 % 1033,3 hPa 0,0 l/m 0,0 km/h (0 Bft) S-SW 192 0 min 0,0 UV-I 0 W/m 0,0 C 3,5 C 0,0 km/h (0 Bft)
10.04.2024 22:51 3,4 C 1,1 C 79 % 1033,3 hPa 0,0 l/m 0,9 km/h (0 Bft) S-SW 192 0 min 0,0 UV-I 0 W/m 0,1 C 3,4 C 1,6 km/h (1 Bft)
10.04.2024 22:54 3,3 C 1,1 C 80 % 1033,2 hPa 0,0 l/m 0,5 km/h (0 Bft) S-SW 192 0 min 0,0 UV-I 0 W/m 0,2 C 3,3 C 1,6 km/h (1 Bft)
10.04.2024 22:57 3,1 C 0,6 C 80 % 1033,3 hPa 0,0 l/m 0,5 km/h (0 Bft) S-SW 192 0 min 0,0 UV-I 0 W/m -0,0 C 3,1 C 1,6 km/h (1 Bft)
10.04.2024 23:00 3,2 C 0,6 C 81 % 1033,3 hPa 0,0 l/m 0,0 km/h (0 Bft) S-SW 192 0 min 0,0 UV-I 0 W/m 0,3 C 3,2 C 0,0 km/h (0 Bft)
10.04.2024 23:03 3,2 C 0,6 C 81 % 1033,3 hPa 0,0 l/m 0,0 km/h (0 Bft) S-SW 192 0 min 0,0 UV-I 0 W/m 0,3 C 3,2 C 0,0 km/h (0 Bft)
10.04.2024 23:06 2,9 C 0,6 C 81 % 1033,3 hPa 0,0 l/m 0,0 km/h (0 Bft) S-SW 192 0 min 0,0 UV-I 0 W/m -0,0 C 2,9 C 0,0 km/h (0 Bft)
10.04.2024 23:09 2,8 C 0,0 C 81 % 1033,5 hPa 0,0 l/m 0,0 km/h (0 Bft) S-SW 192 0 min 0,0 UV-I 0 W/m -0,1 C 2,8 C 0,0 km/h (0 Bft)
10.04.2024 23:12 2,8 C 0,0 C 82 % 1033,3 hPa 0,0 l/m 0,0 km/h (0 Bft) S-SW 192 0 min 0,0 UV-I 0 W/m 0,0 C 2,8 C 0,0 km/h (0 Bft)
10.04.2024 23:15 2,7 C 0,6 C 82 % 1033,5 hPa 0,0 l/m 0,0 km/h (0 Bft) S-SW 192 0 min 0,0 UV-I 0 W/m -0,1 C 2,7 C 0,0 km/h (0 Bft)
10.04.2024 23:18 2,7 C 0,0 C 82 % 1033,5 hPa 0,0 l/m 0,3 km/h (0 Bft) S-SW 192 0 min 0,0 UV-I 0 W/m -0,1 C 2,7 C 1,6 km/h (1 Bft)
10.04.2024 23:21 2,6 C 0,0 C 83 % 1033,5 hPa 0,0 l/m 0,0 km/h (0 Bft) S-SW 192 0 min 0,0 UV-I 0 W/m 0,0 C 2,6 C 0,0 km/h (0 Bft)
10.04.2024 23:24 2,6 C 0,0 C 83 % 1033,5 hPa 0,0 l/m 0,0 km/h (0 Bft) S-SW 192 0 min 0,0 UV-I 0 W/m 0,0 C 2,6 C 0,0 km/h (0 Bft)
10.04.2024 23:27 2,6 C 0,0 C 83 % 1033,5 hPa 0,0 l/m 0,0 km/h (0 Bft) S-SW 192 0 min 0,0 UV-I 0 W/m 0,0 C 2,6 C 0,0 km/h (0 Bft)
10.04.2024 23:30 2,6 C 0,0 C 83 % 1033,5 hPa 0,0 l/m 0,3 km/h (0 Bft) S-SW 192 0 min 0,0 UV-I 0 W/m 0,0 C 2,6 C 1,6 km/h (1 Bft)
10.04.2024 23:33 2,4 C 0,0 C 83 % 1033,4 hPa 0,0 l/m 0,3 km/h (0 Bft) S-SW 192 0 min 0,0 UV-I 0 W/m -0,2 C 2,4 C 1,6 km/h (1 Bft)
10.04.2024 23:36 2,3 C 0,0 C 83 % 1033,4 hPa 0,0 l/m 0,8 km/h (0 Bft) S-SW 192 0 min 0,0 UV-I 0 W/m -0,3 C 2,3 C 1,6 km/h (1 Bft)
10.04.2024 23:39 2,3 C 0,0 C 84 % 1033,6 hPa 0,0 l/m 0,1 km/h (0 Bft) S-SW 192 0 min 0,0 UV-I 0 W/m -0,1 C 2,3 C 1,6 km/h (1 Bft)
10.04.2024 23:42 2,4 C 0,0 C 84 % 1033,5 hPa 0,0 l/m 0,2 km/h (0 Bft) S-SW 192 0 min 0,0 UV-I 0 W/m -0,0 C 2,4 C 1,6 km/h (1 Bft)
10.04.2024 23:45 2,4 C 0,0 C 84 % 1033,4 hPa 0,0 l/m 0,1 km/h (0 Bft) S-SW 192 0 min 0,0 UV-I 0 W/m -0,0 C 2,4 C 1,6 km/h (1 Bft)
10.04.2024 23:48 2,4 C 0,0 C 84 % 1033,5 hPa 0,0 l/m 0,1 km/h (0 Bft) S-SW 192 0 min 0,0 UV-I 0 W/m -0,0 C 2,4 C 1,6 km/h (1 Bft)
10.04.2024 23:51 2,3 C 0,0 C 84 % 1033,4 hPa 0,0 l/m 0,0 km/h (0 Bft) S-SW 192 0 min 0,0 UV-I 0 W/m -0,1 C 2,3 C 0,0 km/h (0 Bft)
10.04.2024 23:54 2,1 C 0,0 C 84 % 1033,3 hPa 0,0 l/m 0,7 km/h (0 Bft) S-SW 192 0 min 0,0 UV-I 0 W/m -0,3 C 2,1 C 3,2 km/h (1 Bft)
10.04.2024 23:57 1,8 C -0,6 C 84 % 1033,4 hPa 0,0 l/m 1,4 km/h (1 Bft) S-SW 192 0 min 0,0 UV-I 0 W/m -0,6 C 1,8 C 3,2 km/h (1 Bft)
10.04.2024 23:58 1,8 C -0,6 C 84 % 1033,4 hPa 0,0 l/m 1,6 km/h (1 Bft) S-SW 202 0 min 0,0 UV-I 0 W/m -0,6 C 1,8 C 3,2 km/h (1 Bft)
10.04.2024 23:59 1,8 C -0,6 C 84 % 1033,4 hPa 0,0 l/m 1,6 km/h (1 Bft) S-SW 202 0 min 0,0 UV-I 0 W/m -0,6 C 1,8 C 3,2 km/h (1 Bft)
_ Min-Zeit 23:57 23:57 16:06 00:07 - 20:42 - - - - - 23:57 00:38 20:57
Minimum _ 1,8 C -0,6 C 51 % 1021,8 hPa - 0,0 km/h (0 Bft) - - - - - -0,6 C -1,5 C 0,0 km/h (0 Bft)
_ Max-Zeit 15:54 14:33 06:48 23:39 00:00 00:38 - - 10:06 14:21 12:03 11:12 16:09 00:40
Maximum _ 12,2 C 24,4 C 87 % 1033,6 hPa 0,0 l/m 17,7 km/h
SW (3 Bft)
- - 3 min 3,9 UV-I 903 W/m 4,4 C 11,8 C 29,0 km/h
SW (5 Bft)
Durchschnitt _ 7,2 C 8,3 C 73 % 1029,1 hPa #0,0 l/m 6,8 km/h (2 Bft) S-SW - #4:33 h 1,8 UV-I 289 W/m 2,5 C 6,0 C 11,2 km/h (2 Bft)